<?xml version="1.0" encoding="UTF-8" standalone="no" ?>
<gpx xmlns="http://www.topografix.com/GPX/1/1" xmlns:xsi="http://www.w3.org/2001/XMLSchema-instance" xsi:schemaLocation="http://www.topografix.com/GPX/1/1 http://www.topografix.com/GPX/1/1/gpx.xsd" version="1.1" creator="VisuGPX - https://www.visugpx.com">
  <metadata>
    <name>Sortie du 19/10/14</name>
    <desc><![CDATA[Sortie du 19/10/14]]></desc>
  </metadata>
  <trk>
    <name><![CDATA[Sortie VTT - Forêt de Villalet par le sacq]]></name>
    <desc><![CDATA[Dur dur à cause de la boue --> passage en pneu hiver à l'arrière.]]></desc>
    <trkseg>
      <trkpt lat="48.88355" lon="1.09603">
        <ele>147.19999694824</ele>
        <time>2014-10-19T07:09:52.000Z</time>
      </trkpt>
      <trkpt lat="48.88354" lon="1.09603">
        <ele>146.80000305176</ele>
        <time>2014-10-19T07:10:05.000Z</time>
      </trkpt>
      <trkpt lat="48.88353" lon="1.09613">
        <ele>145.80000305176</ele>
        <time>2014-10-19T07:10:09.000Z</time>
      </trkpt>
      <trkpt lat="48.8834" lon="1.09615">
        <ele>145.80000305176</ele>
        <time>2014-10-19T07:10:13.000Z</time>
      </trkpt>
      <trkpt lat="48.88338" lon="1.09612">
        <ele>145.80000305176</ele>
        <time>2014-10-19T07:10:14.000Z</time>
      </trkpt>
      <trkpt lat="48.88335" lon="1.09607">
        <ele>146.19999694824</ele>
        <time>2014-10-19T07:10:15.000Z</time>
      </trkpt>
      <trkpt lat="48.88292" lon="1.0954">
        <ele>146.80000305176</ele>
        <time>2014-10-19T07:10:29.000Z</time>
      </trkpt>
      <trkpt lat="48.88257" lon="1.09487">
        <ele>147.19999694824</ele>
        <time>2014-10-19T07:10:39.000Z</time>
      </trkpt>
      <trkpt lat="48.88255" lon="1.0948">
        <ele>147.19999694824</ele>
        <time>2014-10-19T07:10:40.000Z</time>
      </trkpt>
      <trkpt lat="48.88255" lon="1.09473">
        <ele>147.60000610352</ele>
        <time>2014-10-19T07:10:41.000Z</time>
      </trkpt>
      <trkpt lat="48.88255" lon="1.09469">
        <ele>147.60000610352</ele>
        <time>2014-10-19T07:10:42.000Z</time>
      </trkpt>
      <trkpt lat="48.88256" lon="1.09463">
        <ele>147.60000610352</ele>
        <time>2014-10-19T07:10:43.000Z</time>
      </trkpt>
      <trkpt lat="48.88255" lon="1.09457">
        <ele>147.60000610352</ele>
        <time>2014-10-19T07:10:44.000Z</time>
      </trkpt>
      <trkpt lat="48.88255" lon="1.09451">
        <ele>148.19999694824</ele>
        <time>2014-10-19T07:10:45.000Z</time>
      </trkpt>
      <trkpt lat="48.88254" lon="1.09439">
        <ele>148.60000610352</ele>
        <time>2014-10-19T07:10:47.000Z</time>
      </trkpt>
      <trkpt lat="48.88253" lon="1.09424">
        <ele>149.19999694824</ele>
        <time>2014-10-19T07:10:49.000Z</time>
      </trkpt>
      <trkpt lat="48.88248" lon="1.09379">
        <ele>150.60000610352</ele>
        <time>2014-10-19T07:10:55.000Z</time>
      </trkpt>
      <trkpt lat="48.88248" lon="1.0937">
        <ele>151</ele>
        <time>2014-10-19T07:10:56.000Z</time>
      </trkpt>
      <trkpt lat="48.88249" lon="1.09312">
        <ele>152</ele>
        <time>2014-10-19T07:11:03.000Z</time>
      </trkpt>
      <trkpt lat="48.8825" lon="1.09305">
        <ele>152</ele>
        <time>2014-10-19T07:11:04.000Z</time>
      </trkpt>
      <trkpt lat="48.88251" lon="1.09297">
        <ele>152</ele>
        <time>2014-10-19T07:11:05.000Z</time>
      </trkpt>
      <trkpt lat="48.88254" lon="1.09288">
        <ele>151.60000610352</ele>
        <time>2014-10-19T07:11:06.000Z</time>
      </trkpt>
      <trkpt lat="48.88256" lon="1.09279">
        <ele>151.60000610352</ele>
        <time>2014-10-19T07:11:07.000Z</time>
      </trkpt>
      <trkpt lat="48.88282" lon="1.09201">
        <ele>151</ele>
        <time>2014-10-19T07:11:16.000Z</time>
      </trkpt>
      <trkpt lat="48.88283" lon="1.09192">
        <ele>151.60000610352</ele>
        <time>2014-10-19T07:11:17.000Z</time>
      </trkpt>
      <trkpt lat="48.88284" lon="1.09183">
        <ele>151.60000610352</ele>
        <time>2014-10-19T07:11:18.000Z</time>
      </trkpt>
      <trkpt lat="48.88283" lon="1.09176">
        <ele>151</ele>
        <time>2014-10-19T07:11:19.000Z</time>
      </trkpt>
      <trkpt lat="48.88281" lon="1.09168">
        <ele>151</ele>
        <time>2014-10-19T07:11:20.000Z</time>
      </trkpt>
      <trkpt lat="48.88277" lon="1.09161">
        <ele>151</ele>
        <time>2014-10-19T07:11:21.000Z</time>
      </trkpt>
      <trkpt lat="48.88273" lon="1.09154">
        <ele>151</ele>
        <time>2014-10-19T07:11:22.000Z</time>
      </trkpt>
      <trkpt lat="48.88269" lon="1.09148">
        <ele>150.60000610352</ele>
        <time>2014-10-19T07:11:23.000Z</time>
      </trkpt>
      <trkpt lat="48.88264" lon="1.09142">
        <ele>150.60000610352</ele>
        <time>2014-10-19T07:11:24.000Z</time>
      </trkpt>
      <trkpt lat="48.88259" lon="1.09137">
        <ele>150.60000610352</ele>
        <time>2014-10-19T07:11:25.000Z</time>
      </trkpt>
      <trkpt lat="48.88254" lon="1.09132">
        <ele>150.19999694824</ele>
        <time>2014-10-19T07:11:26.000Z</time>
      </trkpt>
      <trkpt lat="48.8825" lon="1.09127">
        <ele>150.19999694824</ele>
        <time>2014-10-19T07:11:27.000Z</time>
      </trkpt>
      <trkpt lat="48.88245" lon="1.09121">
        <ele>150.19999694824</ele>
        <time>2014-10-19T07:11:28.000Z</time>
      </trkpt>
      <trkpt lat="48.8824" lon="1.09116">
        <ele>149.60000610352</ele>
        <time>2014-10-19T07:11:29.000Z</time>
      </trkpt>
      <trkpt lat="48.88236" lon="1.0911">
        <ele>149.60000610352</ele>
        <time>2014-10-19T07:11:30.000Z</time>
      </trkpt>
      <trkpt lat="48.88233" lon="1.09104">
        <ele>149.60000610352</ele>
        <time>2014-10-19T07:11:31.000Z</time>
      </trkpt>
      <trkpt lat="48.88229" lon="1.09096">
        <ele>149.60000610352</ele>
        <time>2014-10-19T07:11:32.000Z</time>
      </trkpt>
      <trkpt lat="48.88226" lon="1.09088">
        <ele>149.60000610352</ele>
        <time>2014-10-19T07:11:33.000Z</time>
      </trkpt>
      <trkpt lat="48.88223" lon="1.0908">
        <ele>149.60000610352</ele>
        <time>2014-10-19T07:11:34.000Z</time>
      </trkpt>
      <trkpt lat="48.88221" lon="1.09071">
        <ele>149.60000610352</ele>
        <time>2014-10-19T07:11:35.000Z</time>
      </trkpt>
      <trkpt lat="48.88217" lon="1.09053">
        <ele>149.60000610352</ele>
        <time>2014-10-19T07:11:37.000Z</time>
      </trkpt>
      <trkpt lat="48.88216" lon="1.09045">
        <ele>149.60000610352</ele>
        <time>2014-10-19T07:11:38.000Z</time>
      </trkpt>
      <trkpt lat="48.88216" lon="1.09036">
        <ele>149.60000610352</ele>
        <time>2014-10-19T07:11:39.000Z</time>
      </trkpt>
      <trkpt lat="48.88216" lon="1.09028">
        <ele>149.60000610352</ele>
        <time>2014-10-19T07:11:40.000Z</time>
      </trkpt>
      <trkpt lat="48.88218" lon="1.09021">
        <ele>149.60000610352</ele>
        <time>2014-10-19T07:11:41.000Z</time>
      </trkpt>
      <trkpt lat="48.88219" lon="1.09013">
        <ele>149.19999694824</ele>
        <time>2014-10-19T07:11:42.000Z</time>
      </trkpt>
      <trkpt lat="48.88221" lon="1.09004">
        <ele>149.19999694824</ele>
        <time>2014-10-19T07:11:43.000Z</time>
      </trkpt>
      <trkpt lat="48.88222" lon="1.08996">
        <ele>149.19999694824</ele>
        <time>2014-10-19T07:11:44.000Z</time>
      </trkpt>
      <trkpt lat="48.88225" lon="1.0898">
        <ele>149.19999694824</ele>
        <time>2014-10-19T07:11:46.000Z</time>
      </trkpt>
      <trkpt lat="48.88232" lon="1.08927">
        <ele>149.19999694824</ele>
        <time>2014-10-19T07:11:52.000Z</time>
      </trkpt>
      <trkpt lat="48.88232" lon="1.08918">
        <ele>148.60000610352</ele>
        <time>2014-10-19T07:11:53.000Z</time>
      </trkpt>
      <trkpt lat="48.88232" lon="1.0891">
        <ele>148.60000610352</ele>
        <time>2014-10-19T07:11:54.000Z</time>
      </trkpt>
      <trkpt lat="48.88232" lon="1.08901">
        <ele>148.60000610352</ele>
        <time>2014-10-19T07:11:55.000Z</time>
      </trkpt>
      <trkpt lat="48.88233" lon="1.08892">
        <ele>148.60000610352</ele>
        <time>2014-10-19T07:11:56.000Z</time>
      </trkpt>
      <trkpt lat="48.88234" lon="1.08884">
        <ele>148.60000610352</ele>
        <time>2014-10-19T07:11:57.000Z</time>
      </trkpt>
      <trkpt lat="48.88236" lon="1.08876">
        <ele>148.60000610352</ele>
        <time>2014-10-19T07:11:58.000Z</time>
      </trkpt>
      <trkpt lat="48.88237" lon="1.08867">
        <ele>148.60000610352</ele>
        <time>2014-10-19T07:11:59.000Z</time>
      </trkpt>
      <trkpt lat="48.88248" lon="1.08776">
        <ele>147.60000610352</ele>
        <time>2014-10-19T07:12:10.000Z</time>
      </trkpt>
      <trkpt lat="48.88249" lon="1.08761">
        <ele>147.19999694824</ele>
        <time>2014-10-19T07:12:12.000Z</time>
      </trkpt>
      <trkpt lat="48.8825" lon="1.08753">
        <ele>147.19999694824</ele>
        <time>2014-10-19T07:12:13.000Z</time>
      </trkpt>
      <trkpt lat="48.88251" lon="1.08714">
        <ele>144.39999389648</ele>
        <time>2014-10-19T07:12:21.000Z</time>
      </trkpt>
      <trkpt lat="48.88249" lon="1.08673">
        <ele>144.39999389648</ele>
        <time>2014-10-19T07:12:25.000Z</time>
      </trkpt>
      <trkpt lat="48.88244" lon="1.08576">
        <ele>143.39999389648</ele>
        <time>2014-10-19T07:12:34.000Z</time>
      </trkpt>
      <trkpt lat="48.88239" lon="1.08437">
        <ele>140.39999389648</ele>
        <time>2014-10-19T07:12:50.000Z</time>
      </trkpt>
      <trkpt lat="48.88238" lon="1.0843">
        <ele>140.39999389648</ele>
        <time>2014-10-19T07:12:51.000Z</time>
      </trkpt>
      <trkpt lat="48.88236" lon="1.08423">
        <ele>140.39999389648</ele>
        <time>2014-10-19T07:12:52.000Z</time>
      </trkpt>
      <trkpt lat="48.8822" lon="1.08372">
        <ele>139.60000610352</ele>
        <time>2014-10-19T07:12:59.000Z</time>
      </trkpt>
      <trkpt lat="48.88217" lon="1.08365">
        <ele>139</ele>
        <time>2014-10-19T07:13:00.000Z</time>
      </trkpt>
      <trkpt lat="48.88213" lon="1.08361">
        <ele>139</ele>
        <time>2014-10-19T07:13:01.000Z</time>
      </trkpt>
      <trkpt lat="48.88208" lon="1.08359">
        <ele>138.60000610352</ele>
        <time>2014-10-19T07:13:02.000Z</time>
      </trkpt>
      <trkpt lat="48.88203" lon="1.08358">
        <ele>137.60000610352</ele>
        <time>2014-10-19T07:13:03.000Z</time>
      </trkpt>
      <trkpt lat="48.88199" lon="1.08358">
        <ele>137.60000610352</ele>
        <time>2014-10-19T07:13:04.000Z</time>
      </trkpt>
      <trkpt lat="48.88194" lon="1.08357">
        <ele>136.60000610352</ele>
        <time>2014-10-19T07:13:05.000Z</time>
      </trkpt>
      <trkpt lat="48.8819" lon="1.08356">
        <ele>135.19999694824</ele>
        <time>2014-10-19T07:13:06.000Z</time>
      </trkpt>
      <trkpt lat="48.88186" lon="1.08355">
        <ele>134.19999694824</ele>
        <time>2014-10-19T07:13:07.000Z</time>
      </trkpt>
      <trkpt lat="48.88154" lon="1.08344">
        <ele>131.39999389648</ele>
        <time>2014-10-19T07:13:14.000Z</time>
      </trkpt>
      <trkpt lat="48.88136" lon="1.0833">
        <ele>130</ele>
        <time>2014-10-19T07:13:18.000Z</time>
      </trkpt>
      <trkpt lat="48.88133" lon="1.08325">
        <ele>130</ele>
        <time>2014-10-19T07:13:19.000Z</time>
      </trkpt>
      <trkpt lat="48.88128" lon="1.08312">
        <ele>129.39999389648</ele>
        <time>2014-10-19T07:13:21.000Z</time>
      </trkpt>
      <trkpt lat="48.88126" lon="1.08305">
        <ele>129.39999389648</ele>
        <time>2014-10-19T07:13:22.000Z</time>
      </trkpt>
      <trkpt lat="48.88102" lon="1.08238">
        <ele>127.59999847412</ele>
        <time>2014-10-19T07:13:34.000Z</time>
      </trkpt>
      <trkpt lat="48.88085" lon="1.08214">
        <ele>126</ele>
        <time>2014-10-19T07:13:41.000Z</time>
      </trkpt>
      <trkpt lat="48.88082" lon="1.08212">
        <ele>126.59999847412</ele>
        <time>2014-10-19T07:13:42.000Z</time>
      </trkpt>
      <trkpt lat="48.88065" lon="1.08198">
        <ele>127.59999847412</ele>
        <time>2014-10-19T07:13:55.000Z</time>
      </trkpt>
      <trkpt lat="48.88059" lon="1.08192">
        <ele>127.59999847412</ele>
        <time>2014-10-19T07:14:00.000Z</time>
      </trkpt>
      <trkpt lat="48.88059" lon="1.0819">
        <ele>128</ele>
        <time>2014-10-19T07:14:01.000Z</time>
      </trkpt>
      <trkpt lat="48.88057" lon="1.08187">
        <ele>128</ele>
        <time>2014-10-19T07:14:03.000Z</time>
      </trkpt>
      <trkpt lat="48.88051" lon="1.08179">
        <ele>128</ele>
        <time>2014-10-19T07:14:08.000Z</time>
      </trkpt>
      <trkpt lat="48.8805" lon="1.08177">
        <ele>128</ele>
        <time>2014-10-19T07:14:09.000Z</time>
      </trkpt>
      <trkpt lat="48.88049" lon="1.08175">
        <ele>128.39999389648</ele>
        <time>2014-10-19T07:14:10.000Z</time>
      </trkpt>
      <trkpt lat="48.88049" lon="1.08173">
        <ele>128</ele>
        <time>2014-10-19T07:14:11.000Z</time>
      </trkpt>
      <trkpt lat="48.88049" lon="1.0817">
        <ele>128</ele>
        <time>2014-10-19T07:14:12.000Z</time>
      </trkpt>
      <trkpt lat="48.8805" lon="1.08147">
        <ele>130</ele>
        <time>2014-10-19T07:14:23.000Z</time>
      </trkpt>
      <trkpt lat="48.88052" lon="1.08136">
        <ele>130.80000305176</ele>
        <time>2014-10-19T07:14:28.000Z</time>
      </trkpt>
      <trkpt lat="48.88053" lon="1.08134">
        <ele>131.39999389648</ele>
        <time>2014-10-19T07:14:29.000Z</time>
      </trkpt>
      <trkpt lat="48.88062" lon="1.08107">
        <ele>135.19999694824</ele>
        <time>2014-10-19T07:14:41.000Z</time>
      </trkpt>
      <trkpt lat="48.88063" lon="1.08106">
        <ele>135.60000610352</ele>
        <time>2014-10-19T07:14:42.000Z</time>
      </trkpt>
      <trkpt lat="48.88063" lon="1.08104">
        <ele>135.60000610352</ele>
        <time>2014-10-19T07:14:43.000Z</time>
      </trkpt>
      <trkpt lat="48.88064" lon="1.08101">
        <ele>136.19999694824</ele>
        <time>2014-10-19T07:14:44.000Z</time>
      </trkpt>
      <trkpt lat="48.88065" lon="1.08099">
        <ele>137.19999694824</ele>
        <time>2014-10-19T07:14:45.000Z</time>
      </trkpt>
      <trkpt lat="48.88066" lon="1.08096">
        <ele>137.19999694824</ele>
        <time>2014-10-19T07:14:46.000Z</time>
      </trkpt>
      <trkpt lat="48.88067" lon="1.08093">
        <ele>137.60000610352</ele>
        <time>2014-10-19T07:14:47.000Z</time>
      </trkpt>
      <trkpt lat="48.88069" lon="1.0809">
        <ele>138</ele>
        <time>2014-10-19T07:14:48.000Z</time>
      </trkpt>
      <trkpt lat="48.8807" lon="1.08088">
        <ele>138</ele>
        <time>2014-10-19T07:14:49.000Z</time>
      </trkpt>
      <trkpt lat="48.88091" lon="1.08045">
        <ele>136.60000610352</ele>
        <time>2014-10-19T07:15:03.000Z</time>
      </trkpt>
      <trkpt lat="48.88102" lon="1.07993">
        <ele>137.19999694824</ele>
        <time>2014-10-19T07:15:15.000Z</time>
      </trkpt>
      <trkpt lat="48.88108" lon="1.07926">
        <ele>137.19999694824</ele>
        <time>2014-10-19T07:15:29.000Z</time>
      </trkpt>
      <trkpt lat="48.8812" lon="1.07867">
        <ele>144.39999389648</ele>
        <time>2014-10-19T07:15:41.000Z</time>
      </trkpt>
      <trkpt lat="48.88146" lon="1.07853">
        <ele>148.19999694824</ele>
        <time>2014-10-19T07:15:50.000Z</time>
      </trkpt>
      <trkpt lat="48.88173" lon="1.0785">
        <ele>150.19999694824</ele>
        <time>2014-10-19T07:16:01.000Z</time>
      </trkpt>
      <trkpt lat="48.88206" lon="1.07825">
        <ele>151</ele>
        <time>2014-10-19T07:16:13.000Z</time>
      </trkpt>
      <trkpt lat="48.8821" lon="1.07818">
        <ele>150.60000610352</ele>
        <time>2014-10-19T07:16:16.000Z</time>
      </trkpt>
      <trkpt lat="48.88211" lon="1.07816">
        <ele>150.60000610352</ele>
        <time>2014-10-19T07:16:17.000Z</time>
      </trkpt>
      <trkpt lat="48.88211" lon="1.07815">
        <ele>150.60000610352</ele>
        <time>2014-10-19T07:16:18.000Z</time>
      </trkpt>
      <trkpt lat="48.8821" lon="1.07814">
        <ele>150.60000610352</ele>
        <time>2014-10-19T07:16:19.000Z</time>
      </trkpt>
      <trkpt lat="48.88209" lon="1.07814">
        <ele>150.60000610352</ele>
        <time>2014-10-19T07:16:20.000Z</time>
      </trkpt>
      <trkpt lat="48.88208" lon="1.07816">
        <ele>150.60000610352</ele>
        <time>2014-10-19T07:16:21.000Z</time>
      </trkpt>
      <trkpt lat="48.88207" lon="1.07818">
        <ele>150.60000610352</ele>
        <time>2014-10-19T07:16:22.000Z</time>
      </trkpt>
      <trkpt lat="48.88207" lon="1.07821">
        <ele>150.60000610352</ele>
        <time>2014-10-19T07:16:23.000Z</time>
      </trkpt>
      <trkpt lat="48.88205" lon="1.07825">
        <ele>150.60000610352</ele>
        <time>2014-10-19T07:16:24.000Z</time>
      </trkpt>
      <trkpt lat="48.88204" lon="1.07828">
        <ele>150.60000610352</ele>
        <time>2014-10-19T07:16:25.000Z</time>
      </trkpt>
      <trkpt lat="48.88203" lon="1.07832">
        <ele>150.60000610352</ele>
        <time>2014-10-19T07:16:26.000Z</time>
      </trkpt>
      <trkpt lat="48.88204" lon="1.07839">
        <ele>150.60000610352</ele>
        <time>2014-10-19T07:16:28.000Z</time>
      </trkpt>
      <trkpt lat="48.88234" lon="1.07882">
        <ele>150.19999694824</ele>
        <time>2014-10-19T07:16:41.000Z</time>
      </trkpt>
      <trkpt lat="48.88274" lon="1.07943">
        <ele>150.60000610352</ele>
        <time>2014-10-19T07:16:57.000Z</time>
      </trkpt>
      <trkpt lat="48.88299" lon="1.07995">
        <ele>151.60000610352</ele>
        <time>2014-10-19T07:17:09.000Z</time>
      </trkpt>
      <trkpt lat="48.88315" lon="1.08034">
        <ele>152.60000610352</ele>
        <time>2014-10-19T07:17:17.000Z</time>
      </trkpt>
      <trkpt lat="48.88353" lon="1.08016">
        <ele>153.39999389648</ele>
        <time>2014-10-19T07:17:28.000Z</time>
      </trkpt>
      <trkpt lat="48.88416" lon="1.07977">
        <ele>153</ele>
        <time>2014-10-19T07:17:45.000Z</time>
      </trkpt>
      <trkpt lat="48.88484" lon="1.07935">
        <ele>149.60000610352</ele>
        <time>2014-10-19T07:18:04.000Z</time>
      </trkpt>
      <trkpt lat="48.88493" lon="1.07929">
        <ele>149.19999694824</ele>
        <time>2014-10-19T07:18:07.000Z</time>
      </trkpt>
      <trkpt lat="48.88541" lon="1.07934">
        <ele>147.19999694824</ele>
        <time>2014-10-19T07:18:20.000Z</time>
      </trkpt>
      <trkpt lat="48.88574" lon="1.07879">
        <ele>148.60000610352</ele>
        <time>2014-10-19T07:18:33.000Z</time>
      </trkpt>
      <trkpt lat="48.88617" lon="1.07803">
        <ele>151.60000610352</ele>
        <time>2014-10-19T07:18:50.000Z</time>
      </trkpt>
      <trkpt lat="48.88622" lon="1.07795">
        <ele>151.60000610352</ele>
        <time>2014-10-19T07:18:52.000Z</time>
      </trkpt>
      <trkpt lat="48.88626" lon="1.0776">
        <ele>152.60000610352</ele>
        <time>2014-10-19T07:19:00.000Z</time>
      </trkpt>
      <trkpt lat="48.88631" lon="1.07756">
        <ele>153</ele>
        <time>2014-10-19T07:19:02.000Z</time>
      </trkpt>
      <trkpt lat="48.88665" lon="1.07709">
        <ele>152</ele>
        <time>2014-10-19T07:19:15.000Z</time>
      </trkpt>
      <trkpt lat="48.88654" lon="1.07663">
        <ele>155</ele>
        <time>2014-10-19T07:19:27.000Z</time>
      </trkpt>
      <trkpt lat="48.88638" lon="1.07603">
        <ele>162.60000610352</ele>
        <time>2014-10-19T07:19:43.000Z</time>
      </trkpt>
      <trkpt lat="48.88629" lon="1.07558">
        <ele>166</ele>
        <time>2014-10-19T07:19:53.000Z</time>
      </trkpt>
      <trkpt lat="48.88631" lon="1.07549">
        <ele>165</ele>
        <time>2014-10-19T07:19:55.000Z</time>
      </trkpt>
      <trkpt lat="48.88635" lon="1.07546">
        <ele>164</ele>
        <time>2014-10-19T07:19:56.000Z</time>
      </trkpt>
      <trkpt lat="48.88637" lon="1.07544">
        <ele>163.60000610352</ele>
        <time>2014-10-19T07:19:57.000Z</time>
      </trkpt>
      <trkpt lat="48.88641" lon="1.07543">
        <ele>163</ele>
        <time>2014-10-19T07:19:58.000Z</time>
      </trkpt>
      <trkpt lat="48.88663" lon="1.07539">
        <ele>160.60000610352</ele>
        <time>2014-10-19T07:20:03.000Z</time>
      </trkpt>
      <trkpt lat="48.88667" lon="1.07539">
        <ele>160.19999694824</ele>
        <time>2014-10-19T07:20:04.000Z</time>
      </trkpt>
      <trkpt lat="48.88732" lon="1.07525">
        <ele>155.80000305176</ele>
        <time>2014-10-19T07:20:18.000Z</time>
      </trkpt>
      <trkpt lat="48.88794" lon="1.07515">
        <ele>153.39999389648</ele>
        <time>2014-10-19T07:20:30.000Z</time>
      </trkpt>
      <trkpt lat="48.88862" lon="1.07518">
        <ele>152.60000610352</ele>
        <time>2014-10-19T07:20:42.000Z</time>
      </trkpt>
      <trkpt lat="48.88897" lon="1.07513">
        <ele>151.60000610352</ele>
        <time>2014-10-19T07:20:48.000Z</time>
      </trkpt>
      <trkpt lat="48.88902" lon="1.07511">
        <ele>151.60000610352</ele>
        <time>2014-10-19T07:20:49.000Z</time>
      </trkpt>
      <trkpt lat="48.88912" lon="1.07504">
        <ele>151</ele>
        <time>2014-10-19T07:20:51.000Z</time>
      </trkpt>
      <trkpt lat="48.88922" lon="1.07495">
        <ele>150.60000610352</ele>
        <time>2014-10-19T07:20:53.000Z</time>
      </trkpt>
      <trkpt lat="48.88977" lon="1.07443">
        <ele>149.60000610352</ele>
        <time>2014-10-19T07:21:04.000Z</time>
      </trkpt>
      <trkpt lat="48.88981" lon="1.07439">
        <ele>149.19999694824</ele>
        <time>2014-10-19T07:21:05.000Z</time>
      </trkpt>
      <trkpt lat="48.88991" lon="1.07431">
        <ele>148.60000610352</ele>
        <time>2014-10-19T07:21:07.000Z</time>
      </trkpt>
      <trkpt lat="48.88999" lon="1.07421">
        <ele>148.19999694824</ele>
        <time>2014-10-19T07:21:09.000Z</time>
      </trkpt>
      <trkpt lat="48.89003" lon="1.07416">
        <ele>148.19999694824</ele>
        <time>2014-10-19T07:21:10.000Z</time>
      </trkpt>
      <trkpt lat="48.89018" lon="1.07395">
        <ele>146.80000305176</ele>
        <time>2014-10-19T07:21:14.000Z</time>
      </trkpt>
      <trkpt lat="48.89022" lon="1.07393">
        <ele>146.80000305176</ele>
        <time>2014-10-19T07:21:15.000Z</time>
      </trkpt>
      <trkpt lat="48.89027" lon="1.07394">
        <ele>146.80000305176</ele>
        <time>2014-10-19T07:21:16.000Z</time>
      </trkpt>
      <trkpt lat="48.89032" lon="1.07398">
        <ele>146.80000305176</ele>
        <time>2014-10-19T07:21:17.000Z</time>
      </trkpt>
      <trkpt lat="48.89036" lon="1.07404">
        <ele>146.80000305176</ele>
        <time>2014-10-19T07:21:18.000Z</time>
      </trkpt>
      <trkpt lat="48.89069" lon="1.07447">
        <ele>145.39999389648</ele>
        <time>2014-10-19T07:21:25.000Z</time>
      </trkpt>
      <trkpt lat="48.89071" lon="1.07453">
        <ele>144.80000305176</ele>
        <time>2014-10-19T07:21:26.000Z</time>
      </trkpt>
      <trkpt lat="48.89071" lon="1.07458">
        <ele>144.39999389648</ele>
        <time>2014-10-19T07:21:27.000Z</time>
      </trkpt>
      <trkpt lat="48.89071" lon="1.07464">
        <ele>144.39999389648</ele>
        <time>2014-10-19T07:21:28.000Z</time>
      </trkpt>
      <trkpt lat="48.89072" lon="1.07467">
        <ele>143.80000305176</ele>
        <time>2014-10-19T07:21:29.000Z</time>
      </trkpt>
      <trkpt lat="48.89073" lon="1.07472">
        <ele>143.80000305176</ele>
        <time>2014-10-19T07:21:30.000Z</time>
      </trkpt>
      <trkpt lat="48.89076" lon="1.07476">
        <ele>143.39999389648</ele>
        <time>2014-10-19T07:21:31.000Z</time>
      </trkpt>
      <trkpt lat="48.89079" lon="1.07476">
        <ele>142.80000305176</ele>
        <time>2014-10-19T07:21:32.000Z</time>
      </trkpt>
      <trkpt lat="48.89082" lon="1.07473">
        <ele>142.80000305176</ele>
        <time>2014-10-19T07:21:33.000Z</time>
      </trkpt>
      <trkpt lat="48.89085" lon="1.07468">
        <ele>142.39999389648</ele>
        <time>2014-10-19T07:21:34.000Z</time>
      </trkpt>
      <trkpt lat="48.89089" lon="1.07463">
        <ele>142</ele>
        <time>2014-10-19T07:21:35.000Z</time>
      </trkpt>
      <trkpt lat="48.89093" lon="1.07457">
        <ele>141.39999389648</ele>
        <time>2014-10-19T07:21:36.000Z</time>
      </trkpt>
      <trkpt lat="48.89098" lon="1.07451">
        <ele>141</ele>
        <time>2014-10-19T07:21:37.000Z</time>
      </trkpt>
      <trkpt lat="48.89103" lon="1.07447">
        <ele>140.39999389648</ele>
        <time>2014-10-19T07:21:38.000Z</time>
      </trkpt>
      <trkpt lat="48.89169" lon="1.07409">
        <ele>134.19999694824</ele>
        <time>2014-10-19T07:21:49.000Z</time>
      </trkpt>
      <trkpt lat="48.8925" lon="1.07355">
        <ele>131.39999389648</ele>
        <time>2014-10-19T07:22:01.000Z</time>
      </trkpt>
      <trkpt lat="48.89277" lon="1.07344">
        <ele>131.39999389648</ele>
        <time>2014-10-19T07:22:05.000Z</time>
      </trkpt>
      <trkpt lat="48.89283" lon="1.07344">
        <ele>131.39999389648</ele>
        <time>2014-10-19T07:22:06.000Z</time>
      </trkpt>
      <trkpt lat="48.89291" lon="1.07345">
        <ele>131.39999389648</ele>
        <time>2014-10-19T07:22:07.000Z</time>
      </trkpt>
      <trkpt lat="48.89298" lon="1.0735">
        <ele>131.39999389648</ele>
        <time>2014-10-19T07:22:08.000Z</time>
      </trkpt>
      <trkpt lat="48.89305" lon="1.07357">
        <ele>131.39999389648</ele>
        <time>2014-10-19T07:22:09.000Z</time>
      </trkpt>
      <trkpt lat="48.89311" lon="1.07365">
        <ele>131.39999389648</ele>
        <time>2014-10-19T07:22:10.000Z</time>
      </trkpt>
      <trkpt lat="48.89317" lon="1.07374">
        <ele>130.80000305176</ele>
        <time>2014-10-19T07:22:11.000Z</time>
      </trkpt>
      <trkpt lat="48.89415" lon="1.07509">
        <ele>129</ele>
        <time>2014-10-19T07:22:27.000Z</time>
      </trkpt>
      <trkpt lat="48.89453" lon="1.07619">
        <ele>129.39999389648</ele>
        <time>2014-10-19T07:22:38.000Z</time>
      </trkpt>
      <trkpt lat="48.89477" lon="1.07672">
        <ele>129</ele>
        <time>2014-10-19T07:22:44.000Z</time>
      </trkpt>
      <trkpt lat="48.89478" lon="1.07682">
        <ele>129</ele>
        <time>2014-10-19T07:22:45.000Z</time>
      </trkpt>
      <trkpt lat="48.89481" lon="1.07752">
        <ele>130.80000305176</ele>
        <time>2014-10-19T07:22:56.000Z</time>
      </trkpt>
      <trkpt lat="48.89484" lon="1.07789">
        <ele>132.80000305176</ele>
        <time>2014-10-19T07:23:08.000Z</time>
      </trkpt>
      <trkpt lat="48.8948" lon="1.07817">
        <ele>135.60000610352</ele>
        <time>2014-10-19T07:23:18.000Z</time>
      </trkpt>
      <trkpt lat="48.89467" lon="1.0785">
        <ele>138</ele>
        <time>2014-10-19T07:23:30.000Z</time>
      </trkpt>
      <trkpt lat="48.89457" lon="1.07881">
        <ele>138</ele>
        <time>2014-10-19T07:23:38.000Z</time>
      </trkpt>
      <trkpt lat="48.89455" lon="1.07884">
        <ele>138</ele>
        <time>2014-10-19T07:23:39.000Z</time>
      </trkpt>
      <trkpt lat="48.89453" lon="1.07887">
        <ele>138</ele>
        <time>2014-10-19T07:23:40.000Z</time>
      </trkpt>
      <trkpt lat="48.89452" lon="1.07891">
        <ele>138</ele>
        <time>2014-10-19T07:23:41.000Z</time>
      </trkpt>
      <trkpt lat="48.89451" lon="1.07895">
        <ele>138</ele>
        <time>2014-10-19T07:23:42.000Z</time>
      </trkpt>
      <trkpt lat="48.89439" lon="1.0795">
        <ele>137.19999694824</ele>
        <time>2014-10-19T07:23:53.000Z</time>
      </trkpt>
      <trkpt lat="48.89432" lon="1.0797">
        <ele>136.19999694824</ele>
        <time>2014-10-19T07:23:56.000Z</time>
      </trkpt>
      <trkpt lat="48.89429" lon="1.07975">
        <ele>136.19999694824</ele>
        <time>2014-10-19T07:23:57.000Z</time>
      </trkpt>
      <trkpt lat="48.89426" lon="1.07981">
        <ele>135.60000610352</ele>
        <time>2014-10-19T07:23:58.000Z</time>
      </trkpt>
      <trkpt lat="48.89424" lon="1.07987">
        <ele>135.60000610352</ele>
        <time>2014-10-19T07:23:59.000Z</time>
      </trkpt>
      <trkpt lat="48.89421" lon="1.07992">
        <ele>135.60000610352</ele>
        <time>2014-10-19T07:24:00.000Z</time>
      </trkpt>
      <trkpt lat="48.89406" lon="1.08052">
        <ele>135.60000610352</ele>
        <time>2014-10-19T07:24:11.000Z</time>
      </trkpt>
      <trkpt lat="48.89402" lon="1.08082">
        <ele>135.19999694824</ele>
        <time>2014-10-19T07:24:15.000Z</time>
      </trkpt>
      <trkpt lat="48.89402" lon="1.08091">
        <ele>135.19999694824</ele>
        <time>2014-10-19T07:24:16.000Z</time>
      </trkpt>
      <trkpt lat="48.89407" lon="1.08199">
        <ele>136.60000610352</ele>
        <time>2014-10-19T07:24:31.000Z</time>
      </trkpt>
      <trkpt lat="48.89409" lon="1.08226">
        <ele>137.60000610352</ele>
        <time>2014-10-19T07:24:36.000Z</time>
      </trkpt>
      <trkpt lat="48.89452" lon="1.08323">
        <ele>138.60000610352</ele>
        <time>2014-10-19T07:24:54.000Z</time>
      </trkpt>
      <trkpt lat="48.89475" lon="1.08383">
        <ele>140</ele>
        <time>2014-10-19T07:25:09.000Z</time>
      </trkpt>
      <trkpt lat="48.89484" lon="1.08424">
        <ele>141</ele>
        <time>2014-10-19T07:25:20.000Z</time>
      </trkpt>
      <trkpt lat="48.89489" lon="1.08475">
        <ele>149.19999694824</ele>
        <time>2014-10-19T07:25:34.000Z</time>
      </trkpt>
      <trkpt lat="48.89506" lon="1.08527">
        <ele>155.80000305176</ele>
        <time>2014-10-19T07:25:47.000Z</time>
      </trkpt>
      <trkpt lat="48.89521" lon="1.08559">
        <ele>161.60000610352</ele>
        <time>2014-10-19T07:25:54.000Z</time>
      </trkpt>
      <trkpt lat="48.89523" lon="1.08565">
        <ele>162.19999694824</ele>
        <time>2014-10-19T07:25:55.000Z</time>
      </trkpt>
      <trkpt lat="48.89533" lon="1.08595">
        <ele>163.60000610352</ele>
        <time>2014-10-19T07:26:00.000Z</time>
      </trkpt>
      <trkpt lat="48.89534" lon="1.08601">
        <ele>163.60000610352</ele>
        <time>2014-10-19T07:26:01.000Z</time>
      </trkpt>
      <trkpt lat="48.89536" lon="1.08615">
        <ele>163.60000610352</ele>
        <time>2014-10-19T07:26:03.000Z</time>
      </trkpt>
      <trkpt lat="48.89532" lon="1.08648">
        <ele>162.60000610352</ele>
        <time>2014-10-19T07:26:08.000Z</time>
      </trkpt>
      <trkpt lat="48.8953" lon="1.08654">
        <ele>162.19999694824</ele>
        <time>2014-10-19T07:26:09.000Z</time>
      </trkpt>
      <trkpt lat="48.89533" lon="1.0867">
        <ele>161.19999694824</ele>
        <time>2014-10-19T07:26:13.000Z</time>
      </trkpt>
      <trkpt lat="48.89552" lon="1.08685">
        <ele>157.39999389648</ele>
        <time>2014-10-19T07:26:18.000Z</time>
      </trkpt>
      <trkpt lat="48.89576" lon="1.08682">
        <ele>156.39999389648</ele>
        <time>2014-10-19T07:26:23.000Z</time>
      </trkpt>
      <trkpt lat="48.89637" lon="1.08667">
        <ele>158.19999694824</ele>
        <time>2014-10-19T07:26:33.000Z</time>
      </trkpt>
      <trkpt lat="48.89642" lon="1.08668">
        <ele>158.80000305176</ele>
        <time>2014-10-19T07:26:34.000Z</time>
      </trkpt>
      <trkpt lat="48.89671" lon="1.08667">
        <ele>161.60000610352</ele>
        <time>2014-10-19T07:26:40.000Z</time>
      </trkpt>
      <trkpt lat="48.89676" lon="1.08666">
        <ele>162.19999694824</ele>
        <time>2014-10-19T07:26:41.000Z</time>
      </trkpt>
      <trkpt lat="48.8974" lon="1.08648">
        <ele>167.39999389648</ele>
        <time>2014-10-19T07:26:53.000Z</time>
      </trkpt>
      <trkpt lat="48.898" lon="1.08621">
        <ele>168.80000305176</ele>
        <time>2014-10-19T07:27:05.000Z</time>
      </trkpt>
      <trkpt lat="48.89833" lon="1.08595">
        <ele>162.19999694824</ele>
        <time>2014-10-19T07:27:12.000Z</time>
      </trkpt>
      <trkpt lat="48.89925" lon="1.08518">
        <ele>152.60000610352</ele>
        <time>2014-10-19T07:27:28.000Z</time>
      </trkpt>
      <trkpt lat="48.90041" lon="1.08413">
        <ele>145.80000305176</ele>
        <time>2014-10-19T07:27:44.000Z</time>
      </trkpt>
      <trkpt lat="48.90158" lon="1.08291">
        <ele>141</ele>
        <time>2014-10-19T07:28:00.000Z</time>
      </trkpt>
      <trkpt lat="48.9024" lon="1.08205">
        <ele>137.60000610352</ele>
        <time>2014-10-19T07:28:12.000Z</time>
      </trkpt>
      <trkpt lat="48.90248" lon="1.08201">
        <ele>137.19999694824</ele>
        <time>2014-10-19T07:28:13.000Z</time>
      </trkpt>
      <trkpt lat="48.90256" lon="1.082">
        <ele>136.60000610352</ele>
        <time>2014-10-19T07:28:14.000Z</time>
      </trkpt>
      <trkpt lat="48.90264" lon="1.08202">
        <ele>136.19999694824</ele>
        <time>2014-10-19T07:28:15.000Z</time>
      </trkpt>
      <trkpt lat="48.90274" lon="1.08211">
        <ele>135.60000610352</ele>
        <time>2014-10-19T07:28:16.000Z</time>
      </trkpt>
      <trkpt lat="48.90279" lon="1.08221">
        <ele>135.19999694824</ele>
        <time>2014-10-19T07:28:17.000Z</time>
      </trkpt>
      <trkpt lat="48.9028" lon="1.08232">
        <ele>134.80000305176</ele>
        <time>2014-10-19T07:28:18.000Z</time>
      </trkpt>
      <trkpt lat="48.90281" lon="1.08244">
        <ele>134.19999694824</ele>
        <time>2014-10-19T07:28:19.000Z</time>
      </trkpt>
      <trkpt lat="48.9028" lon="1.08252">
        <ele>134.19999694824</ele>
        <time>2014-10-19T07:28:20.000Z</time>
      </trkpt>
      <trkpt lat="48.90278" lon="1.08262">
        <ele>133.80000305176</ele>
        <time>2014-10-19T07:28:21.000Z</time>
      </trkpt>
      <trkpt lat="48.90277" lon="1.08272">
        <ele>133.80000305176</ele>
        <time>2014-10-19T07:28:22.000Z</time>
      </trkpt>
      <trkpt lat="48.90276" lon="1.08283">
        <ele>133.80000305176</ele>
        <time>2014-10-19T07:28:23.000Z</time>
      </trkpt>
      <trkpt lat="48.90276" lon="1.08293">
        <ele>133.80000305176</ele>
        <time>2014-10-19T07:28:24.000Z</time>
      </trkpt>
      <trkpt lat="48.90277" lon="1.08304">
        <ele>134.19999694824</ele>
        <time>2014-10-19T07:28:25.000Z</time>
      </trkpt>
      <trkpt lat="48.90275" lon="1.08361">
        <ele>136.19999694824</ele>
        <time>2014-10-19T07:28:32.000Z</time>
      </trkpt>
      <trkpt lat="48.90276" lon="1.08369">
        <ele>136.60000610352</ele>
        <time>2014-10-19T07:28:33.000Z</time>
      </trkpt>
      <trkpt lat="48.90276" lon="1.08375">
        <ele>136.60000610352</ele>
        <time>2014-10-19T07:28:34.000Z</time>
      </trkpt>
      <trkpt lat="48.90278" lon="1.08381">
        <ele>137.19999694824</ele>
        <time>2014-10-19T07:28:35.000Z</time>
      </trkpt>
      <trkpt lat="48.90279" lon="1.08388">
        <ele>137.19999694824</ele>
        <time>2014-10-19T07:28:36.000Z</time>
      </trkpt>
      <trkpt lat="48.90281" lon="1.08394">
        <ele>137.60000610352</ele>
        <time>2014-10-19T07:28:37.000Z</time>
      </trkpt>
      <trkpt lat="48.90289" lon="1.08464">
        <ele>137.60000610352</ele>
        <time>2014-10-19T07:28:50.000Z</time>
      </trkpt>
      <trkpt lat="48.90286" lon="1.08485">
        <ele>136.60000610352</ele>
        <time>2014-10-19T07:28:54.000Z</time>
      </trkpt>
      <trkpt lat="48.9028" lon="1.08509">
        <ele>135.19999694824</ele>
        <time>2014-10-19T07:28:58.000Z</time>
      </trkpt>
      <trkpt lat="48.90279" lon="1.08516">
        <ele>135.19999694824</ele>
        <time>2014-10-19T07:28:59.000Z</time>
      </trkpt>
      <trkpt lat="48.90277" lon="1.08522">
        <ele>135.19999694824</ele>
        <time>2014-10-19T07:29:00.000Z</time>
      </trkpt>
      <trkpt lat="48.9027" lon="1.08538">
        <ele>134.80000305176</ele>
        <time>2014-10-19T07:29:03.000Z</time>
      </trkpt>
      <trkpt lat="48.90267" lon="1.08542">
        <ele>134.80000305176</ele>
        <time>2014-10-19T07:29:04.000Z</time>
      </trkpt>
      <trkpt lat="48.90265" lon="1.08547">
        <ele>134.80000305176</ele>
        <time>2014-10-19T07:29:05.000Z</time>
      </trkpt>
      <trkpt lat="48.90262" lon="1.08551">
        <ele>134.80000305176</ele>
        <time>2014-10-19T07:29:06.000Z</time>
      </trkpt>
      <trkpt lat="48.90259" lon="1.08555">
        <ele>134.80000305176</ele>
        <time>2014-10-19T07:29:07.000Z</time>
      </trkpt>
      <trkpt lat="48.90226" lon="1.08599">
        <ele>136.60000610352</ele>
        <time>2014-10-19T07:29:21.000Z</time>
      </trkpt>
      <trkpt lat="48.90196" lon="1.08646">
        <ele>136.19999694824</ele>
        <time>2014-10-19T07:29:31.000Z</time>
      </trkpt>
      <trkpt lat="48.90193" lon="1.08653">
        <ele>136.19999694824</ele>
        <time>2014-10-19T07:29:32.000Z</time>
      </trkpt>
      <trkpt lat="48.90185" lon="1.08675">
        <ele>135.60000610352</ele>
        <time>2014-10-19T07:29:35.000Z</time>
      </trkpt>
      <trkpt lat="48.90171" lon="1.08767">
        <ele>136.19999694824</ele>
        <time>2014-10-19T07:29:48.000Z</time>
      </trkpt>
      <trkpt lat="48.90149" lon="1.08827">
        <ele>137.60000610352</ele>
        <time>2014-10-19T07:30:02.000Z</time>
      </trkpt>
      <trkpt lat="48.90135" lon="1.08897">
        <ele>139.60000610352</ele>
        <time>2014-10-19T07:30:16.000Z</time>
      </trkpt>
      <trkpt lat="48.90129" lon="1.0896">
        <ele>142.39999389648</ele>
        <time>2014-10-19T07:30:28.000Z</time>
      </trkpt>
      <trkpt lat="48.90126" lon="1.08993">
        <ele>142.80000305176</ele>
        <time>2014-10-19T07:30:33.000Z</time>
      </trkpt>
      <trkpt lat="48.90118" lon="1.09054">
        <ele>140.39999389648</ele>
        <time>2014-10-19T07:30:44.000Z</time>
      </trkpt>
      <trkpt lat="48.90122" lon="1.09068">
        <ele>139</ele>
        <time>2014-10-19T07:30:51.000Z</time>
      </trkpt>
      <trkpt lat="48.90122" lon="1.09063">
        <ele>141</ele>
        <time>2014-10-19T07:31:02.000Z</time>
      </trkpt>
      <trkpt lat="48.90122" lon="1.09063">
        <ele>139.60000610352</ele>
        <time>2014-10-19T07:31:21.000Z</time>
      </trkpt>
      <trkpt lat="48.90123" lon="1.09064">
        <ele>139</ele>
        <time>2014-10-19T07:31:47.000Z</time>
      </trkpt>
      <trkpt lat="48.90121" lon="1.09064">
        <ele>138</ele>
        <time>2014-10-19T07:32:19.000Z</time>
      </trkpt>
      <trkpt lat="48.90122" lon="1.09064">
        <ele>136.19999694824</ele>
        <time>2014-10-19T07:32:43.000Z</time>
      </trkpt>
      <trkpt lat="48.90121" lon="1.09062">
        <ele>140.39999389648</ele>
        <time>2014-10-19T07:33:07.000Z</time>
      </trkpt>
      <trkpt lat="48.90122" lon="1.09062">
        <ele>139.60000610352</ele>
        <time>2014-10-19T07:33:27.000Z</time>
      </trkpt>
      <trkpt lat="48.90121" lon="1.09064">
        <ele>140</ele>
        <time>2014-10-19T07:33:49.000Z</time>
      </trkpt>
      <trkpt lat="48.90121" lon="1.09065">
        <ele>138.60000610352</ele>
        <time>2014-10-19T07:34:03.000Z</time>
      </trkpt>
      <trkpt lat="48.90121" lon="1.09067">
        <ele>138.60000610352</ele>
        <time>2014-10-19T07:34:04.000Z</time>
      </trkpt>
      <trkpt lat="48.90124" lon="1.0908">
        <ele>138</ele>
        <time>2014-10-19T07:34:07.000Z</time>
      </trkpt>
      <trkpt lat="48.90148" lon="1.09164">
        <ele>135.19999694824</ele>
        <time>2014-10-19T07:34:17.000Z</time>
      </trkpt>
      <trkpt lat="48.90152" lon="1.09171">
        <ele>135.19999694824</ele>
        <time>2014-10-19T07:34:18.000Z</time>
      </trkpt>
      <trkpt lat="48.90157" lon="1.09176">
        <ele>135.19999694824</ele>
        <time>2014-10-19T07:34:19.000Z</time>
      </trkpt>
      <trkpt lat="48.90164" lon="1.09178">
        <ele>135.19999694824</ele>
        <time>2014-10-19T07:34:20.000Z</time>
      </trkpt>
      <trkpt lat="48.90171" lon="1.09177">
        <ele>135.19999694824</ele>
        <time>2014-10-19T07:34:21.000Z</time>
      </trkpt>
      <trkpt lat="48.90176" lon="1.09174">
        <ele>135.19999694824</ele>
        <time>2014-10-19T07:34:22.000Z</time>
      </trkpt>
      <trkpt lat="48.90182" lon="1.09171">
        <ele>135.19999694824</ele>
        <time>2014-10-19T07:34:23.000Z</time>
      </trkpt>
      <trkpt lat="48.90188" lon="1.09167">
        <ele>135.19999694824</ele>
        <time>2014-10-19T07:34:24.000Z</time>
      </trkpt>
      <trkpt lat="48.90195" lon="1.09164">
        <ele>135.19999694824</ele>
        <time>2014-10-19T07:34:25.000Z</time>
      </trkpt>
      <trkpt lat="48.90207" lon="1.09155">
        <ele>135.19999694824</ele>
        <time>2014-10-19T07:34:27.000Z</time>
      </trkpt>
      <trkpt lat="48.90214" lon="1.09148">
        <ele>134.80000305176</ele>
        <time>2014-10-19T07:34:28.000Z</time>
      </trkpt>
      <trkpt lat="48.90217" lon="1.09143">
        <ele>134.80000305176</ele>
        <time>2014-10-19T07:34:29.000Z</time>
      </trkpt>
      <trkpt lat="48.90283" lon="1.09028">
        <ele>134.80000305176</ele>
        <time>2014-10-19T07:34:43.000Z</time>
      </trkpt>
      <trkpt lat="48.9029" lon="1.09009">
        <ele>135.19999694824</ele>
        <time>2014-10-19T07:34:45.000Z</time>
      </trkpt>
      <trkpt lat="48.90293" lon="1.09">
        <ele>135.19999694824</ele>
        <time>2014-10-19T07:34:46.000Z</time>
      </trkpt>
      <trkpt lat="48.90297" lon="1.08991">
        <ele>135.60000610352</ele>
        <time>2014-10-19T07:34:47.000Z</time>
      </trkpt>
      <trkpt lat="48.90301" lon="1.08982">
        <ele>135.60000610352</ele>
        <time>2014-10-19T07:34:48.000Z</time>
      </trkpt>
      <trkpt lat="48.90306" lon="1.08974">
        <ele>135.60000610352</ele>
        <time>2014-10-19T07:34:49.000Z</time>
      </trkpt>
      <trkpt lat="48.90311" lon="1.08967">
        <ele>135.60000610352</ele>
        <time>2014-10-19T07:34:50.000Z</time>
      </trkpt>
      <trkpt lat="48.90317" lon="1.08961">
        <ele>135.60000610352</ele>
        <time>2014-10-19T07:34:51.000Z</time>
      </trkpt>
      <trkpt lat="48.90323" lon="1.08955">
        <ele>135.60000610352</ele>
        <time>2014-10-19T07:34:52.000Z</time>
      </trkpt>
      <trkpt lat="48.90412" lon="1.08897">
        <ele>135.19999694824</ele>
        <time>2014-10-19T07:35:05.000Z</time>
      </trkpt>
      <trkpt lat="48.90471" lon="1.08843">
        <ele>135.19999694824</ele>
        <time>2014-10-19T07:35:14.000Z</time>
      </trkpt>
      <trkpt lat="48.90485" lon="1.08816">
        <ele>134.80000305176</ele>
        <time>2014-10-19T07:35:17.000Z</time>
      </trkpt>
      <trkpt lat="48.90488" lon="1.08806">
        <ele>134.80000305176</ele>
        <time>2014-10-19T07:35:18.000Z</time>
      </trkpt>
      <trkpt lat="48.9049" lon="1.08795">
        <ele>134.80000305176</ele>
        <time>2014-10-19T07:35:19.000Z</time>
      </trkpt>
      <trkpt lat="48.90492" lon="1.08785">
        <ele>134.80000305176</ele>
        <time>2014-10-19T07:35:20.000Z</time>
      </trkpt>
      <trkpt lat="48.90493" lon="1.08774">
        <ele>134.80000305176</ele>
        <time>2014-10-19T07:35:21.000Z</time>
      </trkpt>
      <trkpt lat="48.90494" lon="1.08763">
        <ele>134.80000305176</ele>
        <time>2014-10-19T07:35:22.000Z</time>
      </trkpt>
      <trkpt lat="48.90497" lon="1.08731">
        <ele>134.19999694824</ele>
        <time>2014-10-19T07:35:25.000Z</time>
      </trkpt>
      <trkpt lat="48.90499" lon="1.0872">
        <ele>134.19999694824</ele>
        <time>2014-10-19T07:35:26.000Z</time>
      </trkpt>
      <trkpt lat="48.90502" lon="1.0871">
        <ele>134.19999694824</ele>
        <time>2014-10-19T07:35:27.000Z</time>
      </trkpt>
      <trkpt lat="48.90506" lon="1.08701">
        <ele>134.19999694824</ele>
        <time>2014-10-19T07:35:28.000Z</time>
      </trkpt>
      <trkpt lat="48.9051" lon="1.08693">
        <ele>134.19999694824</ele>
        <time>2014-10-19T07:35:29.000Z</time>
      </trkpt>
      <trkpt lat="48.90515" lon="1.08686">
        <ele>134.19999694824</ele>
        <time>2014-10-19T07:35:30.000Z</time>
      </trkpt>
      <trkpt lat="48.90519" lon="1.08679">
        <ele>134.19999694824</ele>
        <time>2014-10-19T07:35:31.000Z</time>
      </trkpt>
      <trkpt lat="48.90525" lon="1.08674">
        <ele>134.19999694824</ele>
        <time>2014-10-19T07:35:32.000Z</time>
      </trkpt>
      <trkpt lat="48.90531" lon="1.08671">
        <ele>134.19999694824</ele>
        <time>2014-10-19T07:35:33.000Z</time>
      </trkpt>
      <trkpt lat="48.90536" lon="1.08671">
        <ele>133.80000305176</ele>
        <time>2014-10-19T07:35:34.000Z</time>
      </trkpt>
      <trkpt lat="48.9054" lon="1.08672">
        <ele>133.80000305176</ele>
        <time>2014-10-19T07:35:35.000Z</time>
      </trkpt>
      <trkpt lat="48.90543" lon="1.08673">
        <ele>133.80000305176</ele>
        <time>2014-10-19T07:35:36.000Z</time>
      </trkpt>
      <trkpt lat="48.90545" lon="1.08675">
        <ele>133.80000305176</ele>
        <time>2014-10-19T07:35:37.000Z</time>
      </trkpt>
      <trkpt lat="48.90547" lon="1.08677">
        <ele>133.80000305176</ele>
        <time>2014-10-19T07:35:38.000Z</time>
      </trkpt>
      <trkpt lat="48.9055" lon="1.0868">
        <ele>133.19999694824</ele>
        <time>2014-10-19T07:35:41.000Z</time>
      </trkpt>
      <trkpt lat="48.9055" lon="1.08682">
        <ele>133.19999694824</ele>
        <time>2014-10-19T07:35:42.000Z</time>
      </trkpt>
      <trkpt lat="48.90551" lon="1.08683">
        <ele>133.80000305176</ele>
        <time>2014-10-19T07:35:43.000Z</time>
      </trkpt>
      <trkpt lat="48.90551" lon="1.08685">
        <ele>133.80000305176</ele>
        <time>2014-10-19T07:35:45.000Z</time>
      </trkpt>
      <trkpt lat="48.90561" lon="1.08717">
        <ele>138</ele>
        <time>2014-10-19T07:36:00.000Z</time>
      </trkpt>
      <trkpt lat="48.90578" lon="1.08734">
        <ele>144.80000305176</ele>
        <time>2014-10-19T07:36:14.000Z</time>
      </trkpt>
      <trkpt lat="48.90595" lon="1.08741">
        <ele>150.19999694824</ele>
        <time>2014-10-19T07:36:25.000Z</time>
      </trkpt>
      <trkpt lat="48.90596" lon="1.08743">
        <ele>150.60000610352</ele>
        <time>2014-10-19T07:36:26.000Z</time>
      </trkpt>
      <trkpt lat="48.90598" lon="1.08745">
        <ele>151</ele>
        <time>2014-10-19T07:36:27.000Z</time>
      </trkpt>
      <trkpt lat="48.90599" lon="1.08747">
        <ele>151.60000610352</ele>
        <time>2014-10-19T07:36:28.000Z</time>
      </trkpt>
      <trkpt lat="48.906" lon="1.08748">
        <ele>151.60000610352</ele>
        <time>2014-10-19T07:36:29.000Z</time>
      </trkpt>
      <trkpt lat="48.90611" lon="1.08758">
        <ele>155.80000305176</ele>
        <time>2014-10-19T07:36:39.000Z</time>
      </trkpt>
      <trkpt lat="48.90613" lon="1.08759">
        <ele>155.80000305176</ele>
        <time>2014-10-19T07:36:40.000Z</time>
      </trkpt>
      <trkpt lat="48.90616" lon="1.0876">
        <ele>155.80000305176</ele>
        <time>2014-10-19T07:36:41.000Z</time>
      </trkpt>
      <trkpt lat="48.90618" lon="1.08761">
        <ele>156.39999389648</ele>
        <time>2014-10-19T07:36:42.000Z</time>
      </trkpt>
      <trkpt lat="48.90621" lon="1.08762">
        <ele>156.39999389648</ele>
        <time>2014-10-19T07:36:43.000Z</time>
      </trkpt>
      <trkpt lat="48.90636" lon="1.0877">
        <ele>159.19999694824</ele>
        <time>2014-10-19T07:36:52.000Z</time>
      </trkpt>
      <trkpt lat="48.90638" lon="1.0877">
        <ele>159.80000305176</ele>
        <time>2014-10-19T07:36:53.000Z</time>
      </trkpt>
      <trkpt lat="48.90639" lon="1.08771">
        <ele>160.19999694824</ele>
        <time>2014-10-19T07:36:54.000Z</time>
      </trkpt>
      <trkpt lat="48.90641" lon="1.08771">
        <ele>160.60000610352</ele>
        <time>2014-10-19T07:36:55.000Z</time>
      </trkpt>
      <trkpt lat="48.90642" lon="1.08772">
        <ele>161.19999694824</ele>
        <time>2014-10-19T07:36:56.000Z</time>
      </trkpt>
      <trkpt lat="48.90643" lon="1.08773">
        <ele>161.60000610352</ele>
        <time>2014-10-19T07:36:57.000Z</time>
      </trkpt>
      <trkpt lat="48.90644" lon="1.08775">
        <ele>162.19999694824</ele>
        <time>2014-10-19T07:36:58.000Z</time>
      </trkpt>
      <trkpt lat="48.90646" lon="1.08776">
        <ele>162.60000610352</ele>
        <time>2014-10-19T07:36:59.000Z</time>
      </trkpt>
      <trkpt lat="48.90647" lon="1.08778">
        <ele>163</ele>
        <time>2014-10-19T07:37:00.000Z</time>
      </trkpt>
      <trkpt lat="48.90648" lon="1.0878">
        <ele>164</ele>
        <time>2014-10-19T07:37:01.000Z</time>
      </trkpt>
      <trkpt lat="48.90649" lon="1.08782">
        <ele>165</ele>
        <time>2014-10-19T07:37:02.000Z</time>
      </trkpt>
      <trkpt lat="48.9065" lon="1.08785">
        <ele>165.39999389648</ele>
        <time>2014-10-19T07:37:03.000Z</time>
      </trkpt>
      <trkpt lat="48.90651" lon="1.08787">
        <ele>165.39999389648</ele>
        <time>2014-10-19T07:37:04.000Z</time>
      </trkpt>
      <trkpt lat="48.90657" lon="1.08817">
        <ele>158.19999694824</ele>
        <time>2014-10-19T07:37:16.000Z</time>
      </trkpt>
      <trkpt lat="48.90663" lon="1.08844">
        <ele>158.19999694824</ele>
        <time>2014-10-19T07:37:29.000Z</time>
      </trkpt>
      <trkpt lat="48.90663" lon="1.08846">
        <ele>158.19999694824</ele>
        <time>2014-10-19T07:37:30.000Z</time>
      </trkpt>
      <trkpt lat="48.90664" lon="1.08849">
        <ele>158.19999694824</ele>
        <time>2014-10-19T07:37:31.000Z</time>
      </trkpt>
      <trkpt lat="48.90664" lon="1.08852">
        <ele>158.19999694824</ele>
        <time>2014-10-19T07:37:32.000Z</time>
      </trkpt>
      <trkpt lat="48.90665" lon="1.08855">
        <ele>158.19999694824</ele>
        <time>2014-10-19T07:37:33.000Z</time>
      </trkpt>
      <trkpt lat="48.90665" lon="1.08858">
        <ele>158.19999694824</ele>
        <time>2014-10-19T07:37:34.000Z</time>
      </trkpt>
      <trkpt lat="48.90666" lon="1.08861">
        <ele>158.19999694824</ele>
        <time>2014-10-19T07:37:35.000Z</time>
      </trkpt>
      <trkpt lat="48.90666" lon="1.08864">
        <ele>157.80000305176</ele>
        <time>2014-10-19T07:37:36.000Z</time>
      </trkpt>
      <trkpt lat="48.90676" lon="1.08922">
        <ele>152</ele>
        <time>2014-10-19T07:37:49.000Z</time>
      </trkpt>
      <trkpt lat="48.90687" lon="1.08978">
        <ele>150.60000610352</ele>
        <time>2014-10-19T07:38:03.000Z</time>
      </trkpt>
      <trkpt lat="48.90699" lon="1.09032">
        <ele>146.80000305176</ele>
        <time>2014-10-19T07:38:18.000Z</time>
      </trkpt>
      <trkpt lat="48.90705" lon="1.09057">
        <ele>143.80000305176</ele>
        <time>2014-10-19T07:38:27.000Z</time>
      </trkpt>
      <trkpt lat="48.90717" lon="1.09091">
        <ele>143.80000305176</ele>
        <time>2014-10-19T07:38:37.000Z</time>
      </trkpt>
      <trkpt lat="48.90739" lon="1.0915">
        <ele>144.80000305176</ele>
        <time>2014-10-19T07:38:54.000Z</time>
      </trkpt>
      <trkpt lat="48.90746" lon="1.09182">
        <ele>142.80000305176</ele>
        <time>2014-10-19T07:39:02.000Z</time>
      </trkpt>
      <trkpt lat="48.90743" lon="1.09186">
        <ele>142.80000305176</ele>
        <time>2014-10-19T07:39:03.000Z</time>
      </trkpt>
      <trkpt lat="48.9074" lon="1.09188">
        <ele>143.39999389648</ele>
        <time>2014-10-19T07:39:04.000Z</time>
      </trkpt>
      <trkpt lat="48.90722" lon="1.09201">
        <ele>143.80000305176</ele>
        <time>2014-10-19T07:39:10.000Z</time>
      </trkpt>
      <trkpt lat="48.90717" lon="1.09204">
        <ele>143.80000305176</ele>
        <time>2014-10-19T07:39:11.000Z</time>
      </trkpt>
      <trkpt lat="48.90705" lon="1.09211">
        <ele>143.39999389648</ele>
        <time>2014-10-19T07:39:14.000Z</time>
      </trkpt>
      <trkpt lat="48.90698" lon="1.09218">
        <ele>143.80000305176</ele>
        <time>2014-10-19T07:39:16.000Z</time>
      </trkpt>
      <trkpt lat="48.90696" lon="1.09225">
        <ele>143.80000305176</ele>
        <time>2014-10-19T07:39:17.000Z</time>
      </trkpt>
      <trkpt lat="48.90697" lon="1.09234">
        <ele>143.80000305176</ele>
        <time>2014-10-19T07:39:18.000Z</time>
      </trkpt>
      <trkpt lat="48.90698" lon="1.09238">
        <ele>143.80000305176</ele>
        <time>2014-10-19T07:39:19.000Z</time>
      </trkpt>
      <trkpt lat="48.907" lon="1.09244">
        <ele>144.39999389648</ele>
        <time>2014-10-19T07:39:20.000Z</time>
      </trkpt>
      <trkpt lat="48.90703" lon="1.09249">
        <ele>144.39999389648</ele>
        <time>2014-10-19T07:39:21.000Z</time>
      </trkpt>
      <trkpt lat="48.90706" lon="1.09253">
        <ele>144.39999389648</ele>
        <time>2014-10-19T07:39:22.000Z</time>
      </trkpt>
      <trkpt lat="48.90739" lon="1.0929">
        <ele>145.80000305176</ele>
        <time>2014-10-19T07:39:33.000Z</time>
      </trkpt>
      <trkpt lat="48.90767" lon="1.09314">
        <ele>149.60000610352</ele>
        <time>2014-10-19T07:39:43.000Z</time>
      </trkpt>
      <trkpt lat="48.90796" lon="1.09332">
        <ele>155.39999389648</ele>
        <time>2014-10-19T07:39:53.000Z</time>
      </trkpt>
      <trkpt lat="48.9084" lon="1.09355">
        <ele>155.39999389648</ele>
        <time>2014-10-19T07:40:05.000Z</time>
      </trkpt>
      <trkpt lat="48.90881" lon="1.09376">
        <ele>158.80000305176</ele>
        <time>2014-10-19T07:40:16.000Z</time>
      </trkpt>
      <trkpt lat="48.90923" lon="1.09423">
        <ele>165</ele>
        <time>2014-10-19T07:40:29.000Z</time>
      </trkpt>
      <trkpt lat="48.90955" lon="1.09482">
        <ele>170.19999694824</ele>
        <time>2014-10-19T07:40:41.000Z</time>
      </trkpt>
      <trkpt lat="48.90977" lon="1.09528">
        <ele>170.19999694824</ele>
        <time>2014-10-19T07:40:51.000Z</time>
      </trkpt>
      <trkpt lat="48.90987" lon="1.09542">
        <ele>169.80000305176</ele>
        <time>2014-10-19T07:40:55.000Z</time>
      </trkpt>
      <trkpt lat="48.90989" lon="1.09542">
        <ele>169.80000305176</ele>
        <time>2014-10-19T07:40:56.000Z</time>
      </trkpt>
      <trkpt lat="48.9099" lon="1.0954">
        <ele>169.39999389648</ele>
        <time>2014-10-19T07:40:57.000Z</time>
      </trkpt>
      <trkpt lat="48.90991" lon="1.09537">
        <ele>169.39999389648</ele>
        <time>2014-10-19T07:40:58.000Z</time>
      </trkpt>
      <trkpt lat="48.90991" lon="1.09533">
        <ele>169.39999389648</ele>
        <time>2014-10-19T07:40:59.000Z</time>
      </trkpt>
      <trkpt lat="48.90992" lon="1.09528">
        <ele>168.80000305176</ele>
        <time>2014-10-19T07:41:00.000Z</time>
      </trkpt>
      <trkpt lat="48.90992" lon="1.09524">
        <ele>168.39999389648</ele>
        <time>2014-10-19T07:41:01.000Z</time>
      </trkpt>
      <trkpt lat="48.90991" lon="1.09484">
        <ele>169.39999389648</ele>
        <time>2014-10-19T07:41:08.000Z</time>
      </trkpt>
      <trkpt lat="48.90992" lon="1.09471">
        <ele>169.80000305176</ele>
        <time>2014-10-19T07:41:10.000Z</time>
      </trkpt>
      <trkpt lat="48.90992" lon="1.09464">
        <ele>170.19999694824</ele>
        <time>2014-10-19T07:41:11.000Z</time>
      </trkpt>
      <trkpt lat="48.90991" lon="1.09442">
        <ele>171.19999694824</ele>
        <time>2014-10-19T07:41:15.000Z</time>
      </trkpt>
      <trkpt lat="48.90991" lon="1.09435">
        <ele>171.19999694824</ele>
        <time>2014-10-19T07:41:16.000Z</time>
      </trkpt>
      <trkpt lat="48.90992" lon="1.09372">
        <ele>172.19999694824</ele>
        <time>2014-10-19T07:41:25.000Z</time>
      </trkpt>
      <trkpt lat="48.90991" lon="1.09351">
        <ele>171.19999694824</ele>
        <time>2014-10-19T07:41:28.000Z</time>
      </trkpt>
      <trkpt lat="48.9099" lon="1.09344">
        <ele>170.80000305176</ele>
        <time>2014-10-19T07:41:29.000Z</time>
      </trkpt>
      <trkpt lat="48.90982" lon="1.09268">
        <ele>167.39999389648</ele>
        <time>2014-10-19T07:41:41.000Z</time>
      </trkpt>
      <trkpt lat="48.90972" lon="1.09188">
        <ele>166.39999389648</ele>
        <time>2014-10-19T07:41:53.000Z</time>
      </trkpt>
      <trkpt lat="48.90973" lon="1.09165">
        <ele>166.39999389648</ele>
        <time>2014-10-19T07:41:56.000Z</time>
      </trkpt>
      <trkpt lat="48.9098" lon="1.09102">
        <ele>166</ele>
        <time>2014-10-19T07:42:05.000Z</time>
      </trkpt>
      <trkpt lat="48.9098" lon="1.09095">
        <ele>166</ele>
        <time>2014-10-19T07:42:06.000Z</time>
      </trkpt>
      <trkpt lat="48.90981" lon="1.09088">
        <ele>166</ele>
        <time>2014-10-19T07:42:07.000Z</time>
      </trkpt>
      <trkpt lat="48.90985" lon="1.09046">
        <ele>166</ele>
        <time>2014-10-19T07:42:15.000Z</time>
      </trkpt>
      <trkpt lat="48.90989" lon="1.09032">
        <ele>165.39999389648</ele>
        <time>2014-10-19T07:42:17.000Z</time>
      </trkpt>
      <trkpt lat="48.91003" lon="1.08979">
        <ele>160.19999694824</ele>
        <time>2014-10-19T07:42:25.000Z</time>
      </trkpt>
      <trkpt lat="48.91011" lon="1.08942">
        <ele>158.19999694824</ele>
        <time>2014-10-19T07:42:30.000Z</time>
      </trkpt>
      <trkpt lat="48.91019" lon="1.08895">
        <ele>156.80000305176</ele>
        <time>2014-10-19T07:42:36.000Z</time>
      </trkpt>
      <trkpt lat="48.91022" lon="1.08886">
        <ele>156.80000305176</ele>
        <time>2014-10-19T07:42:37.000Z</time>
      </trkpt>
      <trkpt lat="48.91025" lon="1.08868">
        <ele>155.80000305176</ele>
        <time>2014-10-19T07:42:39.000Z</time>
      </trkpt>
      <trkpt lat="48.91026" lon="1.08858">
        <ele>155.80000305176</ele>
        <time>2014-10-19T07:42:40.000Z</time>
      </trkpt>
      <trkpt lat="48.91028" lon="1.08815">
        <ele>155.39999389648</ele>
        <time>2014-10-19T07:42:44.000Z</time>
      </trkpt>
      <trkpt lat="48.91066" lon="1.08668">
        <ele>154</ele>
        <time>2014-10-19T07:42:57.000Z</time>
      </trkpt>
      <trkpt lat="48.91099" lon="1.0855">
        <ele>154.39999389648</ele>
        <time>2014-10-19T07:43:07.000Z</time>
      </trkpt>
      <trkpt lat="48.91104" lon="1.08537">
        <ele>154.39999389648</ele>
        <time>2014-10-19T07:43:08.000Z</time>
      </trkpt>
      <trkpt lat="48.91109" lon="1.08525">
        <ele>154.39999389648</ele>
        <time>2014-10-19T07:43:09.000Z</time>
      </trkpt>
      <trkpt lat="48.91119" lon="1.08488">
        <ele>153.39999389648</ele>
        <time>2014-10-19T07:43:12.000Z</time>
      </trkpt>
      <trkpt lat="48.91159" lon="1.08353">
        <ele>150.19999694824</ele>
        <time>2014-10-19T07:43:25.000Z</time>
      </trkpt>
      <trkpt lat="48.91203" lon="1.0829">
        <ele>147.60000610352</ele>
        <time>2014-10-19T07:43:35.000Z</time>
      </trkpt>
      <trkpt lat="48.91206" lon="1.08285">
        <ele>147.19999694824</ele>
        <time>2014-10-19T07:43:36.000Z</time>
      </trkpt>
      <trkpt lat="48.9123" lon="1.08248">
        <ele>142</ele>
        <time>2014-10-19T07:43:44.000Z</time>
      </trkpt>
      <trkpt lat="48.9125" lon="1.08217">
        <ele>137.60000610352</ele>
        <time>2014-10-19T07:43:49.000Z</time>
      </trkpt>
      <trkpt lat="48.91287" lon="1.08148">
        <ele>132.39999389648</ele>
        <time>2014-10-19T07:43:59.000Z</time>
      </trkpt>
      <trkpt lat="48.9129" lon="1.08142">
        <ele>132.39999389648</ele>
        <time>2014-10-19T07:44:00.000Z</time>
      </trkpt>
      <trkpt lat="48.91295" lon="1.08137">
        <ele>132.39999389648</ele>
        <time>2014-10-19T07:44:01.000Z</time>
      </trkpt>
      <trkpt lat="48.91299" lon="1.0813">
        <ele>132.39999389648</ele>
        <time>2014-10-19T07:44:02.000Z</time>
      </trkpt>
      <trkpt lat="48.91302" lon="1.08124">
        <ele>131.80000305176</ele>
        <time>2014-10-19T07:44:03.000Z</time>
      </trkpt>
      <trkpt lat="48.91304" lon="1.08117">
        <ele>131.80000305176</ele>
        <time>2014-10-19T07:44:04.000Z</time>
      </trkpt>
      <trkpt lat="48.9132" lon="1.08078">
        <ele>132.39999389648</ele>
        <time>2014-10-19T07:44:10.000Z</time>
      </trkpt>
      <trkpt lat="48.91323" lon="1.08073">
        <ele>132.39999389648</ele>
        <time>2014-10-19T07:44:11.000Z</time>
      </trkpt>
      <trkpt lat="48.91325" lon="1.08068">
        <ele>132.39999389648</ele>
        <time>2014-10-19T07:44:12.000Z</time>
      </trkpt>
      <trkpt lat="48.91339" lon="1.08043">
        <ele>133.19999694824</ele>
        <time>2014-10-19T07:44:17.000Z</time>
      </trkpt>
      <trkpt lat="48.91342" lon="1.08037">
        <ele>133.80000305176</ele>
        <time>2014-10-19T07:44:18.000Z</time>
      </trkpt>
      <trkpt lat="48.91355" lon="1.08015">
        <ele>135.19999694824</ele>
        <time>2014-10-19T07:44:22.000Z</time>
      </trkpt>
      <trkpt lat="48.91403" lon="1.07925">
        <ele>136.60000610352</ele>
        <time>2014-10-19T07:44:36.000Z</time>
      </trkpt>
      <trkpt lat="48.91432" lon="1.07865">
        <ele>136.19999694824</ele>
        <time>2014-10-19T07:44:45.000Z</time>
      </trkpt>
      <trkpt lat="48.91434" lon="1.07857">
        <ele>136.19999694824</ele>
        <time>2014-10-19T07:44:46.000Z</time>
      </trkpt>
      <trkpt lat="48.91453" lon="1.07764">
        <ele>135.60000610352</ele>
        <time>2014-10-19T07:44:57.000Z</time>
      </trkpt>
      <trkpt lat="48.91455" lon="1.07756">
        <ele>135.19999694824</ele>
        <time>2014-10-19T07:44:58.000Z</time>
      </trkpt>
      <trkpt lat="48.91463" lon="1.07717">
        <ele>134.19999694824</ele>
        <time>2014-10-19T07:45:03.000Z</time>
      </trkpt>
      <trkpt lat="48.91466" lon="1.0771">
        <ele>134.19999694824</ele>
        <time>2014-10-19T07:45:04.000Z</time>
      </trkpt>
      <trkpt lat="48.9147" lon="1.07704">
        <ele>133.80000305176</ele>
        <time>2014-10-19T07:45:05.000Z</time>
      </trkpt>
      <trkpt lat="48.91475" lon="1.077">
        <ele>133.80000305176</ele>
        <time>2014-10-19T07:45:06.000Z</time>
      </trkpt>
      <trkpt lat="48.9148" lon="1.07698">
        <ele>133.80000305176</ele>
        <time>2014-10-19T07:45:07.000Z</time>
      </trkpt>
      <trkpt lat="48.91484" lon="1.07698">
        <ele>133.80000305176</ele>
        <time>2014-10-19T07:45:08.000Z</time>
      </trkpt>
      <trkpt lat="48.91489" lon="1.07697">
        <ele>133.19999694824</ele>
        <time>2014-10-19T07:45:09.000Z</time>
      </trkpt>
      <trkpt lat="48.91493" lon="1.07696">
        <ele>133.19999694824</ele>
        <time>2014-10-19T07:45:10.000Z</time>
      </trkpt>
      <trkpt lat="48.91497" lon="1.07696">
        <ele>132.80000305176</ele>
        <time>2014-10-19T07:45:11.000Z</time>
      </trkpt>
      <trkpt lat="48.91502" lon="1.07696">
        <ele>132.80000305176</ele>
        <time>2014-10-19T07:45:12.000Z</time>
      </trkpt>
      <trkpt lat="48.91506" lon="1.07696">
        <ele>132.80000305176</ele>
        <time>2014-10-19T07:45:13.000Z</time>
      </trkpt>
      <trkpt lat="48.91544" lon="1.07696">
        <ele>132.80000305176</ele>
        <time>2014-10-19T07:45:23.000Z</time>
      </trkpt>
      <trkpt lat="48.91583" lon="1.07699">
        <ele>136.19999694824</ele>
        <time>2014-10-19T07:45:36.000Z</time>
      </trkpt>
      <trkpt lat="48.9162" lon="1.07694">
        <ele>137.19999694824</ele>
        <time>2014-10-19T07:45:46.000Z</time>
      </trkpt>
      <trkpt lat="48.91647" lon="1.0769">
        <ele>142.39999389648</ele>
        <time>2014-10-19T07:45:56.000Z</time>
      </trkpt>
      <trkpt lat="48.91654" lon="1.07689">
        <ele>144.39999389648</ele>
        <time>2014-10-19T07:45:59.000Z</time>
      </trkpt>
      <trkpt lat="48.91671" lon="1.07687">
        <ele>148.19999694824</ele>
        <time>2014-10-19T07:46:06.000Z</time>
      </trkpt>
      <trkpt lat="48.91674" lon="1.07686">
        <ele>149.60000610352</ele>
        <time>2014-10-19T07:46:07.000Z</time>
      </trkpt>
      <trkpt lat="48.91677" lon="1.07686">
        <ele>149.60000610352</ele>
        <time>2014-10-19T07:46:08.000Z</time>
      </trkpt>
      <trkpt lat="48.9168" lon="1.07686">
        <ele>150.60000610352</ele>
        <time>2014-10-19T07:46:09.000Z</time>
      </trkpt>
      <trkpt lat="48.91684" lon="1.07686">
        <ele>151</ele>
        <time>2014-10-19T07:46:10.000Z</time>
      </trkpt>
      <trkpt lat="48.91687" lon="1.07686">
        <ele>151.60000610352</ele>
        <time>2014-10-19T07:46:11.000Z</time>
      </trkpt>
      <trkpt lat="48.91691" lon="1.07686">
        <ele>150.60000610352</ele>
        <time>2014-10-19T07:46:12.000Z</time>
      </trkpt>
      <trkpt lat="48.91733" lon="1.07681">
        <ele>154.39999389648</ele>
        <time>2014-10-19T07:46:24.000Z</time>
      </trkpt>
      <trkpt lat="48.91771" lon="1.07672">
        <ele>156.80000305176</ele>
        <time>2014-10-19T07:46:36.000Z</time>
      </trkpt>
      <trkpt lat="48.918" lon="1.07666">
        <ele>158.80000305176</ele>
        <time>2014-10-19T07:46:47.000Z</time>
      </trkpt>
      <trkpt lat="48.9183" lon="1.07667">
        <ele>162.60000610352</ele>
        <time>2014-10-19T07:46:57.000Z</time>
      </trkpt>
      <trkpt lat="48.91833" lon="1.07666">
        <ele>162.60000610352</ele>
        <time>2014-10-19T07:46:58.000Z</time>
      </trkpt>
      <trkpt lat="48.91835" lon="1.07664">
        <ele>162.19999694824</ele>
        <time>2014-10-19T07:46:59.000Z</time>
      </trkpt>
      <trkpt lat="48.91836" lon="1.07663">
        <ele>162.60000610352</ele>
        <time>2014-10-19T07:47:00.000Z</time>
      </trkpt>
      <trkpt lat="48.9184" lon="1.07656">
        <ele>161.60000610352</ele>
        <time>2014-10-19T07:47:02.000Z</time>
      </trkpt>
      <trkpt lat="48.91862" lon="1.07608">
        <ele>161.19999694824</ele>
        <time>2014-10-19T07:47:13.000Z</time>
      </trkpt>
      <trkpt lat="48.9189" lon="1.07583">
        <ele>161.60000610352</ele>
        <time>2014-10-19T07:47:22.000Z</time>
      </trkpt>
      <trkpt lat="48.91921" lon="1.0756">
        <ele>160.19999694824</ele>
        <time>2014-10-19T07:47:32.000Z</time>
      </trkpt>
      <trkpt lat="48.91951" lon="1.07538">
        <ele>159.80000305176</ele>
        <time>2014-10-19T07:47:41.000Z</time>
      </trkpt>
      <trkpt lat="48.91969" lon="1.07508">
        <ele>156.80000305176</ele>
        <time>2014-10-19T07:47:53.000Z</time>
      </trkpt>
      <trkpt lat="48.91984" lon="1.07481">
        <ele>156.39999389648</ele>
        <time>2014-10-19T07:48:03.000Z</time>
      </trkpt>
      <trkpt lat="48.91997" lon="1.07455">
        <ele>157.39999389648</ele>
        <time>2014-10-19T07:48:09.000Z</time>
      </trkpt>
      <trkpt lat="48.92002" lon="1.07455">
        <ele>156.80000305176</ele>
        <time>2014-10-19T07:48:10.000Z</time>
      </trkpt>
      <trkpt lat="48.92006" lon="1.07453">
        <ele>156.80000305176</ele>
        <time>2014-10-19T07:48:11.000Z</time>
      </trkpt>
      <trkpt lat="48.92009" lon="1.0745">
        <ele>156.80000305176</ele>
        <time>2014-10-19T07:48:12.000Z</time>
      </trkpt>
      <trkpt lat="48.92012" lon="1.07447">
        <ele>156.80000305176</ele>
        <time>2014-10-19T07:48:13.000Z</time>
      </trkpt>
      <trkpt lat="48.92045" lon="1.07402">
        <ele>160.60000610352</ele>
        <time>2014-10-19T07:48:24.000Z</time>
      </trkpt>
      <trkpt lat="48.92048" lon="1.07397">
        <ele>161.19999694824</ele>
        <time>2014-10-19T07:48:25.000Z</time>
      </trkpt>
      <trkpt lat="48.92051" lon="1.07391">
        <ele>160.19999694824</ele>
        <time>2014-10-19T07:48:26.000Z</time>
      </trkpt>
      <trkpt lat="48.92054" lon="1.07386">
        <ele>160.19999694824</ele>
        <time>2014-10-19T07:48:27.000Z</time>
      </trkpt>
      <trkpt lat="48.92057" lon="1.07381">
        <ele>159.80000305176</ele>
        <time>2014-10-19T07:48:28.000Z</time>
      </trkpt>
      <trkpt lat="48.92063" lon="1.07374">
        <ele>158.80000305176</ele>
        <time>2014-10-19T07:48:30.000Z</time>
      </trkpt>
      <trkpt lat="48.92069" lon="1.0737">
        <ele>158.80000305176</ele>
        <time>2014-10-19T07:48:32.000Z</time>
      </trkpt>
      <trkpt lat="48.92073" lon="1.07369">
        <ele>158.80000305176</ele>
        <time>2014-10-19T07:48:33.000Z</time>
      </trkpt>
      <trkpt lat="48.92076" lon="1.07371">
        <ele>158.80000305176</ele>
        <time>2014-10-19T07:48:34.000Z</time>
      </trkpt>
      <trkpt lat="48.9208" lon="1.07372">
        <ele>158.19999694824</ele>
        <time>2014-10-19T07:48:35.000Z</time>
      </trkpt>
      <trkpt lat="48.92083" lon="1.07371">
        <ele>158.80000305176</ele>
        <time>2014-10-19T07:48:36.000Z</time>
      </trkpt>
      <trkpt lat="48.92086" lon="1.07369">
        <ele>159.19999694824</ele>
        <time>2014-10-19T07:48:37.000Z</time>
      </trkpt>
      <trkpt lat="48.9209" lon="1.07369">
        <ele>159.19999694824</ele>
        <time>2014-10-19T07:48:38.000Z</time>
      </trkpt>
      <trkpt lat="48.92093" lon="1.07368">
        <ele>159.19999694824</ele>
        <time>2014-10-19T07:48:39.000Z</time>
      </trkpt>
      <trkpt lat="48.92127" lon="1.07368">
        <ele>159.19999694824</ele>
        <time>2014-10-19T07:48:49.000Z</time>
      </trkpt>
      <trkpt lat="48.92161" lon="1.07368">
        <ele>159.19999694824</ele>
        <time>2014-10-19T07:49:01.000Z</time>
      </trkpt>
      <trkpt lat="48.92217" lon="1.07327">
        <ele>161.19999694824</ele>
        <time>2014-10-19T07:49:11.000Z</time>
      </trkpt>
      <trkpt lat="48.92273" lon="1.07285">
        <ele>159.19999694824</ele>
        <time>2014-10-19T07:49:23.000Z</time>
      </trkpt>
      <trkpt lat="48.92298" lon="1.07273">
        <ele>159.80000305176</ele>
        <time>2014-10-19T07:49:32.000Z</time>
      </trkpt>
      <trkpt lat="48.92348" lon="1.0723">
        <ele>161.19999694824</ele>
        <time>2014-10-19T07:49:40.000Z</time>
      </trkpt>
      <trkpt lat="48.92404" lon="1.07181">
        <ele>164</ele>
        <time>2014-10-19T07:49:48.000Z</time>
      </trkpt>
      <trkpt lat="48.92424" lon="1.07163">
        <ele>163.60000610352</ele>
        <time>2014-10-19T07:49:51.000Z</time>
      </trkpt>
      <trkpt lat="48.92437" lon="1.07146">
        <ele>162.19999694824</ele>
        <time>2014-10-19T07:49:54.000Z</time>
      </trkpt>
      <trkpt lat="48.9245" lon="1.07136">
        <ele>161.60000610352</ele>
        <time>2014-10-19T07:49:57.000Z</time>
      </trkpt>
      <trkpt lat="48.92496" lon="1.07113">
        <ele>160.19999694824</ele>
        <time>2014-10-19T07:50:06.000Z</time>
      </trkpt>
      <trkpt lat="48.92512" lon="1.071">
        <ele>159.80000305176</ele>
        <time>2014-10-19T07:50:09.000Z</time>
      </trkpt>
      <trkpt lat="48.92528" lon="1.07088">
        <ele>159.19999694824</ele>
        <time>2014-10-19T07:50:12.000Z</time>
      </trkpt>
      <trkpt lat="48.92545" lon="1.07084">
        <ele>159.19999694824</ele>
        <time>2014-10-19T07:50:15.000Z</time>
      </trkpt>
      <trkpt lat="48.9256" lon="1.07085">
        <ele>158.80000305176</ele>
        <time>2014-10-19T07:50:18.000Z</time>
      </trkpt>
      <trkpt lat="48.92581" lon="1.07079">
        <ele>156.80000305176</ele>
        <time>2014-10-19T07:50:23.000Z</time>
      </trkpt>
      <trkpt lat="48.92588" lon="1.07074">
        <ele>155.80000305176</ele>
        <time>2014-10-19T07:50:25.000Z</time>
      </trkpt>
      <trkpt lat="48.92624" lon="1.07046">
        <ele>155.80000305176</ele>
        <time>2014-10-19T07:50:34.000Z</time>
      </trkpt>
      <trkpt lat="48.92636" lon="1.07036">
        <ele>158.19999694824</ele>
        <time>2014-10-19T07:50:50.000Z</time>
      </trkpt>
      <trkpt lat="48.92645" lon="1.07033">
        <ele>157.39999389648</ele>
        <time>2014-10-19T07:50:57.000Z</time>
      </trkpt>
      <trkpt lat="48.92651" lon="1.07028">
        <ele>156.80000305176</ele>
        <time>2014-10-19T07:51:00.000Z</time>
      </trkpt>
      <trkpt lat="48.92685" lon="1.07018">
        <ele>154</ele>
        <time>2014-10-19T07:51:11.000Z</time>
      </trkpt>
      <trkpt lat="48.92714" lon="1.07015">
        <ele>152.60000610352</ele>
        <time>2014-10-19T07:51:22.000Z</time>
      </trkpt>
      <trkpt lat="48.92732" lon="1.06997">
        <ele>153</ele>
        <time>2014-10-19T07:51:32.000Z</time>
      </trkpt>
      <trkpt lat="48.92749" lon="1.06948">
        <ele>150.60000610352</ele>
        <time>2014-10-19T07:51:41.000Z</time>
      </trkpt>
      <trkpt lat="48.92756" lon="1.06933">
        <ele>150.60000610352</ele>
        <time>2014-10-19T07:51:45.000Z</time>
      </trkpt>
      <trkpt lat="48.92757" lon="1.0693">
        <ele>151</ele>
        <time>2014-10-19T07:51:46.000Z</time>
      </trkpt>
      <trkpt lat="48.92758" lon="1.06926">
        <ele>150.19999694824</ele>
        <time>2014-10-19T07:51:47.000Z</time>
      </trkpt>
      <trkpt lat="48.92759" lon="1.06923">
        <ele>150.60000610352</ele>
        <time>2014-10-19T07:51:48.000Z</time>
      </trkpt>
      <trkpt lat="48.9276" lon="1.06919">
        <ele>151</ele>
        <time>2014-10-19T07:51:49.000Z</time>
      </trkpt>
      <trkpt lat="48.9276" lon="1.06914">
        <ele>150.60000610352</ele>
        <time>2014-10-19T07:51:50.000Z</time>
      </trkpt>
      <trkpt lat="48.92767" lon="1.06868">
        <ele>147.19999694824</ele>
        <time>2014-10-19T07:52:01.000Z</time>
      </trkpt>
      <trkpt lat="48.92774" lon="1.06818">
        <ele>144.80000305176</ele>
        <time>2014-10-19T07:52:12.000Z</time>
      </trkpt>
      <trkpt lat="48.92781" lon="1.06765">
        <ele>145.80000305176</ele>
        <time>2014-10-19T07:52:23.000Z</time>
      </trkpt>
      <trkpt lat="48.92784" lon="1.0672">
        <ele>145.39999389648</ele>
        <time>2014-10-19T07:52:34.000Z</time>
      </trkpt>
      <trkpt lat="48.92783" lon="1.06714">
        <ele>145.80000305176</ele>
        <time>2014-10-19T07:52:37.000Z</time>
      </trkpt>
      <trkpt lat="48.92783" lon="1.06709">
        <ele>145.80000305176</ele>
        <time>2014-10-19T07:52:38.000Z</time>
      </trkpt>
      <trkpt lat="48.92783" lon="1.06705">
        <ele>145.80000305176</ele>
        <time>2014-10-19T07:52:39.000Z</time>
      </trkpt>
      <trkpt lat="48.92783" lon="1.067">
        <ele>145.39999389648</ele>
        <time>2014-10-19T07:52:40.000Z</time>
      </trkpt>
      <trkpt lat="48.92783" lon="1.06695">
        <ele>145.80000305176</ele>
        <time>2014-10-19T07:52:41.000Z</time>
      </trkpt>
      <trkpt lat="48.92783" lon="1.06691">
        <ele>145.80000305176</ele>
        <time>2014-10-19T07:52:42.000Z</time>
      </trkpt>
      <trkpt lat="48.92784" lon="1.06686">
        <ele>145.80000305176</ele>
        <time>2014-10-19T07:52:43.000Z</time>
      </trkpt>
      <trkpt lat="48.92785" lon="1.06681">
        <ele>145.80000305176</ele>
        <time>2014-10-19T07:52:44.000Z</time>
      </trkpt>
      <trkpt lat="48.92785" lon="1.06677">
        <ele>145.80000305176</ele>
        <time>2014-10-19T07:52:45.000Z</time>
      </trkpt>
      <trkpt lat="48.92785" lon="1.06633">
        <ele>143.39999389648</ele>
        <time>2014-10-19T07:52:54.000Z</time>
      </trkpt>
      <trkpt lat="48.9278" lon="1.06568">
        <ele>136.60000610352</ele>
        <time>2014-10-19T07:53:05.000Z</time>
      </trkpt>
      <trkpt lat="48.92779" lon="1.06495">
        <ele>129</ele>
        <time>2014-10-19T07:53:17.000Z</time>
      </trkpt>
      <trkpt lat="48.92781" lon="1.0644">
        <ele>130.80000305176</ele>
        <time>2014-10-19T07:53:25.000Z</time>
      </trkpt>
      <trkpt lat="48.92782" lon="1.06432">
        <ele>130.80000305176</ele>
        <time>2014-10-19T07:53:26.000Z</time>
      </trkpt>
      <trkpt lat="48.92782" lon="1.06424">
        <ele>130.80000305176</ele>
        <time>2014-10-19T07:53:27.000Z</time>
      </trkpt>
      <trkpt lat="48.92782" lon="1.06416">
        <ele>130.80000305176</ele>
        <time>2014-10-19T07:53:28.000Z</time>
      </trkpt>
      <trkpt lat="48.92781" lon="1.06409">
        <ele>130.80000305176</ele>
        <time>2014-10-19T07:53:29.000Z</time>
      </trkpt>
      <trkpt lat="48.92781" lon="1.06397">
        <ele>130.80000305176</ele>
        <time>2014-10-19T07:53:31.000Z</time>
      </trkpt>
      <trkpt lat="48.92783" lon="1.0639">
        <ele>130.39999389648</ele>
        <time>2014-10-19T07:53:32.000Z</time>
      </trkpt>
      <trkpt lat="48.92784" lon="1.06385">
        <ele>130.39999389648</ele>
        <time>2014-10-19T07:53:33.000Z</time>
      </trkpt>
      <trkpt lat="48.92785" lon="1.0638">
        <ele>130</ele>
        <time>2014-10-19T07:53:34.000Z</time>
      </trkpt>
      <trkpt lat="48.92786" lon="1.06376">
        <ele>130</ele>
        <time>2014-10-19T07:53:35.000Z</time>
      </trkpt>
      <trkpt lat="48.92786" lon="1.0637">
        <ele>129.39999389648</ele>
        <time>2014-10-19T07:53:37.000Z</time>
      </trkpt>
      <trkpt lat="48.92785" lon="1.06366">
        <ele>129</ele>
        <time>2014-10-19T07:53:38.000Z</time>
      </trkpt>
      <trkpt lat="48.92783" lon="1.06365">
        <ele>128.39999389648</ele>
        <time>2014-10-19T07:53:39.000Z</time>
      </trkpt>
      <trkpt lat="48.92782" lon="1.06364">
        <ele>128.39999389648</ele>
        <time>2014-10-19T07:53:40.000Z</time>
      </trkpt>
      <trkpt lat="48.9278" lon="1.06362">
        <ele>128.39999389648</ele>
        <time>2014-10-19T07:53:41.000Z</time>
      </trkpt>
      <trkpt lat="48.92777" lon="1.06359">
        <ele>128</ele>
        <time>2014-10-19T07:53:42.000Z</time>
      </trkpt>
      <trkpt lat="48.92775" lon="1.06356">
        <ele>128</ele>
        <time>2014-10-19T07:53:43.000Z</time>
      </trkpt>
      <trkpt lat="48.92772" lon="1.06351">
        <ele>127.59999847412</ele>
        <time>2014-10-19T07:53:44.000Z</time>
      </trkpt>
      <trkpt lat="48.92769" lon="1.06346">
        <ele>127.59999847412</ele>
        <time>2014-10-19T07:53:45.000Z</time>
      </trkpt>
      <trkpt lat="48.92766" lon="1.0634">
        <ele>127</ele>
        <time>2014-10-19T07:53:46.000Z</time>
      </trkpt>
      <trkpt lat="48.92764" lon="1.06325">
        <ele>127</ele>
        <time>2014-10-19T07:53:48.000Z</time>
      </trkpt>
      <trkpt lat="48.9276" lon="1.06293">
        <ele>126.59999847412</ele>
        <time>2014-10-19T07:53:52.000Z</time>
      </trkpt>
      <trkpt lat="48.92755" lon="1.06268">
        <ele>126</ele>
        <time>2014-10-19T07:53:55.000Z</time>
      </trkpt>
      <trkpt lat="48.92753" lon="1.06194">
        <ele>121.19999694824</ele>
        <time>2014-10-19T07:54:04.000Z</time>
      </trkpt>
      <trkpt lat="48.92757" lon="1.06151">
        <ele>119.80000305176</ele>
        <time>2014-10-19T07:54:09.000Z</time>
      </trkpt>
      <trkpt lat="48.9276" lon="1.06089">
        <ele>118.80000305176</ele>
        <time>2014-10-19T07:54:17.000Z</time>
      </trkpt>
      <trkpt lat="48.9276" lon="1.06081">
        <ele>118.40000152588</ele>
        <time>2014-10-19T07:54:18.000Z</time>
      </trkpt>
      <trkpt lat="48.92759" lon="1.06073">
        <ele>118.40000152588</ele>
        <time>2014-10-19T07:54:19.000Z</time>
      </trkpt>
      <trkpt lat="48.92758" lon="1.06058">
        <ele>118</ele>
        <time>2014-10-19T07:54:21.000Z</time>
      </trkpt>
      <trkpt lat="48.92756" lon="1.06051">
        <ele>117.40000152588</ele>
        <time>2014-10-19T07:54:22.000Z</time>
      </trkpt>
      <trkpt lat="48.92754" lon="1.06043">
        <ele>117.40000152588</ele>
        <time>2014-10-19T07:54:23.000Z</time>
      </trkpt>
      <trkpt lat="48.92751" lon="1.06035">
        <ele>117.40000152588</ele>
        <time>2014-10-19T07:54:24.000Z</time>
      </trkpt>
      <trkpt lat="48.92748" lon="1.06027">
        <ele>117.40000152588</ele>
        <time>2014-10-19T07:54:25.000Z</time>
      </trkpt>
      <trkpt lat="48.92742" lon="1.06011">
        <ele>117</ele>
        <time>2014-10-19T07:54:27.000Z</time>
      </trkpt>
      <trkpt lat="48.9274" lon="1.06001">
        <ele>117</ele>
        <time>2014-10-19T07:54:28.000Z</time>
      </trkpt>
      <trkpt lat="48.92733" lon="1.05974">
        <ele>116.40000152588</ele>
        <time>2014-10-19T07:54:31.000Z</time>
      </trkpt>
      <trkpt lat="48.92733" lon="1.05966">
        <ele>116</ele>
        <time>2014-10-19T07:54:32.000Z</time>
      </trkpt>
      <trkpt lat="48.92734" lon="1.05956">
        <ele>116</ele>
        <time>2014-10-19T07:54:33.000Z</time>
      </trkpt>
      <trkpt lat="48.92738" lon="1.05947">
        <ele>116</ele>
        <time>2014-10-19T07:54:34.000Z</time>
      </trkpt>
      <trkpt lat="48.92741" lon="1.05942">
        <ele>116</ele>
        <time>2014-10-19T07:54:35.000Z</time>
      </trkpt>
      <trkpt lat="48.92746" lon="1.05936">
        <ele>116.40000152588</ele>
        <time>2014-10-19T07:54:36.000Z</time>
      </trkpt>
      <trkpt lat="48.92751" lon="1.0593">
        <ele>116.40000152588</ele>
        <time>2014-10-19T07:54:37.000Z</time>
      </trkpt>
      <trkpt lat="48.92825" lon="1.05839">
        <ele>116.40000152588</ele>
        <time>2014-10-19T07:54:52.000Z</time>
      </trkpt>
      <trkpt lat="48.92843" lon="1.05817">
        <ele>116.40000152588</ele>
        <time>2014-10-19T07:54:56.000Z</time>
      </trkpt>
      <trkpt lat="48.92848" lon="1.05815">
        <ele>116.40000152588</ele>
        <time>2014-10-19T07:54:57.000Z</time>
      </trkpt>
      <trkpt lat="48.92853" lon="1.05815">
        <ele>117</ele>
        <time>2014-10-19T07:54:58.000Z</time>
      </trkpt>
      <trkpt lat="48.92858" lon="1.05817">
        <ele>117.40000152588</ele>
        <time>2014-10-19T07:54:59.000Z</time>
      </trkpt>
      <trkpt lat="48.92862" lon="1.0582">
        <ele>118</ele>
        <time>2014-10-19T07:55:00.000Z</time>
      </trkpt>
      <trkpt lat="48.92866" lon="1.05824">
        <ele>118</ele>
        <time>2014-10-19T07:55:01.000Z</time>
      </trkpt>
      <trkpt lat="48.92869" lon="1.05829">
        <ele>118.40000152588</ele>
        <time>2014-10-19T07:55:02.000Z</time>
      </trkpt>
      <trkpt lat="48.92872" lon="1.05833">
        <ele>118.40000152588</ele>
        <time>2014-10-19T07:55:03.000Z</time>
      </trkpt>
      <trkpt lat="48.9288" lon="1.05841">
        <ele>118.80000305176</ele>
        <time>2014-10-19T07:55:05.000Z</time>
      </trkpt>
      <trkpt lat="48.92883" lon="1.05846">
        <ele>118.80000305176</ele>
        <time>2014-10-19T07:55:06.000Z</time>
      </trkpt>
      <trkpt lat="48.92887" lon="1.0585">
        <ele>118.80000305176</ele>
        <time>2014-10-19T07:55:07.000Z</time>
      </trkpt>
      <trkpt lat="48.92957" lon="1.05916">
        <ele>118</ele>
        <time>2014-10-19T07:55:23.000Z</time>
      </trkpt>
      <trkpt lat="48.92986" lon="1.05935">
        <ele>117</ele>
        <time>2014-10-19T07:55:29.000Z</time>
      </trkpt>
      <trkpt lat="48.93029" lon="1.05973">
        <ele>117</ele>
        <time>2014-10-19T07:55:43.000Z</time>
      </trkpt>
      <trkpt lat="48.93056" lon="1.06">
        <ele>117</ele>
        <time>2014-10-19T07:55:58.000Z</time>
      </trkpt>
      <trkpt lat="48.93056" lon="1.06002">
        <ele>116.40000152588</ele>
        <time>2014-10-19T07:56:01.000Z</time>
      </trkpt>
      <trkpt lat="48.93056" lon="1.06003">
        <ele>116.40000152588</ele>
        <time>2014-10-19T07:56:02.000Z</time>
      </trkpt>
      <trkpt lat="48.93058" lon="1.06004">
        <ele>116.40000152588</ele>
        <time>2014-10-19T07:56:03.000Z</time>
      </trkpt>
      <trkpt lat="48.93083" lon="1.06029">
        <ele>118</ele>
        <time>2014-10-19T07:56:16.000Z</time>
      </trkpt>
      <trkpt lat="48.93106" lon="1.06055">
        <ele>120.40000152588</ele>
        <time>2014-10-19T07:56:31.000Z</time>
      </trkpt>
      <trkpt lat="48.93124" lon="1.06073">
        <ele>122.19999694824</ele>
        <time>2014-10-19T07:56:44.000Z</time>
      </trkpt>
      <trkpt lat="48.9314" lon="1.06087">
        <ele>123.59999847412</ele>
        <time>2014-10-19T07:56:58.000Z</time>
      </trkpt>
      <trkpt lat="48.93146" lon="1.06092">
        <ele>125.19999694824</ele>
        <time>2014-10-19T07:57:12.000Z</time>
      </trkpt>
      <trkpt lat="48.93146" lon="1.06092">
        <ele>124.19999694824</ele>
        <time>2014-10-19T07:57:24.000Z</time>
      </trkpt>
      <trkpt lat="48.93147" lon="1.0609">
        <ele>123.59999847412</ele>
        <time>2014-10-19T07:57:52.000Z</time>
      </trkpt>
      <trkpt lat="48.9315" lon="1.06092">
        <ele>123.59999847412</ele>
        <time>2014-10-19T07:57:57.000Z</time>
      </trkpt>
      <trkpt lat="48.93164" lon="1.06102">
        <ele>128.39999389648</ele>
        <time>2014-10-19T07:58:09.000Z</time>
      </trkpt>
      <trkpt lat="48.93168" lon="1.06103">
        <ele>129</ele>
        <time>2014-10-19T07:58:12.000Z</time>
      </trkpt>
      <trkpt lat="48.93169" lon="1.06103">
        <ele>129</ele>
        <time>2014-10-19T07:58:13.000Z</time>
      </trkpt>
      <trkpt lat="48.93181" lon="1.06108">
        <ele>130.39999389648</ele>
        <time>2014-10-19T07:58:21.000Z</time>
      </trkpt>
      <trkpt lat="48.93182" lon="1.06109">
        <ele>130.39999389648</ele>
        <time>2014-10-19T07:58:22.000Z</time>
      </trkpt>
      <trkpt lat="48.93183" lon="1.06111">
        <ele>130</ele>
        <time>2014-10-19T07:58:23.000Z</time>
      </trkpt>
      <trkpt lat="48.93195" lon="1.06125">
        <ele>132.39999389648</ele>
        <time>2014-10-19T07:58:36.000Z</time>
      </trkpt>
      <trkpt lat="48.93202" lon="1.06127">
        <ele>139</ele>
        <time>2014-10-19T07:58:55.000Z</time>
      </trkpt>
      <trkpt lat="48.93206" lon="1.06127">
        <ele>138.60000610352</ele>
        <time>2014-10-19T07:59:26.000Z</time>
      </trkpt>
      <trkpt lat="48.93209" lon="1.06135">
        <ele>144.80000305176</ele>
        <time>2014-10-19T07:59:51.000Z</time>
      </trkpt>
      <trkpt lat="48.93217" lon="1.06166">
        <ele>146.19999694824</ele>
        <time>2014-10-19T08:00:02.000Z</time>
      </trkpt>
      <trkpt lat="48.93218" lon="1.06167">
        <ele>146.80000305176</ele>
        <time>2014-10-19T08:00:03.000Z</time>
      </trkpt>
      <trkpt lat="48.93219" lon="1.0617">
        <ele>147.19999694824</ele>
        <time>2014-10-19T08:00:04.000Z</time>
      </trkpt>
      <trkpt lat="48.93219" lon="1.06173">
        <ele>147.19999694824</ele>
        <time>2014-10-19T08:00:05.000Z</time>
      </trkpt>
      <trkpt lat="48.9322" lon="1.06176">
        <ele>147.60000610352</ele>
        <time>2014-10-19T08:00:06.000Z</time>
      </trkpt>
      <trkpt lat="48.93233" lon="1.06211">
        <ele>149.19999694824</ele>
        <time>2014-10-19T08:00:20.000Z</time>
      </trkpt>
      <trkpt lat="48.93233" lon="1.06214">
        <ele>149.19999694824</ele>
        <time>2014-10-19T08:00:21.000Z</time>
      </trkpt>
      <trkpt lat="48.93233" lon="1.06216">
        <ele>149.19999694824</ele>
        <time>2014-10-19T08:00:22.000Z</time>
      </trkpt>
      <trkpt lat="48.93233" lon="1.06219">
        <ele>149.19999694824</ele>
        <time>2014-10-19T08:00:23.000Z</time>
      </trkpt>
      <trkpt lat="48.93233" lon="1.06221">
        <ele>149.19999694824</ele>
        <time>2014-10-19T08:00:24.000Z</time>
      </trkpt>
      <trkpt lat="48.93234" lon="1.06223">
        <ele>149.19999694824</ele>
        <time>2014-10-19T08:00:25.000Z</time>
      </trkpt>
      <trkpt lat="48.93234" lon="1.06226">
        <ele>149.60000610352</ele>
        <time>2014-10-19T08:00:26.000Z</time>
      </trkpt>
      <trkpt lat="48.93234" lon="1.06229">
        <ele>149.60000610352</ele>
        <time>2014-10-19T08:00:27.000Z</time>
      </trkpt>
      <trkpt lat="48.93234" lon="1.06231">
        <ele>149.60000610352</ele>
        <time>2014-10-19T08:00:28.000Z</time>
      </trkpt>
      <trkpt lat="48.93234" lon="1.06234">
        <ele>150.19999694824</ele>
        <time>2014-10-19T08:00:29.000Z</time>
      </trkpt>
      <trkpt lat="48.93234" lon="1.06236">
        <ele>150.19999694824</ele>
        <time>2014-10-19T08:00:30.000Z</time>
      </trkpt>
      <trkpt lat="48.93234" lon="1.06239">
        <ele>150.19999694824</ele>
        <time>2014-10-19T08:00:31.000Z</time>
      </trkpt>
      <trkpt lat="48.93233" lon="1.06269">
        <ele>155.39999389648</ele>
        <time>2014-10-19T08:00:44.000Z</time>
      </trkpt>
      <trkpt lat="48.93233" lon="1.06272">
        <ele>155.80000305176</ele>
        <time>2014-10-19T08:00:45.000Z</time>
      </trkpt>
      <trkpt lat="48.93233" lon="1.06274">
        <ele>156.39999389648</ele>
        <time>2014-10-19T08:00:46.000Z</time>
      </trkpt>
      <trkpt lat="48.93234" lon="1.06277">
        <ele>156.39999389648</ele>
        <time>2014-10-19T08:00:47.000Z</time>
      </trkpt>
      <trkpt lat="48.93234" lon="1.0628">
        <ele>156.80000305176</ele>
        <time>2014-10-19T08:00:48.000Z</time>
      </trkpt>
      <trkpt lat="48.93234" lon="1.06282">
        <ele>156.80000305176</ele>
        <time>2014-10-19T08:00:49.000Z</time>
      </trkpt>
      <trkpt lat="48.93233" lon="1.06298">
        <ele>157.80000305176</ele>
        <time>2014-10-19T08:00:55.000Z</time>
      </trkpt>
      <trkpt lat="48.93233" lon="1.06301">
        <ele>157.80000305176</ele>
        <time>2014-10-19T08:00:56.000Z</time>
      </trkpt>
      <trkpt lat="48.93233" lon="1.06303">
        <ele>158.19999694824</ele>
        <time>2014-10-19T08:00:57.000Z</time>
      </trkpt>
      <trkpt lat="48.93232" lon="1.06305">
        <ele>158.19999694824</ele>
        <time>2014-10-19T08:00:58.000Z</time>
      </trkpt>
      <trkpt lat="48.93231" lon="1.06307">
        <ele>158.19999694824</ele>
        <time>2014-10-19T08:00:59.000Z</time>
      </trkpt>
      <trkpt lat="48.9323" lon="1.0631">
        <ele>158.19999694824</ele>
        <time>2014-10-19T08:01:00.000Z</time>
      </trkpt>
      <trkpt lat="48.93229" lon="1.06312">
        <ele>158.19999694824</ele>
        <time>2014-10-19T08:01:01.000Z</time>
      </trkpt>
      <trkpt lat="48.93228" lon="1.06314">
        <ele>158.80000305176</ele>
        <time>2014-10-19T08:01:02.000Z</time>
      </trkpt>
      <trkpt lat="48.93227" lon="1.06316">
        <ele>158.80000305176</ele>
        <time>2014-10-19T08:01:03.000Z</time>
      </trkpt>
      <trkpt lat="48.93224" lon="1.06324">
        <ele>159.19999694824</ele>
        <time>2014-10-19T08:01:06.000Z</time>
      </trkpt>
      <trkpt lat="48.93224" lon="1.06327">
        <ele>159.19999694824</ele>
        <time>2014-10-19T08:01:07.000Z</time>
      </trkpt>
      <trkpt lat="48.93223" lon="1.0633">
        <ele>159.80000305176</ele>
        <time>2014-10-19T08:01:08.000Z</time>
      </trkpt>
      <trkpt lat="48.93222" lon="1.06334">
        <ele>159.80000305176</ele>
        <time>2014-10-19T08:01:09.000Z</time>
      </trkpt>
      <trkpt lat="48.93222" lon="1.06338">
        <ele>159.19999694824</ele>
        <time>2014-10-19T08:01:10.000Z</time>
      </trkpt>
      <trkpt lat="48.93221" lon="1.06342">
        <ele>159.19999694824</ele>
        <time>2014-10-19T08:01:11.000Z</time>
      </trkpt>
      <trkpt lat="48.93225" lon="1.06388">
        <ele>155.39999389648</ele>
        <time>2014-10-19T08:01:21.000Z</time>
      </trkpt>
      <trkpt lat="48.9323" lon="1.06396">
        <ele>153.39999389648</ele>
        <time>2014-10-19T08:01:24.000Z</time>
      </trkpt>
      <trkpt lat="48.93233" lon="1.06396">
        <ele>153</ele>
        <time>2014-10-19T08:01:25.000Z</time>
      </trkpt>
      <trkpt lat="48.93235" lon="1.06396">
        <ele>152.60000610352</ele>
        <time>2014-10-19T08:01:26.000Z</time>
      </trkpt>
      <trkpt lat="48.93238" lon="1.06395">
        <ele>152.60000610352</ele>
        <time>2014-10-19T08:01:27.000Z</time>
      </trkpt>
      <trkpt lat="48.93241" lon="1.06393">
        <ele>152</ele>
        <time>2014-10-19T08:01:28.000Z</time>
      </trkpt>
      <trkpt lat="48.93244" lon="1.0639">
        <ele>152</ele>
        <time>2014-10-19T08:01:29.000Z</time>
      </trkpt>
      <trkpt lat="48.93267" lon="1.06373">
        <ele>152</ele>
        <time>2014-10-19T08:01:36.000Z</time>
      </trkpt>
      <trkpt lat="48.93282" lon="1.06362">
        <ele>153</ele>
        <time>2014-10-19T08:01:40.000Z</time>
      </trkpt>
      <trkpt lat="48.93285" lon="1.06358">
        <ele>153.39999389648</ele>
        <time>2014-10-19T08:01:41.000Z</time>
      </trkpt>
      <trkpt lat="48.93305" lon="1.06346">
        <ele>156.39999389648</ele>
        <time>2014-10-19T08:01:46.000Z</time>
      </trkpt>
      <trkpt lat="48.93339" lon="1.06322">
        <ele>159.19999694824</ele>
        <time>2014-10-19T08:01:54.000Z</time>
      </trkpt>
      <trkpt lat="48.93343" lon="1.06318">
        <ele>159.19999694824</ele>
        <time>2014-10-19T08:01:55.000Z</time>
      </trkpt>
      <trkpt lat="48.93347" lon="1.06316">
        <ele>159.80000305176</ele>
        <time>2014-10-19T08:01:56.000Z</time>
      </trkpt>
      <trkpt lat="48.93351" lon="1.06313">
        <ele>159.80000305176</ele>
        <time>2014-10-19T08:01:57.000Z</time>
      </trkpt>
      <trkpt lat="48.93356" lon="1.06309">
        <ele>160.19999694824</ele>
        <time>2014-10-19T08:01:58.000Z</time>
      </trkpt>
      <trkpt lat="48.9336" lon="1.06304">
        <ele>160.19999694824</ele>
        <time>2014-10-19T08:01:59.000Z</time>
      </trkpt>
      <trkpt lat="48.93365" lon="1.063">
        <ele>160.19999694824</ele>
        <time>2014-10-19T08:02:00.000Z</time>
      </trkpt>
      <trkpt lat="48.93369" lon="1.06296">
        <ele>160.19999694824</ele>
        <time>2014-10-19T08:02:01.000Z</time>
      </trkpt>
      <trkpt lat="48.93373" lon="1.06293">
        <ele>160.19999694824</ele>
        <time>2014-10-19T08:02:02.000Z</time>
      </trkpt>
      <trkpt lat="48.93377" lon="1.0629">
        <ele>160.19999694824</ele>
        <time>2014-10-19T08:02:03.000Z</time>
      </trkpt>
      <trkpt lat="48.93382" lon="1.06288">
        <ele>160.19999694824</ele>
        <time>2014-10-19T08:02:04.000Z</time>
      </trkpt>
      <trkpt lat="48.93415" lon="1.06272">
        <ele>161.60000610352</ele>
        <time>2014-10-19T08:02:12.000Z</time>
      </trkpt>
      <trkpt lat="48.9342" lon="1.06269">
        <ele>162.19999694824</ele>
        <time>2014-10-19T08:02:13.000Z</time>
      </trkpt>
      <trkpt lat="48.93424" lon="1.06265">
        <ele>162.60000610352</ele>
        <time>2014-10-19T08:02:14.000Z</time>
      </trkpt>
      <trkpt lat="48.93434" lon="1.06258">
        <ele>163.60000610352</ele>
        <time>2014-10-19T08:02:16.000Z</time>
      </trkpt>
      <trkpt lat="48.93438" lon="1.06256">
        <ele>164</ele>
        <time>2014-10-19T08:02:17.000Z</time>
      </trkpt>
      <trkpt lat="48.93477" lon="1.06228">
        <ele>167.80000305176</ele>
        <time>2014-10-19T08:02:25.000Z</time>
      </trkpt>
      <trkpt lat="48.93486" lon="1.06219">
        <ele>168.39999389648</ele>
        <time>2014-10-19T08:02:27.000Z</time>
      </trkpt>
      <trkpt lat="48.93517" lon="1.06196">
        <ele>170.80000305176</ele>
        <time>2014-10-19T08:02:36.000Z</time>
      </trkpt>
      <trkpt lat="48.93519" lon="1.06195">
        <ele>171.19999694824</ele>
        <time>2014-10-19T08:02:37.000Z</time>
      </trkpt>
      <trkpt lat="48.93524" lon="1.06194">
        <ele>171.80000305176</ele>
        <time>2014-10-19T08:02:40.000Z</time>
      </trkpt>
      <trkpt lat="48.93526" lon="1.06193">
        <ele>172.19999694824</ele>
        <time>2014-10-19T08:02:41.000Z</time>
      </trkpt>
      <trkpt lat="48.93528" lon="1.06191">
        <ele>172.19999694824</ele>
        <time>2014-10-19T08:02:42.000Z</time>
      </trkpt>
      <trkpt lat="48.93531" lon="1.0619">
        <ele>172.60000610352</ele>
        <time>2014-10-19T08:02:43.000Z</time>
      </trkpt>
      <trkpt lat="48.93534" lon="1.06188">
        <ele>172.60000610352</ele>
        <time>2014-10-19T08:02:44.000Z</time>
      </trkpt>
      <trkpt lat="48.93537" lon="1.06186">
        <ele>173.19999694824</ele>
        <time>2014-10-19T08:02:45.000Z</time>
      </trkpt>
      <trkpt lat="48.93539" lon="1.06184">
        <ele>173.60000610352</ele>
        <time>2014-10-19T08:02:46.000Z</time>
      </trkpt>
      <trkpt lat="48.93542" lon="1.06181">
        <ele>173.60000610352</ele>
        <time>2014-10-19T08:02:47.000Z</time>
      </trkpt>
      <trkpt lat="48.93545" lon="1.06179">
        <ele>174.19999694824</ele>
        <time>2014-10-19T08:02:48.000Z</time>
      </trkpt>
      <trkpt lat="48.93548" lon="1.06177">
        <ele>174.19999694824</ele>
        <time>2014-10-19T08:02:49.000Z</time>
      </trkpt>
      <trkpt lat="48.93551" lon="1.06175">
        <ele>174.19999694824</ele>
        <time>2014-10-19T08:02:50.000Z</time>
      </trkpt>
      <trkpt lat="48.93587" lon="1.06152">
        <ele>176</ele>
        <time>2014-10-19T08:03:01.000Z</time>
      </trkpt>
      <trkpt lat="48.9362" lon="1.06128">
        <ele>176.60000610352</ele>
        <time>2014-10-19T08:03:11.000Z</time>
      </trkpt>
      <trkpt lat="48.9366" lon="1.06101">
        <ele>179.39999389648</ele>
        <time>2014-10-19T08:03:18.000Z</time>
      </trkpt>
      <trkpt lat="48.93667" lon="1.06096">
        <ele>179</ele>
        <time>2014-10-19T08:03:19.000Z</time>
      </trkpt>
      <trkpt lat="48.93674" lon="1.06092">
        <ele>179</ele>
        <time>2014-10-19T08:03:20.000Z</time>
      </trkpt>
      <trkpt lat="48.93685" lon="1.06087">
        <ele>178.39999389648</ele>
        <time>2014-10-19T08:03:22.000Z</time>
      </trkpt>
      <trkpt lat="48.9369" lon="1.06085">
        <ele>178</ele>
        <time>2014-10-19T08:03:23.000Z</time>
      </trkpt>
      <trkpt lat="48.93695" lon="1.06084">
        <ele>178</ele>
        <time>2014-10-19T08:03:24.000Z</time>
      </trkpt>
      <trkpt lat="48.93699" lon="1.06084">
        <ele>178</ele>
        <time>2014-10-19T08:03:25.000Z</time>
      </trkpt>
      <trkpt lat="48.93704" lon="1.06082">
        <ele>177.60000610352</ele>
        <time>2014-10-19T08:03:26.000Z</time>
      </trkpt>
      <trkpt lat="48.93707" lon="1.0608">
        <ele>176.60000610352</ele>
        <time>2014-10-19T08:03:27.000Z</time>
      </trkpt>
      <trkpt lat="48.93711" lon="1.06076">
        <ele>175.60000610352</ele>
        <time>2014-10-19T08:03:28.000Z</time>
      </trkpt>
      <trkpt lat="48.93715" lon="1.06073">
        <ele>174.60000610352</ele>
        <time>2014-10-19T08:03:29.000Z</time>
      </trkpt>
      <trkpt lat="48.93726" lon="1.06066">
        <ele>171.19999694824</ele>
        <time>2014-10-19T08:03:33.000Z</time>
      </trkpt>
      <trkpt lat="48.93727" lon="1.06063">
        <ele>170.80000305176</ele>
        <time>2014-10-19T08:03:34.000Z</time>
      </trkpt>
      <trkpt lat="48.93728" lon="1.0606">
        <ele>168.80000305176</ele>
        <time>2014-10-19T08:03:35.000Z</time>
      </trkpt>
      <trkpt lat="48.9373" lon="1.06057">
        <ele>167.80000305176</ele>
        <time>2014-10-19T08:03:36.000Z</time>
      </trkpt>
      <trkpt lat="48.93731" lon="1.06054">
        <ele>167</ele>
        <time>2014-10-19T08:03:37.000Z</time>
      </trkpt>
      <trkpt lat="48.93733" lon="1.0604">
        <ele>155.39999389648</ele>
        <time>2014-10-19T08:03:47.000Z</time>
      </trkpt>
      <trkpt lat="48.9374" lon="1.06044">
        <ele>147.19999694824</ele>
        <time>2014-10-19T08:04:02.000Z</time>
      </trkpt>
      <trkpt lat="48.93742" lon="1.06042">
        <ele>147.19999694824</ele>
        <time>2014-10-19T08:04:03.000Z</time>
      </trkpt>
      <trkpt lat="48.93745" lon="1.06041">
        <ele>147.19999694824</ele>
        <time>2014-10-19T08:04:04.000Z</time>
      </trkpt>
      <trkpt lat="48.93755" lon="1.06035">
        <ele>147.19999694824</ele>
        <time>2014-10-19T08:04:14.000Z</time>
      </trkpt>
      <trkpt lat="48.93757" lon="1.06033">
        <ele>145.80000305176</ele>
        <time>2014-10-19T08:04:18.000Z</time>
      </trkpt>
      <trkpt lat="48.93761" lon="1.06028">
        <ele>144.39999389648</ele>
        <time>2014-10-19T08:04:21.000Z</time>
      </trkpt>
      <trkpt lat="48.93763" lon="1.06028">
        <ele>144.39999389648</ele>
        <time>2014-10-19T08:04:22.000Z</time>
      </trkpt>
      <trkpt lat="48.93764" lon="1.06026">
        <ele>144.39999389648</ele>
        <time>2014-10-19T08:04:23.000Z</time>
      </trkpt>
      <trkpt lat="48.93766" lon="1.06025">
        <ele>143.80000305176</ele>
        <time>2014-10-19T08:04:24.000Z</time>
      </trkpt>
      <trkpt lat="48.93768" lon="1.06024">
        <ele>143.80000305176</ele>
        <time>2014-10-19T08:04:25.000Z</time>
      </trkpt>
      <trkpt lat="48.93771" lon="1.06022">
        <ele>144.39999389648</ele>
        <time>2014-10-19T08:04:28.000Z</time>
      </trkpt>
      <trkpt lat="48.93791" lon="1.06011">
        <ele>142.80000305176</ele>
        <time>2014-10-19T08:04:38.000Z</time>
      </trkpt>
      <trkpt lat="48.93805" lon="1.05998">
        <ele>139</ele>
        <time>2014-10-19T08:04:47.000Z</time>
      </trkpt>
      <trkpt lat="48.9382" lon="1.05988">
        <ele>137.60000610352</ele>
        <time>2014-10-19T08:04:52.000Z</time>
      </trkpt>
      <trkpt lat="48.93824" lon="1.05986">
        <ele>137.60000610352</ele>
        <time>2014-10-19T08:04:53.000Z</time>
      </trkpt>
      <trkpt lat="48.93828" lon="1.05985">
        <ele>137.19999694824</ele>
        <time>2014-10-19T08:04:54.000Z</time>
      </trkpt>
      <trkpt lat="48.93858" lon="1.05987">
        <ele>134.19999694824</ele>
        <time>2014-10-19T08:05:05.000Z</time>
      </trkpt>
      <trkpt lat="48.9387" lon="1.05994">
        <ele>133.19999694824</ele>
        <time>2014-10-19T08:05:12.000Z</time>
      </trkpt>
      <trkpt lat="48.93874" lon="1.05997">
        <ele>133.80000305176</ele>
        <time>2014-10-19T08:05:14.000Z</time>
      </trkpt>
      <trkpt lat="48.93913" lon="1.06007">
        <ele>136.19999694824</ele>
        <time>2014-10-19T08:05:24.000Z</time>
      </trkpt>
      <trkpt lat="48.93931" lon="1.06013">
        <ele>137.60000610352</ele>
        <time>2014-10-19T08:05:30.000Z</time>
      </trkpt>
      <trkpt lat="48.93935" lon="1.06012">
        <ele>137.60000610352</ele>
        <time>2014-10-19T08:05:32.000Z</time>
      </trkpt>
      <trkpt lat="48.93944" lon="1.06008">
        <ele>136.19999694824</ele>
        <time>2014-10-19T08:05:44.000Z</time>
      </trkpt>
      <trkpt lat="48.93954" lon="1.06017">
        <ele>132.80000305176</ele>
        <time>2014-10-19T08:06:09.000Z</time>
      </trkpt>
      <trkpt lat="48.93957" lon="1.06019">
        <ele>131.39999389648</ele>
        <time>2014-10-19T08:06:16.000Z</time>
      </trkpt>
      <trkpt lat="48.93958" lon="1.0602">
        <ele>131.80000305176</ele>
        <time>2014-10-19T08:06:17.000Z</time>
      </trkpt>
      <trkpt lat="48.93959" lon="1.0602">
        <ele>131.80000305176</ele>
        <time>2014-10-19T08:06:18.000Z</time>
      </trkpt>
      <trkpt lat="48.93961" lon="1.06021">
        <ele>132.39999389648</ele>
        <time>2014-10-19T08:06:19.000Z</time>
      </trkpt>
      <trkpt lat="48.93964" lon="1.06021">
        <ele>132.39999389648</ele>
        <time>2014-10-19T08:06:20.000Z</time>
      </trkpt>
      <trkpt lat="48.93967" lon="1.06021">
        <ele>132.80000305176</ele>
        <time>2014-10-19T08:06:21.000Z</time>
      </trkpt>
      <trkpt lat="48.93998" lon="1.06033">
        <ele>140.39999389648</ele>
        <time>2014-10-19T08:06:31.000Z</time>
      </trkpt>
      <trkpt lat="48.9401" lon="1.06038">
        <ele>144.39999389648</ele>
        <time>2014-10-19T08:06:37.000Z</time>
      </trkpt>
      <trkpt lat="48.94012" lon="1.06038">
        <ele>144.80000305176</ele>
        <time>2014-10-19T08:06:38.000Z</time>
      </trkpt>
      <trkpt lat="48.94014" lon="1.06038">
        <ele>145.80000305176</ele>
        <time>2014-10-19T08:06:39.000Z</time>
      </trkpt>
      <trkpt lat="48.94016" lon="1.06039">
        <ele>146.19999694824</ele>
        <time>2014-10-19T08:06:40.000Z</time>
      </trkpt>
      <trkpt lat="48.94017" lon="1.06039">
        <ele>147.19999694824</ele>
        <time>2014-10-19T08:06:41.000Z</time>
      </trkpt>
      <trkpt lat="48.94027" lon="1.06048">
        <ele>151.60000610352</ele>
        <time>2014-10-19T08:06:48.000Z</time>
      </trkpt>
      <trkpt lat="48.94047" lon="1.06056">
        <ele>151</ele>
        <time>2014-10-19T08:06:58.000Z</time>
      </trkpt>
      <trkpt lat="48.94062" lon="1.06076">
        <ele>149.19999694824</ele>
        <time>2014-10-19T08:07:05.000Z</time>
      </trkpt>
      <trkpt lat="48.94084" lon="1.06094">
        <ele>144.80000305176</ele>
        <time>2014-10-19T08:07:16.000Z</time>
      </trkpt>
      <trkpt lat="48.94093" lon="1.06121">
        <ele>140</ele>
        <time>2014-10-19T08:07:25.000Z</time>
      </trkpt>
      <trkpt lat="48.94094" lon="1.06123">
        <ele>139.60000610352</ele>
        <time>2014-10-19T08:07:26.000Z</time>
      </trkpt>
      <trkpt lat="48.94094" lon="1.06125">
        <ele>139.60000610352</ele>
        <time>2014-10-19T08:07:27.000Z</time>
      </trkpt>
      <trkpt lat="48.94095" lon="1.06152">
        <ele>137.19999694824</ele>
        <time>2014-10-19T08:07:39.000Z</time>
      </trkpt>
      <trkpt lat="48.94096" lon="1.06169">
        <ele>139.60000610352</ele>
        <time>2014-10-19T08:07:47.000Z</time>
      </trkpt>
      <trkpt lat="48.94095" lon="1.06176">
        <ele>140.39999389648</ele>
        <time>2014-10-19T08:07:50.000Z</time>
      </trkpt>
      <trkpt lat="48.94093" lon="1.06191">
        <ele>141.39999389648</ele>
        <time>2014-10-19T08:07:58.000Z</time>
      </trkpt>
      <trkpt lat="48.94092" lon="1.06193">
        <ele>142</ele>
        <time>2014-10-19T08:07:59.000Z</time>
      </trkpt>
      <trkpt lat="48.9409" lon="1.06196">
        <ele>141.39999389648</ele>
        <time>2014-10-19T08:08:00.000Z</time>
      </trkpt>
      <trkpt lat="48.94075" lon="1.0623">
        <ele>140</ele>
        <time>2014-10-19T08:08:11.000Z</time>
      </trkpt>
      <trkpt lat="48.94071" lon="1.0624">
        <ele>141</ele>
        <time>2014-10-19T08:08:16.000Z</time>
      </trkpt>
      <trkpt lat="48.94071" lon="1.06243">
        <ele>141</ele>
        <time>2014-10-19T08:08:17.000Z</time>
      </trkpt>
      <trkpt lat="48.9407" lon="1.06256">
        <ele>142</ele>
        <time>2014-10-19T08:08:23.000Z</time>
      </trkpt>
      <trkpt lat="48.94071" lon="1.06259">
        <ele>142</ele>
        <time>2014-10-19T08:08:24.000Z</time>
      </trkpt>
      <trkpt lat="48.94079" lon="1.06283">
        <ele>140</ele>
        <time>2014-10-19T08:08:38.000Z</time>
      </trkpt>
      <trkpt lat="48.94091" lon="1.06303">
        <ele>136.60000610352</ele>
        <time>2014-10-19T08:08:51.000Z</time>
      </trkpt>
      <trkpt lat="48.94096" lon="1.0631">
        <ele>136.19999694824</ele>
        <time>2014-10-19T08:09:08.000Z</time>
      </trkpt>
      <trkpt lat="48.941" lon="1.06317">
        <ele>138.60000610352</ele>
        <time>2014-10-19T08:09:26.000Z</time>
      </trkpt>
      <trkpt lat="48.94101" lon="1.06315">
        <ele>138.60000610352</ele>
        <time>2014-10-19T08:09:50.000Z</time>
      </trkpt>
      <trkpt lat="48.94102" lon="1.06319">
        <ele>135.19999694824</ele>
        <time>2014-10-19T08:10:15.000Z</time>
      </trkpt>
      <trkpt lat="48.94109" lon="1.06327">
        <ele>135.19999694824</ele>
        <time>2014-10-19T08:10:35.000Z</time>
      </trkpt>
      <trkpt lat="48.9412" lon="1.06341">
        <ele>135.19999694824</ele>
        <time>2014-10-19T08:10:44.000Z</time>
      </trkpt>
      <trkpt lat="48.94132" lon="1.06349">
        <ele>134.80000305176</ele>
        <time>2014-10-19T08:10:53.000Z</time>
      </trkpt>
      <trkpt lat="48.94133" lon="1.0635">
        <ele>135.19999694824</ele>
        <time>2014-10-19T08:10:54.000Z</time>
      </trkpt>
      <trkpt lat="48.94136" lon="1.06351">
        <ele>135.19999694824</ele>
        <time>2014-10-19T08:10:56.000Z</time>
      </trkpt>
      <trkpt lat="48.94141" lon="1.06361">
        <ele>135.60000610352</ele>
        <time>2014-10-19T08:11:03.000Z</time>
      </trkpt>
      <trkpt lat="48.94147" lon="1.06385">
        <ele>140</ele>
        <time>2014-10-19T08:11:16.000Z</time>
      </trkpt>
      <trkpt lat="48.94152" lon="1.06403">
        <ele>141.39999389648</ele>
        <time>2014-10-19T08:11:27.000Z</time>
      </trkpt>
      <trkpt lat="48.94156" lon="1.06424">
        <ele>142.39999389648</ele>
        <time>2014-10-19T08:11:39.000Z</time>
      </trkpt>
      <trkpt lat="48.94158" lon="1.06434">
        <ele>142.80000305176</ele>
        <time>2014-10-19T08:11:46.000Z</time>
      </trkpt>
      <trkpt lat="48.9416" lon="1.06454">
        <ele>143.39999389648</ele>
        <time>2014-10-19T08:11:57.000Z</time>
      </trkpt>
      <trkpt lat="48.94156" lon="1.06463">
        <ele>146.80000305176</ele>
        <time>2014-10-19T08:12:03.000Z</time>
      </trkpt>
      <trkpt lat="48.94156" lon="1.06465">
        <ele>147.60000610352</ele>
        <time>2014-10-19T08:12:04.000Z</time>
      </trkpt>
      <trkpt lat="48.94149" lon="1.06472">
        <ele>153</ele>
        <time>2014-10-19T08:12:11.000Z</time>
      </trkpt>
      <trkpt lat="48.94147" lon="1.06474">
        <ele>154</ele>
        <time>2014-10-19T08:12:12.000Z</time>
      </trkpt>
      <trkpt lat="48.94145" lon="1.06475">
        <ele>154.39999389648</ele>
        <time>2014-10-19T08:12:13.000Z</time>
      </trkpt>
      <trkpt lat="48.94143" lon="1.06476">
        <ele>155.39999389648</ele>
        <time>2014-10-19T08:12:14.000Z</time>
      </trkpt>
      <trkpt lat="48.94142" lon="1.06476">
        <ele>156.39999389648</ele>
        <time>2014-10-19T08:12:15.000Z</time>
      </trkpt>
      <trkpt lat="48.9414" lon="1.06478">
        <ele>156.80000305176</ele>
        <time>2014-10-19T08:12:16.000Z</time>
      </trkpt>
      <trkpt lat="48.94137" lon="1.0648">
        <ele>157.80000305176</ele>
        <time>2014-10-19T08:12:17.000Z</time>
      </trkpt>
      <trkpt lat="48.94135" lon="1.06482">
        <ele>158.19999694824</ele>
        <time>2014-10-19T08:12:18.000Z</time>
      </trkpt>
      <trkpt lat="48.94111" lon="1.06496">
        <ele>165</ele>
        <time>2014-10-19T08:12:28.000Z</time>
      </trkpt>
      <trkpt lat="48.94078" lon="1.06526">
        <ele>168.80000305176</ele>
        <time>2014-10-19T08:12:38.000Z</time>
      </trkpt>
      <trkpt lat="48.94074" lon="1.0653">
        <ele>169.39999389648</ele>
        <time>2014-10-19T08:12:39.000Z</time>
      </trkpt>
      <trkpt lat="48.94047" lon="1.06548">
        <ele>171.80000305176</ele>
        <time>2014-10-19T08:12:44.000Z</time>
      </trkpt>
      <trkpt lat="48.94041" lon="1.06551">
        <ele>172.19999694824</ele>
        <time>2014-10-19T08:12:45.000Z</time>
      </trkpt>
      <trkpt lat="48.93964" lon="1.06602">
        <ele>176</ele>
        <time>2014-10-19T08:12:57.000Z</time>
      </trkpt>
      <trkpt lat="48.93958" lon="1.06608">
        <ele>176</ele>
        <time>2014-10-19T08:12:58.000Z</time>
      </trkpt>
      <trkpt lat="48.93953" lon="1.06612">
        <ele>176.60000610352</ele>
        <time>2014-10-19T08:12:59.000Z</time>
      </trkpt>
      <trkpt lat="48.93948" lon="1.06615">
        <ele>177</ele>
        <time>2014-10-19T08:13:00.000Z</time>
      </trkpt>
      <trkpt lat="48.93943" lon="1.06617">
        <ele>177.60000610352</ele>
        <time>2014-10-19T08:13:01.000Z</time>
      </trkpt>
      <trkpt lat="48.93938" lon="1.0662">
        <ele>178</ele>
        <time>2014-10-19T08:13:02.000Z</time>
      </trkpt>
      <trkpt lat="48.93934" lon="1.06623">
        <ele>178.39999389648</ele>
        <time>2014-10-19T08:13:03.000Z</time>
      </trkpt>
      <trkpt lat="48.93891" lon="1.06649">
        <ele>181.80000305176</ele>
        <time>2014-10-19T08:13:15.000Z</time>
      </trkpt>
      <trkpt lat="48.93875" lon="1.06662">
        <ele>184.19999694824</ele>
        <time>2014-10-19T08:13:22.000Z</time>
      </trkpt>
      <trkpt lat="48.93874" lon="1.06664">
        <ele>184.80000305176</ele>
        <time>2014-10-19T08:13:23.000Z</time>
      </trkpt>
      <trkpt lat="48.93866" lon="1.06667">
        <ele>185.19999694824</ele>
        <time>2014-10-19T08:13:26.000Z</time>
      </trkpt>
      <trkpt lat="48.93864" lon="1.06669">
        <ele>185.19999694824</ele>
        <time>2014-10-19T08:13:27.000Z</time>
      </trkpt>
      <trkpt lat="48.93861" lon="1.06671">
        <ele>185.19999694824</ele>
        <time>2014-10-19T08:13:28.000Z</time>
      </trkpt>
      <trkpt lat="48.93859" lon="1.06674">
        <ele>185.19999694824</ele>
        <time>2014-10-19T08:13:29.000Z</time>
      </trkpt>
      <trkpt lat="48.93856" lon="1.06676">
        <ele>185.19999694824</ele>
        <time>2014-10-19T08:13:30.000Z</time>
      </trkpt>
      <trkpt lat="48.93854" lon="1.06678">
        <ele>185.19999694824</ele>
        <time>2014-10-19T08:13:31.000Z</time>
      </trkpt>
      <trkpt lat="48.93852" lon="1.0668">
        <ele>185.19999694824</ele>
        <time>2014-10-19T08:13:32.000Z</time>
      </trkpt>
      <trkpt lat="48.93846" lon="1.06686">
        <ele>184.80000305176</ele>
        <time>2014-10-19T08:13:35.000Z</time>
      </trkpt>
      <trkpt lat="48.93843" lon="1.06688">
        <ele>184.80000305176</ele>
        <time>2014-10-19T08:13:36.000Z</time>
      </trkpt>
      <trkpt lat="48.9384" lon="1.0669">
        <ele>184.19999694824</ele>
        <time>2014-10-19T08:13:37.000Z</time>
      </trkpt>
      <trkpt lat="48.93837" lon="1.06691">
        <ele>184.19999694824</ele>
        <time>2014-10-19T08:13:38.000Z</time>
      </trkpt>
      <trkpt lat="48.93835" lon="1.06692">
        <ele>183.80000305176</ele>
        <time>2014-10-19T08:13:39.000Z</time>
      </trkpt>
      <trkpt lat="48.93832" lon="1.06694">
        <ele>183.19999694824</ele>
        <time>2014-10-19T08:13:40.000Z</time>
      </trkpt>
      <trkpt lat="48.93828" lon="1.06695">
        <ele>182.39999389648</ele>
        <time>2014-10-19T08:13:41.000Z</time>
      </trkpt>
      <trkpt lat="48.93826" lon="1.06697">
        <ele>182.39999389648</ele>
        <time>2014-10-19T08:13:42.000Z</time>
      </trkpt>
      <trkpt lat="48.93824" lon="1.06698">
        <ele>181.80000305176</ele>
        <time>2014-10-19T08:13:43.000Z</time>
      </trkpt>
      <trkpt lat="48.9382" lon="1.06698">
        <ele>181.39999389648</ele>
        <time>2014-10-19T08:13:44.000Z</time>
      </trkpt>
      <trkpt lat="48.93818" lon="1.067">
        <ele>181.39999389648</ele>
        <time>2014-10-19T08:13:45.000Z</time>
      </trkpt>
      <trkpt lat="48.93815" lon="1.06701">
        <ele>180.80000305176</ele>
        <time>2014-10-19T08:13:46.000Z</time>
      </trkpt>
      <trkpt lat="48.93813" lon="1.06703">
        <ele>180.80000305176</ele>
        <time>2014-10-19T08:13:47.000Z</time>
      </trkpt>
      <trkpt lat="48.9381" lon="1.06705">
        <ele>180.80000305176</ele>
        <time>2014-10-19T08:13:48.000Z</time>
      </trkpt>
      <trkpt lat="48.93808" lon="1.06706">
        <ele>180.80000305176</ele>
        <time>2014-10-19T08:13:49.000Z</time>
      </trkpt>
      <trkpt lat="48.93793" lon="1.06719">
        <ele>182.39999389648</ele>
        <time>2014-10-19T08:13:56.000Z</time>
      </trkpt>
      <trkpt lat="48.93791" lon="1.06719">
        <ele>182.80000305176</ele>
        <time>2014-10-19T08:13:57.000Z</time>
      </trkpt>
      <trkpt lat="48.93789" lon="1.06719">
        <ele>183.19999694824</ele>
        <time>2014-10-19T08:13:58.000Z</time>
      </trkpt>
      <trkpt lat="48.93786" lon="1.06722">
        <ele>183.19999694824</ele>
        <time>2014-10-19T08:13:59.000Z</time>
      </trkpt>
      <trkpt lat="48.93784" lon="1.06724">
        <ele>183.19999694824</ele>
        <time>2014-10-19T08:14:00.000Z</time>
      </trkpt>
      <trkpt lat="48.9378" lon="1.06726">
        <ele>183.19999694824</ele>
        <time>2014-10-19T08:14:01.000Z</time>
      </trkpt>
      <trkpt lat="48.93778" lon="1.06727">
        <ele>183.19999694824</ele>
        <time>2014-10-19T08:14:02.000Z</time>
      </trkpt>
      <trkpt lat="48.93777" lon="1.06728">
        <ele>183.19999694824</ele>
        <time>2014-10-19T08:14:03.000Z</time>
      </trkpt>
      <trkpt lat="48.93745" lon="1.06757">
        <ele>179.39999389648</ele>
        <time>2014-10-19T08:14:14.000Z</time>
      </trkpt>
      <trkpt lat="48.93734" lon="1.06765">
        <ele>179.39999389648</ele>
        <time>2014-10-19T08:14:18.000Z</time>
      </trkpt>
      <trkpt lat="48.93731" lon="1.06767">
        <ele>179</ele>
        <time>2014-10-19T08:14:19.000Z</time>
      </trkpt>
      <trkpt lat="48.93729" lon="1.06769">
        <ele>179</ele>
        <time>2014-10-19T08:14:20.000Z</time>
      </trkpt>
      <trkpt lat="48.93726" lon="1.06771">
        <ele>179</ele>
        <time>2014-10-19T08:14:21.000Z</time>
      </trkpt>
      <trkpt lat="48.93723" lon="1.06772">
        <ele>179</ele>
        <time>2014-10-19T08:14:22.000Z</time>
      </trkpt>
      <trkpt lat="48.93719" lon="1.06774">
        <ele>179</ele>
        <time>2014-10-19T08:14:23.000Z</time>
      </trkpt>
      <trkpt lat="48.93715" lon="1.06776">
        <ele>178.39999389648</ele>
        <time>2014-10-19T08:14:24.000Z</time>
      </trkpt>
      <trkpt lat="48.93713" lon="1.06778">
        <ele>178.39999389648</ele>
        <time>2014-10-19T08:14:25.000Z</time>
      </trkpt>
      <trkpt lat="48.9371" lon="1.0678">
        <ele>178.39999389648</ele>
        <time>2014-10-19T08:14:26.000Z</time>
      </trkpt>
      <trkpt lat="48.93671" lon="1.06805">
        <ele>176.60000610352</ele>
        <time>2014-10-19T08:14:38.000Z</time>
      </trkpt>
      <trkpt lat="48.93636" lon="1.06832">
        <ele>173.60000610352</ele>
        <time>2014-10-19T08:14:49.000Z</time>
      </trkpt>
      <trkpt lat="48.93603" lon="1.06853">
        <ele>169.39999389648</ele>
        <time>2014-10-19T08:15:00.000Z</time>
      </trkpt>
      <trkpt lat="48.93577" lon="1.0687">
        <ele>167.39999389648</ele>
        <time>2014-10-19T08:15:09.000Z</time>
      </trkpt>
      <trkpt lat="48.93573" lon="1.06878">
        <ele>168.80000305176</ele>
        <time>2014-10-19T08:15:12.000Z</time>
      </trkpt>
      <trkpt lat="48.93574" lon="1.06882">
        <ele>169.39999389648</ele>
        <time>2014-10-19T08:15:13.000Z</time>
      </trkpt>
      <trkpt lat="48.93575" lon="1.06886">
        <ele>169.80000305176</ele>
        <time>2014-10-19T08:15:14.000Z</time>
      </trkpt>
      <trkpt lat="48.93576" lon="1.06888">
        <ele>169.80000305176</ele>
        <time>2014-10-19T08:15:15.000Z</time>
      </trkpt>
      <trkpt lat="48.93576" lon="1.06892">
        <ele>169.80000305176</ele>
        <time>2014-10-19T08:15:16.000Z</time>
      </trkpt>
      <trkpt lat="48.93583" lon="1.069">
        <ele>171.19999694824</ele>
        <time>2014-10-19T08:15:21.000Z</time>
      </trkpt>
      <trkpt lat="48.93585" lon="1.069">
        <ele>171.80000305176</ele>
        <time>2014-10-19T08:15:22.000Z</time>
      </trkpt>
      <trkpt lat="48.93586" lon="1.06901">
        <ele>172.19999694824</ele>
        <time>2014-10-19T08:15:23.000Z</time>
      </trkpt>
      <trkpt lat="48.93587" lon="1.06902">
        <ele>172.60000610352</ele>
        <time>2014-10-19T08:15:24.000Z</time>
      </trkpt>
      <trkpt lat="48.93589" lon="1.06903">
        <ele>173.19999694824</ele>
        <time>2014-10-19T08:15:25.000Z</time>
      </trkpt>
      <trkpt lat="48.93591" lon="1.06904">
        <ele>173.60000610352</ele>
        <time>2014-10-19T08:15:26.000Z</time>
      </trkpt>
      <trkpt lat="48.93593" lon="1.06905">
        <ele>174.19999694824</ele>
        <time>2014-10-19T08:15:27.000Z</time>
      </trkpt>
      <trkpt lat="48.93595" lon="1.06907">
        <ele>174.60000610352</ele>
        <time>2014-10-19T08:15:28.000Z</time>
      </trkpt>
      <trkpt lat="48.93597" lon="1.06909">
        <ele>174.60000610352</ele>
        <time>2014-10-19T08:15:29.000Z</time>
      </trkpt>
      <trkpt lat="48.93626" lon="1.06954">
        <ele>176.60000610352</ele>
        <time>2014-10-19T08:15:40.000Z</time>
      </trkpt>
      <trkpt lat="48.9364" lon="1.06979">
        <ele>176.60000610352</ele>
        <time>2014-10-19T08:15:46.000Z</time>
      </trkpt>
      <trkpt lat="48.93642" lon="1.06983">
        <ele>176.60000610352</ele>
        <time>2014-10-19T08:15:47.000Z</time>
      </trkpt>
      <trkpt lat="48.93645" lon="1.06986">
        <ele>176.60000610352</ele>
        <time>2014-10-19T08:15:48.000Z</time>
      </trkpt>
      <trkpt lat="48.93647" lon="1.06989">
        <ele>176.60000610352</ele>
        <time>2014-10-19T08:15:49.000Z</time>
      </trkpt>
      <trkpt lat="48.93648" lon="1.06991">
        <ele>176.60000610352</ele>
        <time>2014-10-19T08:15:50.000Z</time>
      </trkpt>
      <trkpt lat="48.93649" lon="1.06994">
        <ele>176.60000610352</ele>
        <time>2014-10-19T08:15:51.000Z</time>
      </trkpt>
      <trkpt lat="48.93661" lon="1.07019">
        <ele>176</ele>
        <time>2014-10-19T08:15:58.000Z</time>
      </trkpt>
      <trkpt lat="48.93666" lon="1.07024">
        <ele>176</ele>
        <time>2014-10-19T08:15:59.000Z</time>
      </trkpt>
      <trkpt lat="48.93669" lon="1.0703">
        <ele>176</ele>
        <time>2014-10-19T08:16:00.000Z</time>
      </trkpt>
      <trkpt lat="48.93673" lon="1.07034">
        <ele>176</ele>
        <time>2014-10-19T08:16:01.000Z</time>
      </trkpt>
      <trkpt lat="48.93676" lon="1.07038">
        <ele>176</ele>
        <time>2014-10-19T08:16:02.000Z</time>
      </trkpt>
      <trkpt lat="48.93698" lon="1.0705">
        <ele>173.60000610352</ele>
        <time>2014-10-19T08:16:09.000Z</time>
      </trkpt>
      <trkpt lat="48.93702" lon="1.07052">
        <ele>172.60000610352</ele>
        <time>2014-10-19T08:16:10.000Z</time>
      </trkpt>
      <trkpt lat="48.93704" lon="1.07053">
        <ele>172.60000610352</ele>
        <time>2014-10-19T08:16:11.000Z</time>
      </trkpt>
      <trkpt lat="48.93716" lon="1.07053">
        <ele>169.80000305176</ele>
        <time>2014-10-19T08:16:15.000Z</time>
      </trkpt>
      <trkpt lat="48.93746" lon="1.07037">
        <ele>166</ele>
        <time>2014-10-19T08:16:26.000Z</time>
      </trkpt>
      <trkpt lat="48.93752" lon="1.07032">
        <ele>166</ele>
        <time>2014-10-19T08:16:29.000Z</time>
      </trkpt>
      <trkpt lat="48.93756" lon="1.0703">
        <ele>165.39999389648</ele>
        <time>2014-10-19T08:16:30.000Z</time>
      </trkpt>
      <trkpt lat="48.93759" lon="1.07028">
        <ele>165.39999389648</ele>
        <time>2014-10-19T08:16:31.000Z</time>
      </trkpt>
      <trkpt lat="48.93762" lon="1.07026">
        <ele>165.39999389648</ele>
        <time>2014-10-19T08:16:32.000Z</time>
      </trkpt>
      <trkpt lat="48.93765" lon="1.07024">
        <ele>165.39999389648</ele>
        <time>2014-10-19T08:16:33.000Z</time>
      </trkpt>
      <trkpt lat="48.93768" lon="1.07023">
        <ele>165</ele>
        <time>2014-10-19T08:16:34.000Z</time>
      </trkpt>
      <trkpt lat="48.93771" lon="1.07021">
        <ele>165</ele>
        <time>2014-10-19T08:16:35.000Z</time>
      </trkpt>
      <trkpt lat="48.93809" lon="1.06998">
        <ele>161.19999694824</ele>
        <time>2014-10-19T08:16:47.000Z</time>
      </trkpt>
      <trkpt lat="48.93839" lon="1.06979">
        <ele>160.60000610352</ele>
        <time>2014-10-19T08:16:57.000Z</time>
      </trkpt>
      <trkpt lat="48.93847" lon="1.06971">
        <ele>161.19999694824</ele>
        <time>2014-10-19T08:16:59.000Z</time>
      </trkpt>
      <trkpt lat="48.93885" lon="1.06945">
        <ele>158.19999694824</ele>
        <time>2014-10-19T08:17:11.000Z</time>
      </trkpt>
      <trkpt lat="48.93913" lon="1.06927">
        <ele>156.39999389648</ele>
        <time>2014-10-19T08:17:22.000Z</time>
      </trkpt>
      <trkpt lat="48.93946" lon="1.06907">
        <ele>153</ele>
        <time>2014-10-19T08:17:34.000Z</time>
      </trkpt>
      <trkpt lat="48.93972" lon="1.06895">
        <ele>147.19999694824</ele>
        <time>2014-10-19T08:17:45.000Z</time>
      </trkpt>
      <trkpt lat="48.94006" lon="1.06875">
        <ele>146.19999694824</ele>
        <time>2014-10-19T08:17:57.000Z</time>
      </trkpt>
      <trkpt lat="48.94035" lon="1.06858">
        <ele>145.39999389648</ele>
        <time>2014-10-19T08:18:09.000Z</time>
      </trkpt>
      <trkpt lat="48.94044" lon="1.06853">
        <ele>145.39999389648</ele>
        <time>2014-10-19T08:18:13.000Z</time>
      </trkpt>
      <trkpt lat="48.94047" lon="1.06852">
        <ele>145.39999389648</ele>
        <time>2014-10-19T08:18:14.000Z</time>
      </trkpt>
      <trkpt lat="48.94055" lon="1.06844">
        <ele>144.80000305176</ele>
        <time>2014-10-19T08:18:22.000Z</time>
      </trkpt>
      <trkpt lat="48.94057" lon="1.06841">
        <ele>145.39999389648</ele>
        <time>2014-10-19T08:18:23.000Z</time>
      </trkpt>
      <trkpt lat="48.9405" lon="1.06837">
        <ele>147.60000610352</ele>
        <time>2014-10-19T08:18:29.000Z</time>
      </trkpt>
      <trkpt lat="48.94051" lon="1.06832">
        <ele>148.60000610352</ele>
        <time>2014-10-19T08:18:31.000Z</time>
      </trkpt>
      <trkpt lat="48.9405" lon="1.06828">
        <ele>149.19999694824</ele>
        <time>2014-10-19T08:18:33.000Z</time>
      </trkpt>
      <trkpt lat="48.94052" lon="1.06818">
        <ele>153.39999389648</ele>
        <time>2014-10-19T08:18:43.000Z</time>
      </trkpt>
      <trkpt lat="48.94056" lon="1.06828">
        <ele>153.39999389648</ele>
        <time>2014-10-19T08:18:48.000Z</time>
      </trkpt>
      <trkpt lat="48.94058" lon="1.06841">
        <ele>157.80000305176</ele>
        <time>2014-10-19T08:19:00.000Z</time>
      </trkpt>
      <trkpt lat="48.94062" lon="1.06846">
        <ele>157.39999389648</ele>
        <time>2014-10-19T08:19:06.000Z</time>
      </trkpt>
      <trkpt lat="48.94065" lon="1.06852">
        <ele>156.39999389648</ele>
        <time>2014-10-19T08:19:09.000Z</time>
      </trkpt>
      <trkpt lat="48.94069" lon="1.06865">
        <ele>153.39999389648</ele>
        <time>2014-10-19T08:19:19.000Z</time>
      </trkpt>
      <trkpt lat="48.94067" lon="1.06863">
        <ele>153</ele>
        <time>2014-10-19T08:19:21.000Z</time>
      </trkpt>
      <trkpt lat="48.94066" lon="1.06852">
        <ele>154</ele>
        <time>2014-10-19T08:19:32.000Z</time>
      </trkpt>
      <trkpt lat="48.9407" lon="1.06841">
        <ele>156.39999389648</ele>
        <time>2014-10-19T08:19:42.000Z</time>
      </trkpt>
      <trkpt lat="48.94066" lon="1.0683">
        <ele>155.39999389648</ele>
        <time>2014-10-19T08:19:52.000Z</time>
      </trkpt>
      <trkpt lat="48.94072" lon="1.06822">
        <ele>154.39999389648</ele>
        <time>2014-10-19T08:19:57.000Z</time>
      </trkpt>
      <trkpt lat="48.94074" lon="1.06821">
        <ele>154.39999389648</ele>
        <time>2014-10-19T08:19:58.000Z</time>
      </trkpt>
      <trkpt lat="48.94076" lon="1.0682">
        <ele>154.39999389648</ele>
        <time>2014-10-19T08:19:59.000Z</time>
      </trkpt>
      <trkpt lat="48.94078" lon="1.06818">
        <ele>154.39999389648</ele>
        <time>2014-10-19T08:20:00.000Z</time>
      </trkpt>
      <trkpt lat="48.9408" lon="1.06816">
        <ele>154.39999389648</ele>
        <time>2014-10-19T08:20:01.000Z</time>
      </trkpt>
      <trkpt lat="48.94082" lon="1.06814">
        <ele>154.39999389648</ele>
        <time>2014-10-19T08:20:02.000Z</time>
      </trkpt>
      <trkpt lat="48.94085" lon="1.06812">
        <ele>154</ele>
        <time>2014-10-19T08:20:03.000Z</time>
      </trkpt>
      <trkpt lat="48.94087" lon="1.06809">
        <ele>154</ele>
        <time>2014-10-19T08:20:04.000Z</time>
      </trkpt>
      <trkpt lat="48.9409" lon="1.06808">
        <ele>153.39999389648</ele>
        <time>2014-10-19T08:20:05.000Z</time>
      </trkpt>
      <trkpt lat="48.94092" lon="1.06807">
        <ele>153.39999389648</ele>
        <time>2014-10-19T08:20:06.000Z</time>
      </trkpt>
      <trkpt lat="48.94095" lon="1.06805">
        <ele>153.39999389648</ele>
        <time>2014-10-19T08:20:07.000Z</time>
      </trkpt>
      <trkpt lat="48.94128" lon="1.06781">
        <ele>155.39999389648</ele>
        <time>2014-10-19T08:20:18.000Z</time>
      </trkpt>
      <trkpt lat="48.94157" lon="1.06761">
        <ele>158.19999694824</ele>
        <time>2014-10-19T08:20:28.000Z</time>
      </trkpt>
      <trkpt lat="48.94188" lon="1.06735">
        <ele>159.80000305176</ele>
        <time>2014-10-19T08:20:40.000Z</time>
      </trkpt>
      <trkpt lat="48.94216" lon="1.06716">
        <ele>161.19999694824</ele>
        <time>2014-10-19T08:20:50.000Z</time>
      </trkpt>
      <trkpt lat="48.94218" lon="1.06717">
        <ele>161.60000610352</ele>
        <time>2014-10-19T08:20:51.000Z</time>
      </trkpt>
      <trkpt lat="48.94227" lon="1.06721">
        <ele>160.60000610352</ele>
        <time>2014-10-19T08:20:57.000Z</time>
      </trkpt>
      <trkpt lat="48.94232" lon="1.0672">
        <ele>159.80000305176</ele>
        <time>2014-10-19T08:21:00.000Z</time>
      </trkpt>
      <trkpt lat="48.94252" lon="1.06704">
        <ele>157.39999389648</ele>
        <time>2014-10-19T08:21:09.000Z</time>
      </trkpt>
      <trkpt lat="48.94284" lon="1.0668">
        <ele>156.80000305176</ele>
        <time>2014-10-19T08:21:21.000Z</time>
      </trkpt>
      <trkpt lat="48.94317" lon="1.06664">
        <ele>154.39999389648</ele>
        <time>2014-10-19T08:21:32.000Z</time>
      </trkpt>
      <trkpt lat="48.9437" lon="1.06615">
        <ele>159.80000305176</ele>
        <time>2014-10-19T08:21:43.000Z</time>
      </trkpt>
      <trkpt lat="48.94404" lon="1.06591">
        <ele>162.19999694824</ele>
        <time>2014-10-19T08:21:54.000Z</time>
      </trkpt>
      <trkpt lat="48.94435" lon="1.06567">
        <ele>167</ele>
        <time>2014-10-19T08:22:04.000Z</time>
      </trkpt>
      <trkpt lat="48.94482" lon="1.06534">
        <ele>171.80000305176</ele>
        <time>2014-10-19T08:22:18.000Z</time>
      </trkpt>
      <trkpt lat="48.94491" lon="1.06527">
        <ele>171.80000305176</ele>
        <time>2014-10-19T08:22:21.000Z</time>
      </trkpt>
      <trkpt lat="48.94493" lon="1.06525">
        <ele>171.19999694824</ele>
        <time>2014-10-19T08:22:22.000Z</time>
      </trkpt>
      <trkpt lat="48.94494" lon="1.06522">
        <ele>170.80000305176</ele>
        <time>2014-10-19T08:22:23.000Z</time>
      </trkpt>
      <trkpt lat="48.94495" lon="1.06517">
        <ele>170.19999694824</ele>
        <time>2014-10-19T08:22:24.000Z</time>
      </trkpt>
      <trkpt lat="48.94496" lon="1.06511">
        <ele>169.80000305176</ele>
        <time>2014-10-19T08:22:25.000Z</time>
      </trkpt>
      <trkpt lat="48.94505" lon="1.06463">
        <ele>167</ele>
        <time>2014-10-19T08:22:33.000Z</time>
      </trkpt>
      <trkpt lat="48.94507" lon="1.06457">
        <ele>166.39999389648</ele>
        <time>2014-10-19T08:22:34.000Z</time>
      </trkpt>
      <trkpt lat="48.9451" lon="1.06423">
        <ele>162.19999694824</ele>
        <time>2014-10-19T08:22:40.000Z</time>
      </trkpt>
      <trkpt lat="48.94511" lon="1.06416">
        <ele>160.60000610352</ele>
        <time>2014-10-19T08:22:42.000Z</time>
      </trkpt>
      <trkpt lat="48.9451" lon="1.06413">
        <ele>159.80000305176</ele>
        <time>2014-10-19T08:22:43.000Z</time>
      </trkpt>
      <trkpt lat="48.94509" lon="1.06409">
        <ele>159.19999694824</ele>
        <time>2014-10-19T08:22:44.000Z</time>
      </trkpt>
      <trkpt lat="48.94509" lon="1.06404">
        <ele>158.19999694824</ele>
        <time>2014-10-19T08:22:45.000Z</time>
      </trkpt>
      <trkpt lat="48.94509" lon="1.06399">
        <ele>157.39999389648</ele>
        <time>2014-10-19T08:22:46.000Z</time>
      </trkpt>
      <trkpt lat="48.94509" lon="1.06394">
        <ele>156.80000305176</ele>
        <time>2014-10-19T08:22:47.000Z</time>
      </trkpt>
      <trkpt lat="48.94509" lon="1.06388">
        <ele>155.80000305176</ele>
        <time>2014-10-19T08:22:48.000Z</time>
      </trkpt>
      <trkpt lat="48.94511" lon="1.06356">
        <ele>154</ele>
        <time>2014-10-19T08:22:54.000Z</time>
      </trkpt>
      <trkpt lat="48.94509" lon="1.06352">
        <ele>154</ele>
        <time>2014-10-19T08:22:55.000Z</time>
      </trkpt>
      <trkpt lat="48.94508" lon="1.06347">
        <ele>154</ele>
        <time>2014-10-19T08:22:56.000Z</time>
      </trkpt>
      <trkpt lat="48.94508" lon="1.06343">
        <ele>154</ele>
        <time>2014-10-19T08:22:57.000Z</time>
      </trkpt>
      <trkpt lat="48.94509" lon="1.06338">
        <ele>154</ele>
        <time>2014-10-19T08:22:58.000Z</time>
      </trkpt>
      <trkpt lat="48.94509" lon="1.06332">
        <ele>154</ele>
        <time>2014-10-19T08:22:59.000Z</time>
      </trkpt>
      <trkpt lat="48.94509" lon="1.06327">
        <ele>154</ele>
        <time>2014-10-19T08:23:00.000Z</time>
      </trkpt>
      <trkpt lat="48.94509" lon="1.06322">
        <ele>154</ele>
        <time>2014-10-19T08:23:01.000Z</time>
      </trkpt>
      <trkpt lat="48.9451" lon="1.06316">
        <ele>153.39999389648</ele>
        <time>2014-10-19T08:23:02.000Z</time>
      </trkpt>
      <trkpt lat="48.94515" lon="1.06259">
        <ele>152.60000610352</ele>
        <time>2014-10-19T08:23:12.000Z</time>
      </trkpt>
      <trkpt lat="48.94517" lon="1.06254">
        <ele>152.60000610352</ele>
        <time>2014-10-19T08:23:13.000Z</time>
      </trkpt>
      <trkpt lat="48.94518" lon="1.06249">
        <ele>152</ele>
        <time>2014-10-19T08:23:14.000Z</time>
      </trkpt>
      <trkpt lat="48.94519" lon="1.06244">
        <ele>152</ele>
        <time>2014-10-19T08:23:15.000Z</time>
      </trkpt>
      <trkpt lat="48.9452" lon="1.06238">
        <ele>152</ele>
        <time>2014-10-19T08:23:16.000Z</time>
      </trkpt>
      <trkpt lat="48.9452" lon="1.06234">
        <ele>152</ele>
        <time>2014-10-19T08:23:17.000Z</time>
      </trkpt>
      <trkpt lat="48.94521" lon="1.06229">
        <ele>152</ele>
        <time>2014-10-19T08:23:18.000Z</time>
      </trkpt>
      <trkpt lat="48.94522" lon="1.06224">
        <ele>152</ele>
        <time>2014-10-19T08:23:19.000Z</time>
      </trkpt>
      <trkpt lat="48.94523" lon="1.06219">
        <ele>152</ele>
        <time>2014-10-19T08:23:20.000Z</time>
      </trkpt>
      <trkpt lat="48.94524" lon="1.06213">
        <ele>151.60000610352</ele>
        <time>2014-10-19T08:23:21.000Z</time>
      </trkpt>
      <trkpt lat="48.94524" lon="1.06207">
        <ele>151.60000610352</ele>
        <time>2014-10-19T08:23:22.000Z</time>
      </trkpt>
      <trkpt lat="48.94525" lon="1.06202">
        <ele>151.60000610352</ele>
        <time>2014-10-19T08:23:23.000Z</time>
      </trkpt>
      <trkpt lat="48.94526" lon="1.06196">
        <ele>151.60000610352</ele>
        <time>2014-10-19T08:23:24.000Z</time>
      </trkpt>
      <trkpt lat="48.9453" lon="1.06165">
        <ele>151.60000610352</ele>
        <time>2014-10-19T08:23:29.000Z</time>
      </trkpt>
      <trkpt lat="48.9453" lon="1.06158">
        <ele>151.60000610352</ele>
        <time>2014-10-19T08:23:30.000Z</time>
      </trkpt>
      <trkpt lat="48.9453" lon="1.06129">
        <ele>150.19999694824</ele>
        <time>2014-10-19T08:23:34.000Z</time>
      </trkpt>
      <trkpt lat="48.94531" lon="1.06093">
        <ele>147.19999694824</ele>
        <time>2014-10-19T08:23:39.000Z</time>
      </trkpt>
      <trkpt lat="48.9453" lon="1.06086">
        <ele>146.80000305176</ele>
        <time>2014-10-19T08:23:40.000Z</time>
      </trkpt>
      <trkpt lat="48.94529" lon="1.06078">
        <ele>146.19999694824</ele>
        <time>2014-10-19T08:23:41.000Z</time>
      </trkpt>
      <trkpt lat="48.94528" lon="1.06063">
        <ele>144.80000305176</ele>
        <time>2014-10-19T08:23:43.000Z</time>
      </trkpt>
      <trkpt lat="48.94528" lon="1.06055">
        <ele>143.80000305176</ele>
        <time>2014-10-19T08:23:44.000Z</time>
      </trkpt>
      <trkpt lat="48.94529" lon="1.06046">
        <ele>143.39999389648</ele>
        <time>2014-10-19T08:23:45.000Z</time>
      </trkpt>
      <trkpt lat="48.94535" lon="1.05995">
        <ele>139.60000610352</ele>
        <time>2014-10-19T08:23:51.000Z</time>
      </trkpt>
      <trkpt lat="48.94535" lon="1.05987">
        <ele>139</ele>
        <time>2014-10-19T08:23:52.000Z</time>
      </trkpt>
      <trkpt lat="48.94534" lon="1.0597">
        <ele>137.60000610352</ele>
        <time>2014-10-19T08:23:54.000Z</time>
      </trkpt>
      <trkpt lat="48.94534" lon="1.05963">
        <ele>137.19999694824</ele>
        <time>2014-10-19T08:23:55.000Z</time>
      </trkpt>
      <trkpt lat="48.94534" lon="1.05954">
        <ele>136.19999694824</ele>
        <time>2014-10-19T08:23:56.000Z</time>
      </trkpt>
      <trkpt lat="48.94534" lon="1.05914">
        <ele>132.39999389648</ele>
        <time>2014-10-19T08:24:01.000Z</time>
      </trkpt>
      <trkpt lat="48.94533" lon="1.05905">
        <ele>131.80000305176</ele>
        <time>2014-10-19T08:24:02.000Z</time>
      </trkpt>
      <trkpt lat="48.94533" lon="1.05897">
        <ele>130.80000305176</ele>
        <time>2014-10-19T08:24:03.000Z</time>
      </trkpt>
      <trkpt lat="48.94533" lon="1.05889">
        <ele>130.39999389648</ele>
        <time>2014-10-19T08:24:04.000Z</time>
      </trkpt>
      <trkpt lat="48.94533" lon="1.05881">
        <ele>130</ele>
        <time>2014-10-19T08:24:05.000Z</time>
      </trkpt>
      <trkpt lat="48.94533" lon="1.05873">
        <ele>129.39999389648</ele>
        <time>2014-10-19T08:24:06.000Z</time>
      </trkpt>
      <trkpt lat="48.94534" lon="1.05804">
        <ele>123.59999847412</ele>
        <time>2014-10-19T08:24:15.000Z</time>
      </trkpt>
      <trkpt lat="48.94542" lon="1.05751">
        <ele>119.40000152588</ele>
        <time>2014-10-19T08:24:22.000Z</time>
      </trkpt>
      <trkpt lat="48.94543" lon="1.05742">
        <ele>118.80000305176</ele>
        <time>2014-10-19T08:24:23.000Z</time>
      </trkpt>
      <trkpt lat="48.94544" lon="1.05733">
        <ele>118.80000305176</ele>
        <time>2014-10-19T08:24:24.000Z</time>
      </trkpt>
      <trkpt lat="48.94547" lon="1.05715">
        <ele>118</ele>
        <time>2014-10-19T08:24:26.000Z</time>
      </trkpt>
      <trkpt lat="48.94549" lon="1.05706">
        <ele>118</ele>
        <time>2014-10-19T08:24:27.000Z</time>
      </trkpt>
      <trkpt lat="48.94553" lon="1.05679">
        <ele>118.40000152588</ele>
        <time>2014-10-19T08:24:30.000Z</time>
      </trkpt>
      <trkpt lat="48.94555" lon="1.05671">
        <ele>118.40000152588</ele>
        <time>2014-10-19T08:24:31.000Z</time>
      </trkpt>
      <trkpt lat="48.94559" lon="1.05646">
        <ele>118.80000305176</ele>
        <time>2014-10-19T08:24:34.000Z</time>
      </trkpt>
      <trkpt lat="48.94561" lon="1.05638">
        <ele>118.80000305176</ele>
        <time>2014-10-19T08:24:35.000Z</time>
      </trkpt>
      <trkpt lat="48.94566" lon="1.05595">
        <ele>118.80000305176</ele>
        <time>2014-10-19T08:24:43.000Z</time>
      </trkpt>
      <trkpt lat="48.94581" lon="1.05544">
        <ele>121.19999694824</ele>
        <time>2014-10-19T08:24:51.000Z</time>
      </trkpt>
      <trkpt lat="48.94583" lon="1.05529">
        <ele>121.80000305176</ele>
        <time>2014-10-19T08:24:53.000Z</time>
      </trkpt>
      <trkpt lat="48.94584" lon="1.05521">
        <ele>121.80000305176</ele>
        <time>2014-10-19T08:24:54.000Z</time>
      </trkpt>
      <trkpt lat="48.94585" lon="1.05513">
        <ele>121.80000305176</ele>
        <time>2014-10-19T08:24:55.000Z</time>
      </trkpt>
      <trkpt lat="48.94587" lon="1.05505">
        <ele>121.80000305176</ele>
        <time>2014-10-19T08:24:56.000Z</time>
      </trkpt>
      <trkpt lat="48.94587" lon="1.05497">
        <ele>121.80000305176</ele>
        <time>2014-10-19T08:24:57.000Z</time>
      </trkpt>
      <trkpt lat="48.94587" lon="1.0549">
        <ele>121.19999694824</ele>
        <time>2014-10-19T08:24:58.000Z</time>
      </trkpt>
      <trkpt lat="48.94586" lon="1.05483">
        <ele>120.80000305176</ele>
        <time>2014-10-19T08:24:59.000Z</time>
      </trkpt>
      <trkpt lat="48.94584" lon="1.05476">
        <ele>120.40000152588</ele>
        <time>2014-10-19T08:25:00.000Z</time>
      </trkpt>
      <trkpt lat="48.94582" lon="1.05469">
        <ele>119.80000305176</ele>
        <time>2014-10-19T08:25:01.000Z</time>
      </trkpt>
      <trkpt lat="48.94581" lon="1.05462">
        <ele>119.40000152588</ele>
        <time>2014-10-19T08:25:02.000Z</time>
      </trkpt>
      <trkpt lat="48.94577" lon="1.05445">
        <ele>118.40000152588</ele>
        <time>2014-10-19T08:25:04.000Z</time>
      </trkpt>
      <trkpt lat="48.94575" lon="1.05417">
        <ele>116.40000152588</ele>
        <time>2014-10-19T08:25:07.000Z</time>
      </trkpt>
      <trkpt lat="48.94575" lon="1.05398">
        <ele>115</ele>
        <time>2014-10-19T08:25:09.000Z</time>
      </trkpt>
      <trkpt lat="48.94569" lon="1.05358">
        <ele>112.19999694824</ele>
        <time>2014-10-19T08:25:13.000Z</time>
      </trkpt>
      <trkpt lat="48.94567" lon="1.05337">
        <ele>110.59999847412</ele>
        <time>2014-10-19T08:25:15.000Z</time>
      </trkpt>
      <trkpt lat="48.94565" lon="1.05327">
        <ele>110.19999694824</ele>
        <time>2014-10-19T08:25:16.000Z</time>
      </trkpt>
      <trkpt lat="48.94565" lon="1.05318">
        <ele>109.80000305176</ele>
        <time>2014-10-19T08:25:17.000Z</time>
      </trkpt>
      <trkpt lat="48.94564" lon="1.0529">
        <ele>107.80000305176</ele>
        <time>2014-10-19T08:25:20.000Z</time>
      </trkpt>
      <trkpt lat="48.94564" lon="1.05274">
        <ele>106.80000305176</ele>
        <time>2014-10-19T08:25:22.000Z</time>
      </trkpt>
      <trkpt lat="48.94565" lon="1.05266">
        <ele>106.40000152588</ele>
        <time>2014-10-19T08:25:23.000Z</time>
      </trkpt>
      <trkpt lat="48.94566" lon="1.05258">
        <ele>105.80000305176</ele>
        <time>2014-10-19T08:25:24.000Z</time>
      </trkpt>
      <trkpt lat="48.94566" lon="1.05252">
        <ele>105.80000305176</ele>
        <time>2014-10-19T08:25:25.000Z</time>
      </trkpt>
      <trkpt lat="48.94564" lon="1.05234">
        <ele>107.80000305176</ele>
        <time>2014-10-19T08:25:34.000Z</time>
      </trkpt>
      <trkpt lat="48.94564" lon="1.05226">
        <ele>109.80000305176</ele>
        <time>2014-10-19T08:25:39.000Z</time>
      </trkpt>
      <trkpt lat="48.94565" lon="1.05223">
        <ele>109.80000305176</ele>
        <time>2014-10-19T08:25:40.000Z</time>
      </trkpt>
      <trkpt lat="48.94565" lon="1.05219">
        <ele>109.80000305176</ele>
        <time>2014-10-19T08:25:41.000Z</time>
      </trkpt>
      <trkpt lat="48.94565" lon="1.05187">
        <ele>108.19999694824</ele>
        <time>2014-10-19T08:25:47.000Z</time>
      </trkpt>
      <trkpt lat="48.94567" lon="1.05184">
        <ele>108.19999694824</ele>
        <time>2014-10-19T08:25:48.000Z</time>
      </trkpt>
      <trkpt lat="48.9457" lon="1.05184">
        <ele>107.80000305176</ele>
        <time>2014-10-19T08:25:49.000Z</time>
      </trkpt>
      <trkpt lat="48.94572" lon="1.05187">
        <ele>107.80000305176</ele>
        <time>2014-10-19T08:25:50.000Z</time>
      </trkpt>
      <trkpt lat="48.94574" lon="1.05192">
        <ele>107.80000305176</ele>
        <time>2014-10-19T08:25:51.000Z</time>
      </trkpt>
      <trkpt lat="48.94575" lon="1.05196">
        <ele>107.40000152588</ele>
        <time>2014-10-19T08:25:52.000Z</time>
      </trkpt>
      <trkpt lat="48.9458" lon="1.0521">
        <ele>106.80000305176</ele>
        <time>2014-10-19T08:25:54.000Z</time>
      </trkpt>
      <trkpt lat="48.94584" lon="1.05218">
        <ele>106.40000152588</ele>
        <time>2014-10-19T08:25:55.000Z</time>
      </trkpt>
      <trkpt lat="48.94588" lon="1.05224">
        <ele>105.80000305176</ele>
        <time>2014-10-19T08:25:56.000Z</time>
      </trkpt>
      <trkpt lat="48.9459" lon="1.05229">
        <ele>105.80000305176</ele>
        <time>2014-10-19T08:25:57.000Z</time>
      </trkpt>
      <trkpt lat="48.94594" lon="1.05237">
        <ele>105.40000152588</ele>
        <time>2014-10-19T08:25:58.000Z</time>
      </trkpt>
      <trkpt lat="48.94596" lon="1.05246">
        <ele>105</ele>
        <time>2014-10-19T08:25:59.000Z</time>
      </trkpt>
      <trkpt lat="48.94603" lon="1.05267">
        <ele>104</ele>
        <time>2014-10-19T08:26:02.000Z</time>
      </trkpt>
      <trkpt lat="48.94615" lon="1.05295">
        <ele>103.40000152588</ele>
        <time>2014-10-19T08:26:07.000Z</time>
      </trkpt>
      <trkpt lat="48.94617" lon="1.053">
        <ele>103.40000152588</ele>
        <time>2014-10-19T08:26:08.000Z</time>
      </trkpt>
      <trkpt lat="48.9462" lon="1.05306">
        <ele>103.40000152588</ele>
        <time>2014-10-19T08:26:09.000Z</time>
      </trkpt>
      <trkpt lat="48.94638" lon="1.05341">
        <ele>105</ele>
        <time>2014-10-19T08:26:19.000Z</time>
      </trkpt>
      <trkpt lat="48.94657" lon="1.05378">
        <ele>105</ele>
        <time>2014-10-19T08:26:30.000Z</time>
      </trkpt>
      <trkpt lat="48.94674" lon="1.05409">
        <ele>104.40000152588</ele>
        <time>2014-10-19T08:26:39.000Z</time>
      </trkpt>
      <trkpt lat="48.94677" lon="1.05412">
        <ele>104</ele>
        <time>2014-10-19T08:26:40.000Z</time>
      </trkpt>
      <trkpt lat="48.94679" lon="1.05415">
        <ele>104</ele>
        <time>2014-10-19T08:26:41.000Z</time>
      </trkpt>
      <trkpt lat="48.94681" lon="1.05418">
        <ele>103.40000152588</ele>
        <time>2014-10-19T08:26:42.000Z</time>
      </trkpt>
      <trkpt lat="48.94683" lon="1.05421">
        <ele>103.40000152588</ele>
        <time>2014-10-19T08:26:43.000Z</time>
      </trkpt>
      <trkpt lat="48.94704" lon="1.0544">
        <ele>106.80000305176</ele>
        <time>2014-10-19T08:26:53.000Z</time>
      </trkpt>
      <trkpt lat="48.94707" lon="1.05441">
        <ele>107.80000305176</ele>
        <time>2014-10-19T08:26:54.000Z</time>
      </trkpt>
      <trkpt lat="48.94709" lon="1.05444">
        <ele>108.19999694824</ele>
        <time>2014-10-19T08:26:55.000Z</time>
      </trkpt>
      <trkpt lat="48.94711" lon="1.05446">
        <ele>108.80000305176</ele>
        <time>2014-10-19T08:26:56.000Z</time>
      </trkpt>
      <trkpt lat="48.94713" lon="1.05448">
        <ele>109.80000305176</ele>
        <time>2014-10-19T08:26:57.000Z</time>
      </trkpt>
      <trkpt lat="48.94716" lon="1.05449">
        <ele>110.19999694824</ele>
        <time>2014-10-19T08:26:58.000Z</time>
      </trkpt>
      <trkpt lat="48.94718" lon="1.0545">
        <ele>111.19999694824</ele>
        <time>2014-10-19T08:26:59.000Z</time>
      </trkpt>
      <trkpt lat="48.94749" lon="1.05479">
        <ele>116</ele>
        <time>2014-10-19T08:27:11.000Z</time>
      </trkpt>
      <trkpt lat="48.94751" lon="1.05483">
        <ele>116</ele>
        <time>2014-10-19T08:27:12.000Z</time>
      </trkpt>
      <trkpt lat="48.9477" lon="1.05509">
        <ele>117</ele>
        <time>2014-10-19T08:27:22.000Z</time>
      </trkpt>
      <trkpt lat="48.94784" lon="1.05529">
        <ele>118.40000152588</ele>
        <time>2014-10-19T08:27:28.000Z</time>
      </trkpt>
      <trkpt lat="48.94787" lon="1.0553">
        <ele>119.40000152588</ele>
        <time>2014-10-19T08:27:29.000Z</time>
      </trkpt>
      <trkpt lat="48.94812" lon="1.05548">
        <ele>121.80000305176</ele>
        <time>2014-10-19T08:27:38.000Z</time>
      </trkpt>
      <trkpt lat="48.94815" lon="1.05549">
        <ele>122.19999694824</ele>
        <time>2014-10-19T08:27:39.000Z</time>
      </trkpt>
      <trkpt lat="48.94818" lon="1.05551">
        <ele>122.80000305176</ele>
        <time>2014-10-19T08:27:40.000Z</time>
      </trkpt>
      <trkpt lat="48.94841" lon="1.05575">
        <ele>126.59999847412</ele>
        <time>2014-10-19T08:27:48.000Z</time>
      </trkpt>
      <trkpt lat="48.94843" lon="1.05576">
        <ele>127</ele>
        <time>2014-10-19T08:27:49.000Z</time>
      </trkpt>
      <trkpt lat="48.94846" lon="1.05578">
        <ele>127</ele>
        <time>2014-10-19T08:27:50.000Z</time>
      </trkpt>
      <trkpt lat="48.94848" lon="1.05581">
        <ele>127</ele>
        <time>2014-10-19T08:27:51.000Z</time>
      </trkpt>
      <trkpt lat="48.9485" lon="1.05583">
        <ele>127</ele>
        <time>2014-10-19T08:27:52.000Z</time>
      </trkpt>
      <trkpt lat="48.94852" lon="1.05585">
        <ele>127</ele>
        <time>2014-10-19T08:27:53.000Z</time>
      </trkpt>
      <trkpt lat="48.94854" lon="1.05585">
        <ele>127</ele>
        <time>2014-10-19T08:27:54.000Z</time>
      </trkpt>
      <trkpt lat="48.94857" lon="1.05586">
        <ele>126.59999847412</ele>
        <time>2014-10-19T08:27:55.000Z</time>
      </trkpt>
      <trkpt lat="48.94891" lon="1.05599">
        <ele>127</ele>
        <time>2014-10-19T08:28:04.000Z</time>
      </trkpt>
      <trkpt lat="48.9494" lon="1.05604">
        <ele>127.59999847412</ele>
        <time>2014-10-19T08:28:12.000Z</time>
      </trkpt>
      <trkpt lat="48.94957" lon="1.05608">
        <ele>127</ele>
        <time>2014-10-19T08:28:15.000Z</time>
      </trkpt>
      <trkpt lat="48.94962" lon="1.0561">
        <ele>127</ele>
        <time>2014-10-19T08:28:16.000Z</time>
      </trkpt>
      <trkpt lat="48.94967" lon="1.05612">
        <ele>127</ele>
        <time>2014-10-19T08:28:17.000Z</time>
      </trkpt>
      <trkpt lat="48.94972" lon="1.05614">
        <ele>126.59999847412</ele>
        <time>2014-10-19T08:28:18.000Z</time>
      </trkpt>
      <trkpt lat="48.94976" lon="1.05615">
        <ele>127</ele>
        <time>2014-10-19T08:28:19.000Z</time>
      </trkpt>
      <trkpt lat="48.9498" lon="1.05615">
        <ele>127</ele>
        <time>2014-10-19T08:28:20.000Z</time>
      </trkpt>
      <trkpt lat="48.94985" lon="1.05616">
        <ele>126.59999847412</ele>
        <time>2014-10-19T08:28:21.000Z</time>
      </trkpt>
      <trkpt lat="48.94988" lon="1.05616">
        <ele>126.59999847412</ele>
        <time>2014-10-19T08:28:22.000Z</time>
      </trkpt>
      <trkpt lat="48.9503" lon="1.05622">
        <ele>126.59999847412</ele>
        <time>2014-10-19T08:28:32.000Z</time>
      </trkpt>
      <trkpt lat="48.95036" lon="1.05623">
        <ele>126.59999847412</ele>
        <time>2014-10-19T08:28:33.000Z</time>
      </trkpt>
      <trkpt lat="48.95041" lon="1.05625">
        <ele>127</ele>
        <time>2014-10-19T08:28:34.000Z</time>
      </trkpt>
      <trkpt lat="48.95078" lon="1.05631">
        <ele>127</ele>
        <time>2014-10-19T08:28:45.000Z</time>
      </trkpt>
      <trkpt lat="48.95101" lon="1.05633">
        <ele>126.59999847412</ele>
        <time>2014-10-19T08:28:55.000Z</time>
      </trkpt>
      <trkpt lat="48.95131" lon="1.05623">
        <ele>124.59999847412</ele>
        <time>2014-10-19T08:29:07.000Z</time>
      </trkpt>
      <trkpt lat="48.95139" lon="1.05618">
        <ele>124.19999694824</ele>
        <time>2014-10-19T08:29:12.000Z</time>
      </trkpt>
      <trkpt lat="48.95141" lon="1.05615">
        <ele>124.19999694824</ele>
        <time>2014-10-19T08:29:13.000Z</time>
      </trkpt>
      <trkpt lat="48.95142" lon="1.05614">
        <ele>124.19999694824</ele>
        <time>2014-10-19T08:29:14.000Z</time>
      </trkpt>
      <trkpt lat="48.95144" lon="1.05612">
        <ele>124.19999694824</ele>
        <time>2014-10-19T08:29:15.000Z</time>
      </trkpt>
      <trkpt lat="48.95146" lon="1.0561">
        <ele>124.19999694824</ele>
        <time>2014-10-19T08:29:16.000Z</time>
      </trkpt>
      <trkpt lat="48.95148" lon="1.05609">
        <ele>124.19999694824</ele>
        <time>2014-10-19T08:29:17.000Z</time>
      </trkpt>
      <trkpt lat="48.95177" lon="1.05588">
        <ele>123.19999694824</ele>
        <time>2014-10-19T08:29:28.000Z</time>
      </trkpt>
      <trkpt lat="48.95181" lon="1.05586">
        <ele>123.19999694824</ele>
        <time>2014-10-19T08:29:31.000Z</time>
      </trkpt>
      <trkpt lat="48.95183" lon="1.05585">
        <ele>123.19999694824</ele>
        <time>2014-10-19T08:29:32.000Z</time>
      </trkpt>
      <trkpt lat="48.95184" lon="1.05584">
        <ele>122.80000305176</ele>
        <time>2014-10-19T08:29:33.000Z</time>
      </trkpt>
      <trkpt lat="48.95185" lon="1.05583">
        <ele>122.80000305176</ele>
        <time>2014-10-19T08:29:34.000Z</time>
      </trkpt>
      <trkpt lat="48.95197" lon="1.05575">
        <ele>121.80000305176</ele>
        <time>2014-10-19T08:29:45.000Z</time>
      </trkpt>
      <trkpt lat="48.95198" lon="1.05573">
        <ele>121.80000305176</ele>
        <time>2014-10-19T08:29:46.000Z</time>
      </trkpt>
      <trkpt lat="48.952" lon="1.05572">
        <ele>121.80000305176</ele>
        <time>2014-10-19T08:29:47.000Z</time>
      </trkpt>
      <trkpt lat="48.95202" lon="1.0557">
        <ele>121.80000305176</ele>
        <time>2014-10-19T08:29:48.000Z</time>
      </trkpt>
      <trkpt lat="48.95203" lon="1.05569">
        <ele>121.80000305176</ele>
        <time>2014-10-19T08:29:49.000Z</time>
      </trkpt>
      <trkpt lat="48.95221" lon="1.05556">
        <ele>121.80000305176</ele>
        <time>2014-10-19T08:30:02.000Z</time>
      </trkpt>
      <trkpt lat="48.9523" lon="1.05543">
        <ele>121.19999694824</ele>
        <time>2014-10-19T08:30:11.000Z</time>
      </trkpt>
      <trkpt lat="48.95231" lon="1.05541">
        <ele>120.80000305176</ele>
        <time>2014-10-19T08:30:12.000Z</time>
      </trkpt>
      <trkpt lat="48.95232" lon="1.05538">
        <ele>120.80000305176</ele>
        <time>2014-10-19T08:30:13.000Z</time>
      </trkpt>
      <trkpt lat="48.95234" lon="1.05533">
        <ele>121.19999694824</ele>
        <time>2014-10-19T08:30:15.000Z</time>
      </trkpt>
      <trkpt lat="48.95235" lon="1.0553">
        <ele>121.19999694824</ele>
        <time>2014-10-19T08:30:16.000Z</time>
      </trkpt>
      <trkpt lat="48.95245" lon="1.05482">
        <ele>121.19999694824</ele>
        <time>2014-10-19T08:30:26.000Z</time>
      </trkpt>
      <trkpt lat="48.95247" lon="1.05475">
        <ele>121.19999694824</ele>
        <time>2014-10-19T08:30:27.000Z</time>
      </trkpt>
      <trkpt lat="48.9525" lon="1.05462">
        <ele>121.19999694824</ele>
        <time>2014-10-19T08:30:29.000Z</time>
      </trkpt>
      <trkpt lat="48.95255" lon="1.05439">
        <ele>120.80000305176</ele>
        <time>2014-10-19T08:30:32.000Z</time>
      </trkpt>
      <trkpt lat="48.95257" lon="1.05431">
        <ele>120.40000152588</ele>
        <time>2014-10-19T08:30:33.000Z</time>
      </trkpt>
      <trkpt lat="48.95281" lon="1.05367">
        <ele>117.40000152588</ele>
        <time>2014-10-19T08:30:46.000Z</time>
      </trkpt>
      <trkpt lat="48.95301" lon="1.05325">
        <ele>115.59999847412</ele>
        <time>2014-10-19T08:30:58.000Z</time>
      </trkpt>
      <trkpt lat="48.95318" lon="1.05289">
        <ele>113.59999847412</ele>
        <time>2014-10-19T08:31:11.000Z</time>
      </trkpt>
      <trkpt lat="48.95333" lon="1.05248">
        <ele>112.19999694824</ele>
        <time>2014-10-19T08:31:24.000Z</time>
      </trkpt>
      <trkpt lat="48.9535" lon="1.05213">
        <ele>109.80000305176</ele>
        <time>2014-10-19T08:31:36.000Z</time>
      </trkpt>
      <trkpt lat="48.95353" lon="1.05206">
        <ele>109.19999694824</ele>
        <time>2014-10-19T08:31:39.000Z</time>
      </trkpt>
      <trkpt lat="48.95353" lon="1.05204">
        <ele>109.19999694824</ele>
        <time>2014-10-19T08:31:40.000Z</time>
      </trkpt>
      <trkpt lat="48.95354" lon="1.05202">
        <ele>109.19999694824</ele>
        <time>2014-10-19T08:31:41.000Z</time>
      </trkpt>
      <trkpt lat="48.95354" lon="1.05201">
        <ele>109.19999694824</ele>
        <time>2014-10-19T08:31:42.000Z</time>
      </trkpt>
      <trkpt lat="48.95355" lon="1.05199">
        <ele>109.19999694824</ele>
        <time>2014-10-19T08:31:43.000Z</time>
      </trkpt>
      <trkpt lat="48.95356" lon="1.05196">
        <ele>109.19999694824</ele>
        <time>2014-10-19T08:31:45.000Z</time>
      </trkpt>
      <trkpt lat="48.95358" lon="1.05192">
        <ele>108.80000305176</ele>
        <time>2014-10-19T08:31:47.000Z</time>
      </trkpt>
      <trkpt lat="48.95358" lon="1.0519">
        <ele>108.80000305176</ele>
        <time>2014-10-19T08:31:48.000Z</time>
      </trkpt>
      <trkpt lat="48.95359" lon="1.05188">
        <ele>108.80000305176</ele>
        <time>2014-10-19T08:31:49.000Z</time>
      </trkpt>
      <trkpt lat="48.95359" lon="1.05185">
        <ele>108.80000305176</ele>
        <time>2014-10-19T08:31:50.000Z</time>
      </trkpt>
      <trkpt lat="48.9536" lon="1.05182">
        <ele>108.80000305176</ele>
        <time>2014-10-19T08:31:51.000Z</time>
      </trkpt>
      <trkpt lat="48.95361" lon="1.05179">
        <ele>108.80000305176</ele>
        <time>2014-10-19T08:31:52.000Z</time>
      </trkpt>
      <trkpt lat="48.95361" lon="1.05176">
        <ele>108.19999694824</ele>
        <time>2014-10-19T08:31:53.000Z</time>
      </trkpt>
      <trkpt lat="48.95362" lon="1.05173">
        <ele>108.19999694824</ele>
        <time>2014-10-19T08:31:54.000Z</time>
      </trkpt>
      <trkpt lat="48.95363" lon="1.0517">
        <ele>108.19999694824</ele>
        <time>2014-10-19T08:31:55.000Z</time>
      </trkpt>
      <trkpt lat="48.95364" lon="1.05167">
        <ele>108.19999694824</ele>
        <time>2014-10-19T08:31:56.000Z</time>
      </trkpt>
      <trkpt lat="48.95364" lon="1.05164">
        <ele>108.19999694824</ele>
        <time>2014-10-19T08:31:57.000Z</time>
      </trkpt>
      <trkpt lat="48.95364" lon="1.05161">
        <ele>107.80000305176</ele>
        <time>2014-10-19T08:31:58.000Z</time>
      </trkpt>
      <trkpt lat="48.95365" lon="1.05157">
        <ele>107.40000152588</ele>
        <time>2014-10-19T08:31:59.000Z</time>
      </trkpt>
      <trkpt lat="48.95365" lon="1.05154">
        <ele>107.40000152588</ele>
        <time>2014-10-19T08:32:00.000Z</time>
      </trkpt>
      <trkpt lat="48.95366" lon="1.05151">
        <ele>107.40000152588</ele>
        <time>2014-10-19T08:32:01.000Z</time>
      </trkpt>
      <trkpt lat="48.95366" lon="1.05148">
        <ele>106.80000305176</ele>
        <time>2014-10-19T08:32:02.000Z</time>
      </trkpt>
      <trkpt lat="48.95367" lon="1.05144">
        <ele>106.80000305176</ele>
        <time>2014-10-19T08:32:03.000Z</time>
      </trkpt>
      <trkpt lat="48.9537" lon="1.05135">
        <ele>106.80000305176</ele>
        <time>2014-10-19T08:32:06.000Z</time>
      </trkpt>
      <trkpt lat="48.9537" lon="1.05132">
        <ele>106.80000305176</ele>
        <time>2014-10-19T08:32:07.000Z</time>
      </trkpt>
      <trkpt lat="48.95371" lon="1.05129">
        <ele>106.80000305176</ele>
        <time>2014-10-19T08:32:08.000Z</time>
      </trkpt>
      <trkpt lat="48.95371" lon="1.05126">
        <ele>106.80000305176</ele>
        <time>2014-10-19T08:32:09.000Z</time>
      </trkpt>
      <trkpt lat="48.95372" lon="1.05124">
        <ele>106.40000152588</ele>
        <time>2014-10-19T08:32:10.000Z</time>
      </trkpt>
      <trkpt lat="48.95372" lon="1.0512">
        <ele>106.40000152588</ele>
        <time>2014-10-19T08:32:11.000Z</time>
      </trkpt>
      <trkpt lat="48.95373" lon="1.05117">
        <ele>106.40000152588</ele>
        <time>2014-10-19T08:32:12.000Z</time>
      </trkpt>
      <trkpt lat="48.95374" lon="1.05113">
        <ele>106.40000152588</ele>
        <time>2014-10-19T08:32:13.000Z</time>
      </trkpt>
      <trkpt lat="48.95389" lon="1.05068">
        <ele>105.80000305176</ele>
        <time>2014-10-19T08:32:25.000Z</time>
      </trkpt>
      <trkpt lat="48.95402" lon="1.05016">
        <ele>103.40000152588</ele>
        <time>2014-10-19T08:32:36.000Z</time>
      </trkpt>
      <trkpt lat="48.95424" lon="1.04961">
        <ele>100.59999847412</ele>
        <time>2014-10-19T08:32:49.000Z</time>
      </trkpt>
      <trkpt lat="48.95442" lon="1.04909">
        <ele>97.800003051758</ele>
        <time>2014-10-19T08:33:02.000Z</time>
      </trkpt>
      <trkpt lat="48.95462" lon="1.04852">
        <ele>95.800003051758</ele>
        <time>2014-10-19T08:33:16.000Z</time>
      </trkpt>
      <trkpt lat="48.95476" lon="1.04822">
        <ele>95.800003051758</ele>
        <time>2014-10-19T08:33:26.000Z</time>
      </trkpt>
      <trkpt lat="48.9549" lon="1.0478">
        <ele>95.800003051758</ele>
        <time>2014-10-19T08:33:39.000Z</time>
      </trkpt>
      <trkpt lat="48.95503" lon="1.04735">
        <ele>96.800003051758</ele>
        <time>2014-10-19T08:33:53.000Z</time>
      </trkpt>
      <trkpt lat="48.95507" lon="1.04729">
        <ele>96.800003051758</ele>
        <time>2014-10-19T08:33:55.000Z</time>
      </trkpt>
      <trkpt lat="48.95509" lon="1.04728">
        <ele>96.800003051758</ele>
        <time>2014-10-19T08:33:56.000Z</time>
      </trkpt>
      <trkpt lat="48.95515" lon="1.04724">
        <ele>97.199996948242</ele>
        <time>2014-10-19T08:34:00.000Z</time>
      </trkpt>
      <trkpt lat="48.95516" lon="1.04723">
        <ele>97.199996948242</ele>
        <time>2014-10-19T08:34:01.000Z</time>
      </trkpt>
      <trkpt lat="48.95517" lon="1.04721">
        <ele>97.199996948242</ele>
        <time>2014-10-19T08:34:02.000Z</time>
      </trkpt>
      <trkpt lat="48.95534" lon="1.04705">
        <ele>97.800003051758</ele>
        <time>2014-10-19T08:34:14.000Z</time>
      </trkpt>
      <trkpt lat="48.95537" lon="1.04702">
        <ele>97.800003051758</ele>
        <time>2014-10-19T08:34:16.000Z</time>
      </trkpt>
      <trkpt lat="48.95539" lon="1.04701">
        <ele>97.800003051758</ele>
        <time>2014-10-19T08:34:17.000Z</time>
      </trkpt>
      <trkpt lat="48.9554" lon="1.047">
        <ele>97.800003051758</ele>
        <time>2014-10-19T08:34:18.000Z</time>
      </trkpt>
      <trkpt lat="48.95552" lon="1.04693">
        <ele>98.199996948242</ele>
        <time>2014-10-19T08:34:26.000Z</time>
      </trkpt>
      <trkpt lat="48.95553" lon="1.04692">
        <ele>98.599998474121</ele>
        <time>2014-10-19T08:34:27.000Z</time>
      </trkpt>
      <trkpt lat="48.95554" lon="1.04691">
        <ele>99.199996948242</ele>
        <time>2014-10-19T08:34:28.000Z</time>
      </trkpt>
      <trkpt lat="48.95555" lon="1.0469">
        <ele>99.599998474121</ele>
        <time>2014-10-19T08:34:29.000Z</time>
      </trkpt>
      <trkpt lat="48.95556" lon="1.04689">
        <ele>100.19999694824</ele>
        <time>2014-10-19T08:34:30.000Z</time>
      </trkpt>
      <trkpt lat="48.95558" lon="1.04688">
        <ele>100.59999847412</ele>
        <time>2014-10-19T08:34:31.000Z</time>
      </trkpt>
      <trkpt lat="48.95559" lon="1.04688">
        <ele>101</ele>
        <time>2014-10-19T08:34:32.000Z</time>
      </trkpt>
      <trkpt lat="48.9556" lon="1.04687">
        <ele>101.59999847412</ele>
        <time>2014-10-19T08:34:33.000Z</time>
      </trkpt>
      <trkpt lat="48.95561" lon="1.04687">
        <ele>101.59999847412</ele>
        <time>2014-10-19T08:34:34.000Z</time>
      </trkpt>
      <trkpt lat="48.95575" lon="1.04684">
        <ele>105.40000152588</ele>
        <time>2014-10-19T08:34:44.000Z</time>
      </trkpt>
      <trkpt lat="48.95581" lon="1.04685">
        <ele>108.19999694824</ele>
        <time>2014-10-19T08:34:48.000Z</time>
      </trkpt>
      <trkpt lat="48.95584" lon="1.04685">
        <ele>109.19999694824</ele>
        <time>2014-10-19T08:34:50.000Z</time>
      </trkpt>
      <trkpt lat="48.95598" lon="1.04696">
        <ele>110.59999847412</ele>
        <time>2014-10-19T08:35:02.000Z</time>
      </trkpt>
      <trkpt lat="48.95609" lon="1.04706">
        <ele>112.59999847412</ele>
        <time>2014-10-19T08:35:13.000Z</time>
      </trkpt>
      <trkpt lat="48.95624" lon="1.04718">
        <ele>117</ele>
        <time>2014-10-19T08:35:28.000Z</time>
      </trkpt>
      <trkpt lat="48.95635" lon="1.04724">
        <ele>118.80000305176</ele>
        <time>2014-10-19T08:35:41.000Z</time>
      </trkpt>
      <trkpt lat="48.95639" lon="1.04725">
        <ele>121.80000305176</ele>
        <time>2014-10-19T08:36:09.000Z</time>
      </trkpt>
      <trkpt lat="48.95647" lon="1.04738">
        <ele>124.59999847412</ele>
        <time>2014-10-19T08:36:20.000Z</time>
      </trkpt>
      <trkpt lat="48.95658" lon="1.04757">
        <ele>129.39999389648</ele>
        <time>2014-10-19T08:36:34.000Z</time>
      </trkpt>
      <trkpt lat="48.95671" lon="1.04774">
        <ele>134.19999694824</ele>
        <time>2014-10-19T08:36:48.000Z</time>
      </trkpt>
      <trkpt lat="48.95682" lon="1.0479">
        <ele>141</ele>
        <time>2014-10-19T08:37:00.000Z</time>
      </trkpt>
      <trkpt lat="48.95682" lon="1.04796">
        <ele>140.39999389648</ele>
        <time>2014-10-19T08:37:02.000Z</time>
      </trkpt>
      <trkpt lat="48.95685" lon="1.0481">
        <ele>141</ele>
        <time>2014-10-19T08:37:07.000Z</time>
      </trkpt>
      <trkpt lat="48.95685" lon="1.04813">
        <ele>141.39999389648</ele>
        <time>2014-10-19T08:37:08.000Z</time>
      </trkpt>
      <trkpt lat="48.95676" lon="1.04835">
        <ele>144.80000305176</ele>
        <time>2014-10-19T08:37:19.000Z</time>
      </trkpt>
      <trkpt lat="48.95669" lon="1.04856">
        <ele>148.19999694824</ele>
        <time>2014-10-19T08:37:33.000Z</time>
      </trkpt>
      <trkpt lat="48.95665" lon="1.04876">
        <ele>153.39999389648</ele>
        <time>2014-10-19T08:37:47.000Z</time>
      </trkpt>
      <trkpt lat="48.95663" lon="1.04903">
        <ele>155.80000305176</ele>
        <time>2014-10-19T08:38:02.000Z</time>
      </trkpt>
      <trkpt lat="48.95659" lon="1.0493">
        <ele>153.39999389648</ele>
        <time>2014-10-19T08:38:16.000Z</time>
      </trkpt>
      <trkpt lat="48.95651" lon="1.04945">
        <ele>151.60000610352</ele>
        <time>2014-10-19T08:38:26.000Z</time>
      </trkpt>
      <trkpt lat="48.95645" lon="1.04967">
        <ele>150.60000610352</ele>
        <time>2014-10-19T08:38:39.000Z</time>
      </trkpt>
      <trkpt lat="48.9564" lon="1.04993">
        <ele>155</ele>
        <time>2014-10-19T08:38:53.000Z</time>
      </trkpt>
      <trkpt lat="48.95638" lon="1.05025">
        <ele>162.60000610352</ele>
        <time>2014-10-19T08:39:08.000Z</time>
      </trkpt>
      <trkpt lat="48.95642" lon="1.05058">
        <ele>164.60000610352</ele>
        <time>2014-10-19T08:39:23.000Z</time>
      </trkpt>
      <trkpt lat="48.95643" lon="1.05093">
        <ele>163.60000610352</ele>
        <time>2014-10-19T08:39:36.000Z</time>
      </trkpt>
      <trkpt lat="48.95642" lon="1.05099">
        <ele>163.60000610352</ele>
        <time>2014-10-19T08:39:38.000Z</time>
      </trkpt>
      <trkpt lat="48.9564" lon="1.05113">
        <ele>162.60000610352</ele>
        <time>2014-10-19T08:39:42.000Z</time>
      </trkpt>
      <trkpt lat="48.9564" lon="1.05116">
        <ele>162.19999694824</ele>
        <time>2014-10-19T08:39:43.000Z</time>
      </trkpt>
      <trkpt lat="48.9564" lon="1.05119">
        <ele>162.19999694824</ele>
        <time>2014-10-19T08:39:44.000Z</time>
      </trkpt>
      <trkpt lat="48.9564" lon="1.05122">
        <ele>162.19999694824</ele>
        <time>2014-10-19T08:39:45.000Z</time>
      </trkpt>
      <trkpt lat="48.95639" lon="1.05125">
        <ele>162.19999694824</ele>
        <time>2014-10-19T08:39:46.000Z</time>
      </trkpt>
      <trkpt lat="48.95639" lon="1.05129">
        <ele>160.19999694824</ele>
        <time>2014-10-19T08:39:47.000Z</time>
      </trkpt>
      <trkpt lat="48.95639" lon="1.05132">
        <ele>159.80000305176</ele>
        <time>2014-10-19T08:39:48.000Z</time>
      </trkpt>
      <trkpt lat="48.95639" lon="1.05136">
        <ele>158.80000305176</ele>
        <time>2014-10-19T08:39:49.000Z</time>
      </trkpt>
      <trkpt lat="48.95639" lon="1.05139">
        <ele>158.19999694824</ele>
        <time>2014-10-19T08:39:50.000Z</time>
      </trkpt>
      <trkpt lat="48.95637" lon="1.05143">
        <ele>158.19999694824</ele>
        <time>2014-10-19T08:39:52.000Z</time>
      </trkpt>
      <trkpt lat="48.95636" lon="1.05146">
        <ele>158.80000305176</ele>
        <time>2014-10-19T08:39:53.000Z</time>
      </trkpt>
      <trkpt lat="48.95635" lon="1.05147">
        <ele>158.80000305176</ele>
        <time>2014-10-19T08:39:54.000Z</time>
      </trkpt>
      <trkpt lat="48.95634" lon="1.05179">
        <ele>158.80000305176</ele>
        <time>2014-10-19T08:40:06.000Z</time>
      </trkpt>
      <trkpt lat="48.95635" lon="1.05195">
        <ele>159.80000305176</ele>
        <time>2014-10-19T08:40:14.000Z</time>
      </trkpt>
      <trkpt lat="48.95637" lon="1.05211">
        <ele>160.19999694824</ele>
        <time>2014-10-19T08:40:23.000Z</time>
      </trkpt>
      <trkpt lat="48.95639" lon="1.05216">
        <ele>160.19999694824</ele>
        <time>2014-10-19T08:40:26.000Z</time>
      </trkpt>
      <trkpt lat="48.9564" lon="1.05219">
        <ele>160.60000610352</ele>
        <time>2014-10-19T08:40:27.000Z</time>
      </trkpt>
      <trkpt lat="48.95641" lon="1.05222">
        <ele>160.19999694824</ele>
        <time>2014-10-19T08:40:28.000Z</time>
      </trkpt>
      <trkpt lat="48.95651" lon="1.05252">
        <ele>161.60000610352</ele>
        <time>2014-10-19T08:40:40.000Z</time>
      </trkpt>
      <trkpt lat="48.95652" lon="1.05255">
        <ele>161.60000610352</ele>
        <time>2014-10-19T08:40:41.000Z</time>
      </trkpt>
      <trkpt lat="48.95652" lon="1.05258">
        <ele>161.60000610352</ele>
        <time>2014-10-19T08:40:42.000Z</time>
      </trkpt>
      <trkpt lat="48.95653" lon="1.05261">
        <ele>161.60000610352</ele>
        <time>2014-10-19T08:40:43.000Z</time>
      </trkpt>
      <trkpt lat="48.95654" lon="1.05264">
        <ele>161.60000610352</ele>
        <time>2014-10-19T08:40:44.000Z</time>
      </trkpt>
      <trkpt lat="48.95654" lon="1.05268">
        <ele>161.60000610352</ele>
        <time>2014-10-19T08:40:45.000Z</time>
      </trkpt>
      <trkpt lat="48.95657" lon="1.05277">
        <ele>161.60000610352</ele>
        <time>2014-10-19T08:40:48.000Z</time>
      </trkpt>
      <trkpt lat="48.95658" lon="1.05287">
        <ele>161.60000610352</ele>
        <time>2014-10-19T08:40:52.000Z</time>
      </trkpt>
      <trkpt lat="48.95659" lon="1.05289">
        <ele>161.60000610352</ele>
        <time>2014-10-19T08:40:53.000Z</time>
      </trkpt>
      <trkpt lat="48.95661" lon="1.05298">
        <ele>161.60000610352</ele>
        <time>2014-10-19T08:40:56.000Z</time>
      </trkpt>
      <trkpt lat="48.95662" lon="1.0531">
        <ele>162.19999694824</ele>
        <time>2014-10-19T08:41:00.000Z</time>
      </trkpt>
      <trkpt lat="48.95663" lon="1.05313">
        <ele>162.19999694824</ele>
        <time>2014-10-19T08:41:01.000Z</time>
      </trkpt>
      <trkpt lat="48.95664" lon="1.05317">
        <ele>162.19999694824</ele>
        <time>2014-10-19T08:41:02.000Z</time>
      </trkpt>
      <trkpt lat="48.95665" lon="1.05321">
        <ele>162.19999694824</ele>
        <time>2014-10-19T08:41:03.000Z</time>
      </trkpt>
      <trkpt lat="48.95666" lon="1.05326">
        <ele>161.60000610352</ele>
        <time>2014-10-19T08:41:04.000Z</time>
      </trkpt>
      <trkpt lat="48.95667" lon="1.0533">
        <ele>162.19999694824</ele>
        <time>2014-10-19T08:41:05.000Z</time>
      </trkpt>
      <trkpt lat="48.95668" lon="1.05334">
        <ele>162.19999694824</ele>
        <time>2014-10-19T08:41:06.000Z</time>
      </trkpt>
      <trkpt lat="48.9567" lon="1.05339">
        <ele>162.19999694824</ele>
        <time>2014-10-19T08:41:07.000Z</time>
      </trkpt>
      <trkpt lat="48.95671" lon="1.05343">
        <ele>162.60000610352</ele>
        <time>2014-10-19T08:41:08.000Z</time>
      </trkpt>
      <trkpt lat="48.95672" lon="1.05348">
        <ele>162.60000610352</ele>
        <time>2014-10-19T08:41:09.000Z</time>
      </trkpt>
      <trkpt lat="48.95673" lon="1.05352">
        <ele>162.19999694824</ele>
        <time>2014-10-19T08:41:10.000Z</time>
      </trkpt>
      <trkpt lat="48.95674" lon="1.05355">
        <ele>162.19999694824</ele>
        <time>2014-10-19T08:41:11.000Z</time>
      </trkpt>
      <trkpt lat="48.95679" lon="1.05381">
        <ele>161.19999694824</ele>
        <time>2014-10-19T08:41:17.000Z</time>
      </trkpt>
      <trkpt lat="48.95683" lon="1.05394">
        <ele>160.19999694824</ele>
        <time>2014-10-19T08:41:20.000Z</time>
      </trkpt>
      <trkpt lat="48.95691" lon="1.05415">
        <ele>158.80000305176</ele>
        <time>2014-10-19T08:41:34.000Z</time>
      </trkpt>
      <trkpt lat="48.95699" lon="1.05454">
        <ele>153.39999389648</ele>
        <time>2014-10-19T08:41:55.000Z</time>
      </trkpt>
      <trkpt lat="48.95704" lon="1.05491">
        <ele>148.60000610352</ele>
        <time>2014-10-19T08:42:01.000Z</time>
      </trkpt>
      <trkpt lat="48.95706" lon="1.05497">
        <ele>148.19999694824</ele>
        <time>2014-10-19T08:42:02.000Z</time>
      </trkpt>
      <trkpt lat="48.95708" lon="1.0551">
        <ele>147.19999694824</ele>
        <time>2014-10-19T08:42:04.000Z</time>
      </trkpt>
      <trkpt lat="48.95719" lon="1.05559">
        <ele>142</ele>
        <time>2014-10-19T08:42:11.000Z</time>
      </trkpt>
      <trkpt lat="48.95721" lon="1.05565">
        <ele>141.39999389648</ele>
        <time>2014-10-19T08:42:12.000Z</time>
      </trkpt>
      <trkpt lat="48.95724" lon="1.05578">
        <ele>140</ele>
        <time>2014-10-19T08:42:14.000Z</time>
      </trkpt>
      <trkpt lat="48.95735" lon="1.05647">
        <ele>135.19999694824</ele>
        <time>2014-10-19T08:42:25.000Z</time>
      </trkpt>
      <trkpt lat="48.95748" lon="1.05705">
        <ele>134.80000305176</ele>
        <time>2014-10-19T08:42:35.000Z</time>
      </trkpt>
      <trkpt lat="48.95763" lon="1.05794">
        <ele>138</ele>
        <time>2014-10-19T08:42:49.000Z</time>
      </trkpt>
      <trkpt lat="48.95774" lon="1.05857">
        <ele>142.80000305176</ele>
        <time>2014-10-19T08:43:02.000Z</time>
      </trkpt>
      <trkpt lat="48.95784" lon="1.0591">
        <ele>146.19999694824</ele>
        <time>2014-10-19T08:43:14.000Z</time>
      </trkpt>
      <trkpt lat="48.95795" lon="1.05967">
        <ele>146.19999694824</ele>
        <time>2014-10-19T08:43:26.000Z</time>
      </trkpt>
      <trkpt lat="48.95807" lon="1.06032">
        <ele>147.19999694824</ele>
        <time>2014-10-19T08:43:38.000Z</time>
      </trkpt>
      <trkpt lat="48.95819" lon="1.06096">
        <ele>148.60000610352</ele>
        <time>2014-10-19T08:43:49.000Z</time>
      </trkpt>
      <trkpt lat="48.95817" lon="1.06129">
        <ele>148.60000610352</ele>
        <time>2014-10-19T08:43:57.000Z</time>
      </trkpt>
      <trkpt lat="48.95815" lon="1.06132">
        <ele>149.19999694824</ele>
        <time>2014-10-19T08:43:58.000Z</time>
      </trkpt>
      <trkpt lat="48.95813" lon="1.06134">
        <ele>149.19999694824</ele>
        <time>2014-10-19T08:43:59.000Z</time>
      </trkpt>
      <trkpt lat="48.9581" lon="1.06139">
        <ele>149.19999694824</ele>
        <time>2014-10-19T08:44:00.000Z</time>
      </trkpt>
      <trkpt lat="48.95808" lon="1.06143">
        <ele>149.60000610352</ele>
        <time>2014-10-19T08:44:01.000Z</time>
      </trkpt>
      <trkpt lat="48.95804" lon="1.06145">
        <ele>149.60000610352</ele>
        <time>2014-10-19T08:44:02.000Z</time>
      </trkpt>
      <trkpt lat="48.95801" lon="1.06147">
        <ele>150.19999694824</ele>
        <time>2014-10-19T08:44:03.000Z</time>
      </trkpt>
      <trkpt lat="48.95798" lon="1.06149">
        <ele>150.60000610352</ele>
        <time>2014-10-19T08:44:04.000Z</time>
      </trkpt>
      <trkpt lat="48.95794" lon="1.06152">
        <ele>151</ele>
        <time>2014-10-19T08:44:05.000Z</time>
      </trkpt>
      <trkpt lat="48.95766" lon="1.06169">
        <ele>154.39999389648</ele>
        <time>2014-10-19T08:44:14.000Z</time>
      </trkpt>
      <trkpt lat="48.95738" lon="1.06198">
        <ele>158.19999694824</ele>
        <time>2014-10-19T08:44:27.000Z</time>
      </trkpt>
      <trkpt lat="48.95713" lon="1.06233">
        <ele>163.60000610352</ele>
        <time>2014-10-19T08:44:39.000Z</time>
      </trkpt>
      <trkpt lat="48.95688" lon="1.06258">
        <ele>163.60000610352</ele>
        <time>2014-10-19T08:44:49.000Z</time>
      </trkpt>
      <trkpt lat="48.95682" lon="1.06262">
        <ele>163.60000610352</ele>
        <time>2014-10-19T08:44:51.000Z</time>
      </trkpt>
      <trkpt lat="48.95679" lon="1.06265">
        <ele>163</ele>
        <time>2014-10-19T08:44:52.000Z</time>
      </trkpt>
      <trkpt lat="48.95641" lon="1.06292">
        <ele>161.60000610352</ele>
        <time>2014-10-19T08:45:04.000Z</time>
      </trkpt>
      <trkpt lat="48.95631" lon="1.06295">
        <ele>160.60000610352</ele>
        <time>2014-10-19T08:45:13.000Z</time>
      </trkpt>
      <trkpt lat="48.95629" lon="1.06297">
        <ele>161.19999694824</ele>
        <time>2014-10-19T08:45:14.000Z</time>
      </trkpt>
      <trkpt lat="48.95627" lon="1.06298">
        <ele>161.60000610352</ele>
        <time>2014-10-19T08:45:15.000Z</time>
      </trkpt>
      <trkpt lat="48.95624" lon="1.063">
        <ele>162.19999694824</ele>
        <time>2014-10-19T08:45:16.000Z</time>
      </trkpt>
      <trkpt lat="48.95621" lon="1.06302">
        <ele>162.60000610352</ele>
        <time>2014-10-19T08:45:17.000Z</time>
      </trkpt>
      <trkpt lat="48.95618" lon="1.06303">
        <ele>163</ele>
        <time>2014-10-19T08:45:18.000Z</time>
      </trkpt>
      <trkpt lat="48.9558" lon="1.06329">
        <ele>165</ele>
        <time>2014-10-19T08:45:31.000Z</time>
      </trkpt>
      <trkpt lat="48.95561" lon="1.06354">
        <ele>167</ele>
        <time>2014-10-19T08:45:39.000Z</time>
      </trkpt>
      <trkpt lat="48.95558" lon="1.06357">
        <ele>166.39999389648</ele>
        <time>2014-10-19T08:45:40.000Z</time>
      </trkpt>
      <trkpt lat="48.95555" lon="1.0636">
        <ele>166.39999389648</ele>
        <time>2014-10-19T08:45:41.000Z</time>
      </trkpt>
      <trkpt lat="48.95552" lon="1.06361">
        <ele>166</ele>
        <time>2014-10-19T08:45:42.000Z</time>
      </trkpt>
      <trkpt lat="48.95549" lon="1.06362">
        <ele>165.39999389648</ele>
        <time>2014-10-19T08:45:43.000Z</time>
      </trkpt>
      <trkpt lat="48.95547" lon="1.06364">
        <ele>164.60000610352</ele>
        <time>2014-10-19T08:45:44.000Z</time>
      </trkpt>
      <trkpt lat="48.95545" lon="1.06366">
        <ele>163.60000610352</ele>
        <time>2014-10-19T08:45:45.000Z</time>
      </trkpt>
      <trkpt lat="48.95542" lon="1.06368">
        <ele>163.60000610352</ele>
        <time>2014-10-19T08:45:46.000Z</time>
      </trkpt>
      <trkpt lat="48.95538" lon="1.06372">
        <ele>163</ele>
        <time>2014-10-19T08:45:47.000Z</time>
      </trkpt>
      <trkpt lat="48.95535" lon="1.06376">
        <ele>163</ele>
        <time>2014-10-19T08:45:48.000Z</time>
      </trkpt>
      <trkpt lat="48.95532" lon="1.06381">
        <ele>162.60000610352</ele>
        <time>2014-10-19T08:45:49.000Z</time>
      </trkpt>
      <trkpt lat="48.95525" lon="1.06391">
        <ele>162.60000610352</ele>
        <time>2014-10-19T08:45:51.000Z</time>
      </trkpt>
      <trkpt lat="48.95501" lon="1.06418">
        <ele>162.19999694824</ele>
        <time>2014-10-19T08:45:57.000Z</time>
      </trkpt>
      <trkpt lat="48.95486" lon="1.06436">
        <ele>162.60000610352</ele>
        <time>2014-10-19T08:46:01.000Z</time>
      </trkpt>
      <trkpt lat="48.95472" lon="1.06457">
        <ele>162.60000610352</ele>
        <time>2014-10-19T08:46:05.000Z</time>
      </trkpt>
      <trkpt lat="48.95469" lon="1.06462">
        <ele>163</ele>
        <time>2014-10-19T08:46:06.000Z</time>
      </trkpt>
      <trkpt lat="48.95466" lon="1.06466">
        <ele>163</ele>
        <time>2014-10-19T08:46:07.000Z</time>
      </trkpt>
      <trkpt lat="48.95462" lon="1.06471">
        <ele>163.60000610352</ele>
        <time>2014-10-19T08:46:08.000Z</time>
      </trkpt>
      <trkpt lat="48.95459" lon="1.06476">
        <ele>163</ele>
        <time>2014-10-19T08:46:09.000Z</time>
      </trkpt>
      <trkpt lat="48.9542" lon="1.06511">
        <ele>161.60000610352</ele>
        <time>2014-10-19T08:46:19.000Z</time>
      </trkpt>
      <trkpt lat="48.95395" lon="1.06544">
        <ele>162.19999694824</ele>
        <time>2014-10-19T08:46:26.000Z</time>
      </trkpt>
      <trkpt lat="48.95392" lon="1.06548">
        <ele>162.19999694824</ele>
        <time>2014-10-19T08:46:27.000Z</time>
      </trkpt>
      <trkpt lat="48.95369" lon="1.06602">
        <ele>162.19999694824</ele>
        <time>2014-10-19T08:46:38.000Z</time>
      </trkpt>
      <trkpt lat="48.9536" lon="1.06655">
        <ele>161.19999694824</ele>
        <time>2014-10-19T08:46:48.000Z</time>
      </trkpt>
      <trkpt lat="48.95337" lon="1.06711">
        <ele>160.19999694824</ele>
        <time>2014-10-19T08:46:59.000Z</time>
      </trkpt>
      <trkpt lat="48.95334" lon="1.06716">
        <ele>160.60000610352</ele>
        <time>2014-10-19T08:47:00.000Z</time>
      </trkpt>
      <trkpt lat="48.95331" lon="1.06721">
        <ele>160.60000610352</ele>
        <time>2014-10-19T08:47:01.000Z</time>
      </trkpt>
      <trkpt lat="48.95323" lon="1.06729">
        <ele>160.60000610352</ele>
        <time>2014-10-19T08:47:03.000Z</time>
      </trkpt>
      <trkpt lat="48.95319" lon="1.06732">
        <ele>160.19999694824</ele>
        <time>2014-10-19T08:47:04.000Z</time>
      </trkpt>
      <trkpt lat="48.95302" lon="1.0675">
        <ele>159.80000305176</ele>
        <time>2014-10-19T08:47:10.000Z</time>
      </trkpt>
      <trkpt lat="48.95301" lon="1.06749">
        <ele>159.80000305176</ele>
        <time>2014-10-19T08:47:11.000Z</time>
      </trkpt>
      <trkpt lat="48.953" lon="1.06747">
        <ele>159.19999694824</ele>
        <time>2014-10-19T08:47:12.000Z</time>
      </trkpt>
      <trkpt lat="48.953" lon="1.06744">
        <ele>159.19999694824</ele>
        <time>2014-10-19T08:47:13.000Z</time>
      </trkpt>
      <trkpt lat="48.95299" lon="1.06742">
        <ele>159.19999694824</ele>
        <time>2014-10-19T08:47:14.000Z</time>
      </trkpt>
      <trkpt lat="48.95295" lon="1.06739">
        <ele>159.19999694824</ele>
        <time>2014-10-19T08:47:15.000Z</time>
      </trkpt>
      <trkpt lat="48.95249" lon="1.06705">
        <ele>159.19999694824</ele>
        <time>2014-10-19T08:47:27.000Z</time>
      </trkpt>
      <trkpt lat="48.95228" lon="1.0669">
        <ele>158.80000305176</ele>
        <time>2014-10-19T08:47:32.000Z</time>
      </trkpt>
      <trkpt lat="48.95223" lon="1.06687">
        <ele>158.80000305176</ele>
        <time>2014-10-19T08:47:33.000Z</time>
      </trkpt>
      <trkpt lat="48.95202" lon="1.06669">
        <ele>158.19999694824</ele>
        <time>2014-10-19T08:47:38.000Z</time>
      </trkpt>
      <trkpt lat="48.95198" lon="1.06666">
        <ele>158.19999694824</ele>
        <time>2014-10-19T08:47:39.000Z</time>
      </trkpt>
      <trkpt lat="48.95164" lon="1.06638">
        <ele>157.80000305176</ele>
        <time>2014-10-19T08:47:48.000Z</time>
      </trkpt>
      <trkpt lat="48.9516" lon="1.06636">
        <ele>157.80000305176</ele>
        <time>2014-10-19T08:47:49.000Z</time>
      </trkpt>
      <trkpt lat="48.95156" lon="1.06634">
        <ele>157.80000305176</ele>
        <time>2014-10-19T08:47:50.000Z</time>
      </trkpt>
      <trkpt lat="48.95113" lon="1.06604">
        <ele>157.39999389648</ele>
        <time>2014-10-19T08:48:01.000Z</time>
      </trkpt>
      <trkpt lat="48.95108" lon="1.06603">
        <ele>157.39999389648</ele>
        <time>2014-10-19T08:48:02.000Z</time>
      </trkpt>
      <trkpt lat="48.95105" lon="1.066">
        <ele>157.39999389648</ele>
        <time>2014-10-19T08:48:03.000Z</time>
      </trkpt>
      <trkpt lat="48.95102" lon="1.06597">
        <ele>157.39999389648</ele>
        <time>2014-10-19T08:48:04.000Z</time>
      </trkpt>
      <trkpt lat="48.951" lon="1.06594">
        <ele>156.80000305176</ele>
        <time>2014-10-19T08:48:05.000Z</time>
      </trkpt>
      <trkpt lat="48.95097" lon="1.06592">
        <ele>156.80000305176</ele>
        <time>2014-10-19T08:48:06.000Z</time>
      </trkpt>
      <trkpt lat="48.95094" lon="1.06589">
        <ele>156.80000305176</ele>
        <time>2014-10-19T08:48:07.000Z</time>
      </trkpt>
      <trkpt lat="48.95089" lon="1.06587">
        <ele>156.80000305176</ele>
        <time>2014-10-19T08:48:08.000Z</time>
      </trkpt>
      <trkpt lat="48.95086" lon="1.06585">
        <ele>156.80000305176</ele>
        <time>2014-10-19T08:48:09.000Z</time>
      </trkpt>
      <trkpt lat="48.95082" lon="1.06582">
        <ele>156.80000305176</ele>
        <time>2014-10-19T08:48:10.000Z</time>
      </trkpt>
      <trkpt lat="48.95079" lon="1.0658">
        <ele>156.80000305176</ele>
        <time>2014-10-19T08:48:11.000Z</time>
      </trkpt>
      <trkpt lat="48.95075" lon="1.06577">
        <ele>157.39999389648</ele>
        <time>2014-10-19T08:48:12.000Z</time>
      </trkpt>
      <trkpt lat="48.95072" lon="1.06576">
        <ele>157.39999389648</ele>
        <time>2014-10-19T08:48:13.000Z</time>
      </trkpt>
      <trkpt lat="48.95067" lon="1.06574">
        <ele>157.39999389648</ele>
        <time>2014-10-19T08:48:14.000Z</time>
      </trkpt>
      <trkpt lat="48.95063" lon="1.06571">
        <ele>157.39999389648</ele>
        <time>2014-10-19T08:48:15.000Z</time>
      </trkpt>
      <trkpt lat="48.9506" lon="1.06568">
        <ele>157.39999389648</ele>
        <time>2014-10-19T08:48:16.000Z</time>
      </trkpt>
      <trkpt lat="48.95036" lon="1.06549">
        <ele>156.39999389648</ele>
        <time>2014-10-19T08:48:23.000Z</time>
      </trkpt>
      <trkpt lat="48.95033" lon="1.06547">
        <ele>156.39999389648</ele>
        <time>2014-10-19T08:48:24.000Z</time>
      </trkpt>
      <trkpt lat="48.95029" lon="1.06545">
        <ele>155.80000305176</ele>
        <time>2014-10-19T08:48:25.000Z</time>
      </trkpt>
      <trkpt lat="48.95027" lon="1.06545">
        <ele>155.80000305176</ele>
        <time>2014-10-19T08:48:26.000Z</time>
      </trkpt>
      <trkpt lat="48.95024" lon="1.06544">
        <ele>155.80000305176</ele>
        <time>2014-10-19T08:48:27.000Z</time>
      </trkpt>
      <trkpt lat="48.95021" lon="1.06542">
        <ele>155.80000305176</ele>
        <time>2014-10-19T08:48:28.000Z</time>
      </trkpt>
      <trkpt lat="48.95017" lon="1.06538">
        <ele>155.39999389648</ele>
        <time>2014-10-19T08:48:30.000Z</time>
      </trkpt>
      <trkpt lat="48.95015" lon="1.06536">
        <ele>155.39999389648</ele>
        <time>2014-10-19T08:48:31.000Z</time>
      </trkpt>
      <trkpt lat="48.95008" lon="1.06529">
        <ele>154.39999389648</ele>
        <time>2014-10-19T08:48:35.000Z</time>
      </trkpt>
      <trkpt lat="48.95006" lon="1.06528">
        <ele>155</ele>
        <time>2014-10-19T08:48:36.000Z</time>
      </trkpt>
      <trkpt lat="48.95003" lon="1.06526">
        <ele>155.39999389648</ele>
        <time>2014-10-19T08:48:37.000Z</time>
      </trkpt>
      <trkpt lat="48.95001" lon="1.06524">
        <ele>155.39999389648</ele>
        <time>2014-10-19T08:48:38.000Z</time>
      </trkpt>
      <trkpt lat="48.94999" lon="1.06522">
        <ele>155.80000305176</ele>
        <time>2014-10-19T08:48:39.000Z</time>
      </trkpt>
      <trkpt lat="48.9499" lon="1.06508">
        <ele>156.80000305176</ele>
        <time>2014-10-19T08:48:44.000Z</time>
      </trkpt>
      <trkpt lat="48.94989" lon="1.06505">
        <ele>156.80000305176</ele>
        <time>2014-10-19T08:48:45.000Z</time>
      </trkpt>
      <trkpt lat="48.94987" lon="1.06501">
        <ele>156.80000305176</ele>
        <time>2014-10-19T08:48:46.000Z</time>
      </trkpt>
      <trkpt lat="48.94984" lon="1.06499">
        <ele>156.80000305176</ele>
        <time>2014-10-19T08:48:47.000Z</time>
      </trkpt>
      <trkpt lat="48.94981" lon="1.06498">
        <ele>157.39999389648</ele>
        <time>2014-10-19T08:48:48.000Z</time>
      </trkpt>
      <trkpt lat="48.94978" lon="1.06499">
        <ele>157.39999389648</ele>
        <time>2014-10-19T08:48:49.000Z</time>
      </trkpt>
      <trkpt lat="48.94974" lon="1.065">
        <ele>157.39999389648</ele>
        <time>2014-10-19T08:48:50.000Z</time>
      </trkpt>
      <trkpt lat="48.94973" lon="1.06501">
        <ele>157.39999389648</ele>
        <time>2014-10-19T08:48:51.000Z</time>
      </trkpt>
      <trkpt lat="48.9497" lon="1.06502">
        <ele>156.80000305176</ele>
        <time>2014-10-19T08:48:52.000Z</time>
      </trkpt>
      <trkpt lat="48.94968" lon="1.06502">
        <ele>156.80000305176</ele>
        <time>2014-10-19T08:48:53.000Z</time>
      </trkpt>
      <trkpt lat="48.94966" lon="1.06502">
        <ele>156.80000305176</ele>
        <time>2014-10-19T08:48:54.000Z</time>
      </trkpt>
      <trkpt lat="48.94963" lon="1.06501">
        <ele>156.39999389648</ele>
        <time>2014-10-19T08:48:55.000Z</time>
      </trkpt>
      <trkpt lat="48.94961" lon="1.06498">
        <ele>156.39999389648</ele>
        <time>2014-10-19T08:48:56.000Z</time>
      </trkpt>
      <trkpt lat="48.9496" lon="1.06495">
        <ele>156.39999389648</ele>
        <time>2014-10-19T08:48:57.000Z</time>
      </trkpt>
      <trkpt lat="48.94957" lon="1.06492">
        <ele>155.80000305176</ele>
        <time>2014-10-19T08:48:58.000Z</time>
      </trkpt>
      <trkpt lat="48.94955" lon="1.0649">
        <ele>155.80000305176</ele>
        <time>2014-10-19T08:48:59.000Z</time>
      </trkpt>
      <trkpt lat="48.94952" lon="1.06488">
        <ele>155.80000305176</ele>
        <time>2014-10-19T08:49:00.000Z</time>
      </trkpt>
      <trkpt lat="48.94949" lon="1.06487">
        <ele>155.39999389648</ele>
        <time>2014-10-19T08:49:01.000Z</time>
      </trkpt>
      <trkpt lat="48.94918" lon="1.06462">
        <ele>156.39999389648</ele>
        <time>2014-10-19T08:49:13.000Z</time>
      </trkpt>
      <trkpt lat="48.94884" lon="1.06434">
        <ele>157.39999389648</ele>
        <time>2014-10-19T08:49:25.000Z</time>
      </trkpt>
      <trkpt lat="48.9487" lon="1.06423">
        <ele>158.19999694824</ele>
        <time>2014-10-19T08:49:30.000Z</time>
      </trkpt>
      <trkpt lat="48.94844" lon="1.06405">
        <ele>158.19999694824</ele>
        <time>2014-10-19T08:49:39.000Z</time>
      </trkpt>
      <trkpt lat="48.94831" lon="1.06397">
        <ele>158.19999694824</ele>
        <time>2014-10-19T08:49:43.000Z</time>
      </trkpt>
      <trkpt lat="48.94829" lon="1.06395">
        <ele>158.19999694824</ele>
        <time>2014-10-19T08:49:44.000Z</time>
      </trkpt>
      <trkpt lat="48.94826" lon="1.06393">
        <ele>157.80000305176</ele>
        <time>2014-10-19T08:49:45.000Z</time>
      </trkpt>
      <trkpt lat="48.94824" lon="1.06391">
        <ele>158.19999694824</ele>
        <time>2014-10-19T08:49:46.000Z</time>
      </trkpt>
      <trkpt lat="48.94822" lon="1.06389">
        <ele>158.19999694824</ele>
        <time>2014-10-19T08:49:47.000Z</time>
      </trkpt>
      <trkpt lat="48.94819" lon="1.06387">
        <ele>158.19999694824</ele>
        <time>2014-10-19T08:49:48.000Z</time>
      </trkpt>
      <trkpt lat="48.94817" lon="1.06385">
        <ele>158.80000305176</ele>
        <time>2014-10-19T08:49:49.000Z</time>
      </trkpt>
      <trkpt lat="48.94814" lon="1.06383">
        <ele>159.19999694824</ele>
        <time>2014-10-19T08:49:50.000Z</time>
      </trkpt>
      <trkpt lat="48.9481" lon="1.06381">
        <ele>159.19999694824</ele>
        <time>2014-10-19T08:49:51.000Z</time>
      </trkpt>
      <trkpt lat="48.94807" lon="1.06378">
        <ele>159.80000305176</ele>
        <time>2014-10-19T08:49:52.000Z</time>
      </trkpt>
      <trkpt lat="48.9479" lon="1.06362">
        <ele>160.60000610352</ele>
        <time>2014-10-19T08:50:00.000Z</time>
      </trkpt>
      <trkpt lat="48.9479" lon="1.06359">
        <ele>161.19999694824</ele>
        <time>2014-10-19T08:50:02.000Z</time>
      </trkpt>
      <trkpt lat="48.9479" lon="1.06358">
        <ele>161.19999694824</ele>
        <time>2014-10-19T08:50:03.000Z</time>
      </trkpt>
      <trkpt lat="48.9479" lon="1.06351">
        <ele>160.60000610352</ele>
        <time>2014-10-19T08:50:06.000Z</time>
      </trkpt>
      <trkpt lat="48.94792" lon="1.06342">
        <ele>160.19999694824</ele>
        <time>2014-10-19T08:50:13.000Z</time>
      </trkpt>
      <trkpt lat="48.94756" lon="1.06363">
        <ele>162.19999694824</ele>
        <time>2014-10-19T08:50:26.000Z</time>
      </trkpt>
      <trkpt lat="48.94723" lon="1.06384">
        <ele>162.60000610352</ele>
        <time>2014-10-19T08:50:37.000Z</time>
      </trkpt>
      <trkpt lat="48.94689" lon="1.06407">
        <ele>163.60000610352</ele>
        <time>2014-10-19T08:50:48.000Z</time>
      </trkpt>
      <trkpt lat="48.94652" lon="1.06433">
        <ele>164</ele>
        <time>2014-10-19T08:51:00.000Z</time>
      </trkpt>
      <trkpt lat="48.94636" lon="1.06443">
        <ele>164</ele>
        <time>2014-10-19T08:51:04.000Z</time>
      </trkpt>
      <trkpt lat="48.94627" lon="1.06447">
        <ele>164</ele>
        <time>2014-10-19T08:51:06.000Z</time>
      </trkpt>
      <trkpt lat="48.94623" lon="1.0645">
        <ele>164.60000610352</ele>
        <time>2014-10-19T08:51:07.000Z</time>
      </trkpt>
      <trkpt lat="48.94619" lon="1.06453">
        <ele>164.60000610352</ele>
        <time>2014-10-19T08:51:08.000Z</time>
      </trkpt>
      <trkpt lat="48.94578" lon="1.0648">
        <ele>167</ele>
        <time>2014-10-19T08:51:19.000Z</time>
      </trkpt>
      <trkpt lat="48.9454" lon="1.06507">
        <ele>168.80000305176</ele>
        <time>2014-10-19T08:51:30.000Z</time>
      </trkpt>
      <trkpt lat="48.94513" lon="1.06527">
        <ele>170.80000305176</ele>
        <time>2014-10-19T08:51:38.000Z</time>
      </trkpt>
      <trkpt lat="48.94513" lon="1.06532">
        <ele>170.19999694824</ele>
        <time>2014-10-19T08:51:39.000Z</time>
      </trkpt>
      <trkpt lat="48.94513" lon="1.06538">
        <ele>169.39999389648</ele>
        <time>2014-10-19T08:51:40.000Z</time>
      </trkpt>
      <trkpt lat="48.94517" lon="1.06603">
        <ele>163.60000610352</ele>
        <time>2014-10-19T08:51:53.000Z</time>
      </trkpt>
      <trkpt lat="48.94501" lon="1.06658">
        <ele>164</ele>
        <time>2014-10-19T08:52:03.000Z</time>
      </trkpt>
      <trkpt lat="48.94501" lon="1.06664">
        <ele>164</ele>
        <time>2014-10-19T08:52:04.000Z</time>
      </trkpt>
      <trkpt lat="48.945" lon="1.06671">
        <ele>164</ele>
        <time>2014-10-19T08:52:05.000Z</time>
      </trkpt>
      <trkpt lat="48.94497" lon="1.06691">
        <ele>164</ele>
        <time>2014-10-19T08:52:08.000Z</time>
      </trkpt>
      <trkpt lat="48.9449" lon="1.0677">
        <ele>162.19999694824</ele>
        <time>2014-10-19T08:52:20.000Z</time>
      </trkpt>
      <trkpt lat="48.94497" lon="1.06838">
        <ele>159.19999694824</ele>
        <time>2014-10-19T08:52:31.000Z</time>
      </trkpt>
      <trkpt lat="48.94506" lon="1.06914">
        <ele>154</ele>
        <time>2014-10-19T08:52:44.000Z</time>
      </trkpt>
      <trkpt lat="48.94513" lon="1.06971">
        <ele>149.19999694824</ele>
        <time>2014-10-19T08:52:54.000Z</time>
      </trkpt>
      <trkpt lat="48.94532" lon="1.07049">
        <ele>150.19999694824</ele>
        <time>2014-10-19T08:53:07.000Z</time>
      </trkpt>
      <trkpt lat="48.94542" lon="1.0709">
        <ele>150.19999694824</ele>
        <time>2014-10-19T08:53:14.000Z</time>
      </trkpt>
      <trkpt lat="48.94544" lon="1.07095">
        <ele>150.19999694824</ele>
        <time>2014-10-19T08:53:15.000Z</time>
      </trkpt>
      <trkpt lat="48.94545" lon="1.07101">
        <ele>150.19999694824</ele>
        <time>2014-10-19T08:53:16.000Z</time>
      </trkpt>
      <trkpt lat="48.94546" lon="1.07106">
        <ele>150.19999694824</ele>
        <time>2014-10-19T08:53:17.000Z</time>
      </trkpt>
      <trkpt lat="48.94547" lon="1.07113">
        <ele>149.60000610352</ele>
        <time>2014-10-19T08:53:18.000Z</time>
      </trkpt>
      <trkpt lat="48.94551" lon="1.07121">
        <ele>149.19999694824</ele>
        <time>2014-10-19T08:53:19.000Z</time>
      </trkpt>
      <trkpt lat="48.94553" lon="1.07129">
        <ele>148.60000610352</ele>
        <time>2014-10-19T08:53:20.000Z</time>
      </trkpt>
      <trkpt lat="48.94555" lon="1.07136">
        <ele>148.19999694824</ele>
        <time>2014-10-19T08:53:21.000Z</time>
      </trkpt>
      <trkpt lat="48.9456" lon="1.07162">
        <ele>147.60000610352</ele>
        <time>2014-10-19T08:53:25.000Z</time>
      </trkpt>
      <trkpt lat="48.94555" lon="1.07238">
        <ele>148.60000610352</ele>
        <time>2014-10-19T08:53:37.000Z</time>
      </trkpt>
      <trkpt lat="48.94556" lon="1.07307">
        <ele>148.60000610352</ele>
        <time>2014-10-19T08:53:48.000Z</time>
      </trkpt>
      <trkpt lat="48.9455" lon="1.07365">
        <ele>149.60000610352</ele>
        <time>2014-10-19T08:53:59.000Z</time>
      </trkpt>
      <trkpt lat="48.9454" lon="1.07403">
        <ele>149.19999694824</ele>
        <time>2014-10-19T08:54:08.000Z</time>
      </trkpt>
      <trkpt lat="48.94541" lon="1.07407">
        <ele>148.60000610352</ele>
        <time>2014-10-19T08:54:09.000Z</time>
      </trkpt>
      <trkpt lat="48.94549" lon="1.07424">
        <ele>148.60000610352</ele>
        <time>2014-10-19T08:54:13.000Z</time>
      </trkpt>
      <trkpt lat="48.94548" lon="1.07428">
        <ele>148.60000610352</ele>
        <time>2014-10-19T08:54:14.000Z</time>
      </trkpt>
      <trkpt lat="48.94545" lon="1.0743">
        <ele>148.60000610352</ele>
        <time>2014-10-19T08:54:15.000Z</time>
      </trkpt>
      <trkpt lat="48.94542" lon="1.07431">
        <ele>148.60000610352</ele>
        <time>2014-10-19T08:54:16.000Z</time>
      </trkpt>
      <trkpt lat="48.94539" lon="1.07431">
        <ele>148.60000610352</ele>
        <time>2014-10-19T08:54:17.000Z</time>
      </trkpt>
      <trkpt lat="48.94536" lon="1.0743">
        <ele>149.19999694824</ele>
        <time>2014-10-19T08:54:18.000Z</time>
      </trkpt>
      <trkpt lat="48.94532" lon="1.0743">
        <ele>149.19999694824</ele>
        <time>2014-10-19T08:54:19.000Z</time>
      </trkpt>
      <trkpt lat="48.94529" lon="1.07432">
        <ele>148.60000610352</ele>
        <time>2014-10-19T08:54:20.000Z</time>
      </trkpt>
      <trkpt lat="48.94526" lon="1.07435">
        <ele>148.60000610352</ele>
        <time>2014-10-19T08:54:21.000Z</time>
      </trkpt>
      <trkpt lat="48.94523" lon="1.07436">
        <ele>148.60000610352</ele>
        <time>2014-10-19T08:54:22.000Z</time>
      </trkpt>
      <trkpt lat="48.9452" lon="1.07435">
        <ele>148.60000610352</ele>
        <time>2014-10-19T08:54:23.000Z</time>
      </trkpt>
      <trkpt lat="48.94492" lon="1.07436">
        <ele>149.60000610352</ele>
        <time>2014-10-19T08:54:32.000Z</time>
      </trkpt>
      <trkpt lat="48.94465" lon="1.07437">
        <ele>150.19999694824</ele>
        <time>2014-10-19T08:54:42.000Z</time>
      </trkpt>
      <trkpt lat="48.94426" lon="1.07426">
        <ele>152.60000610352</ele>
        <time>2014-10-19T08:54:53.000Z</time>
      </trkpt>
      <trkpt lat="48.94385" lon="1.0741">
        <ele>154</ele>
        <time>2014-10-19T08:55:04.000Z</time>
      </trkpt>
      <trkpt lat="48.94342" lon="1.07399">
        <ele>155.80000305176</ele>
        <time>2014-10-19T08:55:15.000Z</time>
      </trkpt>
      <trkpt lat="48.94312" lon="1.07394">
        <ele>157.80000305176</ele>
        <time>2014-10-19T08:55:23.000Z</time>
      </trkpt>
      <trkpt lat="48.94307" lon="1.07399">
        <ele>158.80000305176</ele>
        <time>2014-10-19T08:55:27.000Z</time>
      </trkpt>
      <trkpt lat="48.94305" lon="1.07401">
        <ele>158.80000305176</ele>
        <time>2014-10-19T08:55:28.000Z</time>
      </trkpt>
      <trkpt lat="48.94303" lon="1.07403">
        <ele>158.80000305176</ele>
        <time>2014-10-19T08:55:29.000Z</time>
      </trkpt>
      <trkpt lat="48.943" lon="1.07405">
        <ele>158.80000305176</ele>
        <time>2014-10-19T08:55:30.000Z</time>
      </trkpt>
      <trkpt lat="48.94298" lon="1.07409">
        <ele>158.80000305176</ele>
        <time>2014-10-19T08:55:31.000Z</time>
      </trkpt>
      <trkpt lat="48.94295" lon="1.07413">
        <ele>159.19999694824</ele>
        <time>2014-10-19T08:55:32.000Z</time>
      </trkpt>
      <trkpt lat="48.94292" lon="1.07417">
        <ele>159.19999694824</ele>
        <time>2014-10-19T08:55:33.000Z</time>
      </trkpt>
      <trkpt lat="48.94289" lon="1.07421">
        <ele>159.19999694824</ele>
        <time>2014-10-19T08:55:34.000Z</time>
      </trkpt>
      <trkpt lat="48.94268" lon="1.0744">
        <ele>160.60000610352</ele>
        <time>2014-10-19T08:55:41.000Z</time>
      </trkpt>
      <trkpt lat="48.94227" lon="1.07483">
        <ele>162.60000610352</ele>
        <time>2014-10-19T08:55:53.000Z</time>
      </trkpt>
      <trkpt lat="48.9419" lon="1.0752">
        <ele>164</ele>
        <time>2014-10-19T08:56:05.000Z</time>
      </trkpt>
      <trkpt lat="48.94174" lon="1.07528">
        <ele>164</ele>
        <time>2014-10-19T08:56:13.000Z</time>
      </trkpt>
      <trkpt lat="48.94174" lon="1.07522">
        <ele>164</ele>
        <time>2014-10-19T08:56:14.000Z</time>
      </trkpt>
      <trkpt lat="48.94173" lon="1.07518">
        <ele>164</ele>
        <time>2014-10-19T08:56:15.000Z</time>
      </trkpt>
      <trkpt lat="48.94168" lon="1.07483">
        <ele>163.60000610352</ele>
        <time>2014-10-19T08:56:21.000Z</time>
      </trkpt>
      <trkpt lat="48.94169" lon="1.07474">
        <ele>162.60000610352</ele>
        <time>2014-10-19T08:56:22.000Z</time>
      </trkpt>
      <trkpt lat="48.9417" lon="1.07467">
        <ele>162.19999694824</ele>
        <time>2014-10-19T08:56:23.000Z</time>
      </trkpt>
      <trkpt lat="48.94172" lon="1.0746">
        <ele>162.19999694824</ele>
        <time>2014-10-19T08:56:24.000Z</time>
      </trkpt>
      <trkpt lat="48.94174" lon="1.07453">
        <ele>161.60000610352</ele>
        <time>2014-10-19T08:56:25.000Z</time>
      </trkpt>
      <trkpt lat="48.94176" lon="1.07446">
        <ele>161.19999694824</ele>
        <time>2014-10-19T08:56:26.000Z</time>
      </trkpt>
      <trkpt lat="48.94178" lon="1.07439">
        <ele>161.19999694824</ele>
        <time>2014-10-19T08:56:27.000Z</time>
      </trkpt>
      <trkpt lat="48.94188" lon="1.07394">
        <ele>159.80000305176</ele>
        <time>2014-10-19T08:56:36.000Z</time>
      </trkpt>
      <trkpt lat="48.94192" lon="1.07351">
        <ele>157.80000305176</ele>
        <time>2014-10-19T08:56:43.000Z</time>
      </trkpt>
      <trkpt lat="48.94189" lon="1.07348">
        <ele>156.80000305176</ele>
        <time>2014-10-19T08:56:44.000Z</time>
      </trkpt>
      <trkpt lat="48.94185" lon="1.07347">
        <ele>156.39999389648</ele>
        <time>2014-10-19T08:56:45.000Z</time>
      </trkpt>
      <trkpt lat="48.94181" lon="1.07345">
        <ele>156.39999389648</ele>
        <time>2014-10-19T08:56:46.000Z</time>
      </trkpt>
      <trkpt lat="48.94177" lon="1.07344">
        <ele>155.80000305176</ele>
        <time>2014-10-19T08:56:47.000Z</time>
      </trkpt>
      <trkpt lat="48.94172" lon="1.07342">
        <ele>155</ele>
        <time>2014-10-19T08:56:48.000Z</time>
      </trkpt>
      <trkpt lat="48.94167" lon="1.0734">
        <ele>154.39999389648</ele>
        <time>2014-10-19T08:56:49.000Z</time>
      </trkpt>
      <trkpt lat="48.9413" lon="1.07324">
        <ele>152.60000610352</ele>
        <time>2014-10-19T08:57:00.000Z</time>
      </trkpt>
      <trkpt lat="48.94128" lon="1.07324">
        <ele>152.60000610352</ele>
        <time>2014-10-19T08:57:07.000Z</time>
      </trkpt>
      <trkpt lat="48.94129" lon="1.07323">
        <ele>152.60000610352</ele>
        <time>2014-10-19T08:57:08.000Z</time>
      </trkpt>
      <trkpt lat="48.94135" lon="1.07325">
        <ele>153</ele>
        <time>2014-10-19T08:57:13.000Z</time>
      </trkpt>
      <trkpt lat="48.94135" lon="1.07327">
        <ele>153</ele>
        <time>2014-10-19T08:57:14.000Z</time>
      </trkpt>
      <trkpt lat="48.94135" lon="1.07328">
        <ele>153</ele>
        <time>2014-10-19T08:57:15.000Z</time>
      </trkpt>
      <trkpt lat="48.9413" lon="1.07336">
        <ele>153</ele>
        <time>2014-10-19T08:57:21.000Z</time>
      </trkpt>
      <trkpt lat="48.94129" lon="1.07338">
        <ele>153</ele>
        <time>2014-10-19T08:57:22.000Z</time>
      </trkpt>
      <trkpt lat="48.9413" lon="1.07339">
        <ele>153.39999389648</ele>
        <time>2014-10-19T08:57:26.000Z</time>
      </trkpt>
      <trkpt lat="48.94131" lon="1.07338">
        <ele>153</ele>
        <time>2014-10-19T08:57:27.000Z</time>
      </trkpt>
      <trkpt lat="48.94132" lon="1.07336">
        <ele>153</ele>
        <time>2014-10-19T08:57:28.000Z</time>
      </trkpt>
      <trkpt lat="48.94134" lon="1.07335">
        <ele>153</ele>
        <time>2014-10-19T08:57:29.000Z</time>
      </trkpt>
      <trkpt lat="48.94136" lon="1.07333">
        <ele>153</ele>
        <time>2014-10-19T08:57:30.000Z</time>
      </trkpt>
      <trkpt lat="48.94138" lon="1.07331">
        <ele>153.39999389648</ele>
        <time>2014-10-19T08:57:31.000Z</time>
      </trkpt>
      <trkpt lat="48.94139" lon="1.07329">
        <ele>153.39999389648</ele>
        <time>2014-10-19T08:57:32.000Z</time>
      </trkpt>
      <trkpt lat="48.9414" lon="1.07327">
        <ele>153.39999389648</ele>
        <time>2014-10-19T08:57:33.000Z</time>
      </trkpt>
      <trkpt lat="48.94137" lon="1.07325">
        <ele>153</ele>
        <time>2014-10-19T08:57:37.000Z</time>
      </trkpt>
      <trkpt lat="48.94135" lon="1.07325">
        <ele>153</ele>
        <time>2014-10-19T08:57:38.000Z</time>
      </trkpt>
      <trkpt lat="48.94133" lon="1.07325">
        <ele>153</ele>
        <time>2014-10-19T08:57:39.000Z</time>
      </trkpt>
      <trkpt lat="48.94131" lon="1.07326">
        <ele>153</ele>
        <time>2014-10-19T08:57:40.000Z</time>
      </trkpt>
      <trkpt lat="48.94129" lon="1.07326">
        <ele>153</ele>
        <time>2014-10-19T08:57:41.000Z</time>
      </trkpt>
      <trkpt lat="48.94127" lon="1.07327">
        <ele>153.39999389648</ele>
        <time>2014-10-19T08:57:42.000Z</time>
      </trkpt>
      <trkpt lat="48.94124" lon="1.07328">
        <ele>154</ele>
        <time>2014-10-19T08:57:43.000Z</time>
      </trkpt>
      <trkpt lat="48.94122" lon="1.07328">
        <ele>154</ele>
        <time>2014-10-19T08:57:44.000Z</time>
      </trkpt>
      <trkpt lat="48.9412" lon="1.07329">
        <ele>154.39999389648</ele>
        <time>2014-10-19T08:57:45.000Z</time>
      </trkpt>
      <trkpt lat="48.94117" lon="1.07329">
        <ele>154.39999389648</ele>
        <time>2014-10-19T08:57:46.000Z</time>
      </trkpt>
      <trkpt lat="48.94114" lon="1.07328">
        <ele>155</ele>
        <time>2014-10-19T08:57:47.000Z</time>
      </trkpt>
      <trkpt lat="48.94083" lon="1.07323">
        <ele>156.80000305176</ele>
        <time>2014-10-19T08:57:58.000Z</time>
      </trkpt>
      <trkpt lat="48.94048" lon="1.07301">
        <ele>157.80000305176</ele>
        <time>2014-10-19T08:58:06.000Z</time>
      </trkpt>
      <trkpt lat="48.94044" lon="1.07298">
        <ele>157.80000305176</ele>
        <time>2014-10-19T08:58:07.000Z</time>
      </trkpt>
      <trkpt lat="48.93984" lon="1.07262">
        <ele>156.39999389648</ele>
        <time>2014-10-19T08:58:17.000Z</time>
      </trkpt>
      <trkpt lat="48.93974" lon="1.07255">
        <ele>156.39999389648</ele>
        <time>2014-10-19T08:58:19.000Z</time>
      </trkpt>
      <trkpt lat="48.93957" lon="1.07247">
        <ele>155.80000305176</ele>
        <time>2014-10-19T08:58:22.000Z</time>
      </trkpt>
      <trkpt lat="48.93935" lon="1.07239">
        <ele>153.39999389648</ele>
        <time>2014-10-19T08:58:25.000Z</time>
      </trkpt>
      <trkpt lat="48.93929" lon="1.07236">
        <ele>152.60000610352</ele>
        <time>2014-10-19T08:58:26.000Z</time>
      </trkpt>
      <trkpt lat="48.93923" lon="1.07233">
        <ele>152</ele>
        <time>2014-10-19T08:58:27.000Z</time>
      </trkpt>
      <trkpt lat="48.93917" lon="1.07229">
        <ele>151.60000610352</ele>
        <time>2014-10-19T08:58:28.000Z</time>
      </trkpt>
      <trkpt lat="48.93913" lon="1.07226">
        <ele>151</ele>
        <time>2014-10-19T08:58:29.000Z</time>
      </trkpt>
      <trkpt lat="48.93909" lon="1.07223">
        <ele>150.60000610352</ele>
        <time>2014-10-19T08:58:30.000Z</time>
      </trkpt>
      <trkpt lat="48.939" lon="1.07219">
        <ele>150.19999694824</ele>
        <time>2014-10-19T08:58:32.000Z</time>
      </trkpt>
      <trkpt lat="48.93896" lon="1.07218">
        <ele>150.19999694824</ele>
        <time>2014-10-19T08:58:33.000Z</time>
      </trkpt>
      <trkpt lat="48.93892" lon="1.07216">
        <ele>150.19999694824</ele>
        <time>2014-10-19T08:58:34.000Z</time>
      </trkpt>
      <trkpt lat="48.9386" lon="1.07205">
        <ele>152.60000610352</ele>
        <time>2014-10-19T08:58:44.000Z</time>
      </trkpt>
      <trkpt lat="48.93817" lon="1.07187">
        <ele>153</ele>
        <time>2014-10-19T08:58:55.000Z</time>
      </trkpt>
      <trkpt lat="48.93788" lon="1.0716">
        <ele>153.39999389648</ele>
        <time>2014-10-19T08:59:06.000Z</time>
      </trkpt>
      <trkpt lat="48.93783" lon="1.07155">
        <ele>153</ele>
        <time>2014-10-19T08:59:08.000Z</time>
      </trkpt>
      <trkpt lat="48.93781" lon="1.07154">
        <ele>153</ele>
        <time>2014-10-19T08:59:09.000Z</time>
      </trkpt>
      <trkpt lat="48.93778" lon="1.07152">
        <ele>153</ele>
        <time>2014-10-19T08:59:10.000Z</time>
      </trkpt>
      <trkpt lat="48.93775" lon="1.07149">
        <ele>153.39999389648</ele>
        <time>2014-10-19T08:59:11.000Z</time>
      </trkpt>
      <trkpt lat="48.93772" lon="1.07147">
        <ele>153.39999389648</ele>
        <time>2014-10-19T08:59:12.000Z</time>
      </trkpt>
      <trkpt lat="48.93754" lon="1.07131">
        <ele>154.39999389648</ele>
        <time>2014-10-19T08:59:17.000Z</time>
      </trkpt>
      <trkpt lat="48.9375" lon="1.07126">
        <ele>154.39999389648</ele>
        <time>2014-10-19T08:59:18.000Z</time>
      </trkpt>
      <trkpt lat="48.93747" lon="1.07122">
        <ele>154</ele>
        <time>2014-10-19T08:59:19.000Z</time>
      </trkpt>
      <trkpt lat="48.93743" lon="1.07118">
        <ele>154</ele>
        <time>2014-10-19T08:59:20.000Z</time>
      </trkpt>
      <trkpt lat="48.9374" lon="1.07114">
        <ele>154</ele>
        <time>2014-10-19T08:59:21.000Z</time>
      </trkpt>
      <trkpt lat="48.93737" lon="1.0711">
        <ele>154</ele>
        <time>2014-10-19T08:59:22.000Z</time>
      </trkpt>
      <trkpt lat="48.93729" lon="1.07101">
        <ele>153.39999389648</ele>
        <time>2014-10-19T08:59:25.000Z</time>
      </trkpt>
      <trkpt lat="48.93725" lon="1.07101">
        <ele>153.39999389648</ele>
        <time>2014-10-19T08:59:26.000Z</time>
      </trkpt>
      <trkpt lat="48.93722" lon="1.07102">
        <ele>153.39999389648</ele>
        <time>2014-10-19T08:59:27.000Z</time>
      </trkpt>
      <trkpt lat="48.93719" lon="1.07103">
        <ele>153.39999389648</ele>
        <time>2014-10-19T08:59:28.000Z</time>
      </trkpt>
      <trkpt lat="48.93716" lon="1.07105">
        <ele>153.39999389648</ele>
        <time>2014-10-19T08:59:29.000Z</time>
      </trkpt>
      <trkpt lat="48.93669" lon="1.07118">
        <ele>153</ele>
        <time>2014-10-19T08:59:37.000Z</time>
      </trkpt>
      <trkpt lat="48.9366" lon="1.07126">
        <ele>152.60000610352</ele>
        <time>2014-10-19T08:59:39.000Z</time>
      </trkpt>
      <trkpt lat="48.93637" lon="1.07145">
        <ele>152.60000610352</ele>
        <time>2014-10-19T08:59:44.000Z</time>
      </trkpt>
      <trkpt lat="48.93631" lon="1.07147">
        <ele>152</ele>
        <time>2014-10-19T08:59:45.000Z</time>
      </trkpt>
      <trkpt lat="48.93625" lon="1.0715">
        <ele>152</ele>
        <time>2014-10-19T08:59:46.000Z</time>
      </trkpt>
      <trkpt lat="48.9361" lon="1.07158">
        <ele>151.60000610352</ele>
        <time>2014-10-19T08:59:49.000Z</time>
      </trkpt>
      <trkpt lat="48.93578" lon="1.07165">
        <ele>151</ele>
        <time>2014-10-19T08:59:55.000Z</time>
      </trkpt>
      <trkpt lat="48.93575" lon="1.07162">
        <ele>151</ele>
        <time>2014-10-19T08:59:56.000Z</time>
      </trkpt>
      <trkpt lat="48.93566" lon="1.07154">
        <ele>151</ele>
        <time>2014-10-19T09:00:05.000Z</time>
      </trkpt>
      <trkpt lat="48.93553" lon="1.07145">
        <ele>150.19999694824</ele>
        <time>2014-10-19T09:00:12.000Z</time>
      </trkpt>
      <trkpt lat="48.9355" lon="1.07147">
        <ele>151</ele>
        <time>2014-10-19T09:00:26.000Z</time>
      </trkpt>
      <trkpt lat="48.93553" lon="1.07143">
        <ele>148.19999694824</ele>
        <time>2014-10-19T09:00:50.000Z</time>
      </trkpt>
      <trkpt lat="48.93544" lon="1.07135">
        <ele>152</ele>
        <time>2014-10-19T09:01:13.000Z</time>
      </trkpt>
      <trkpt lat="48.93545" lon="1.07138">
        <ele>153</ele>
        <time>2014-10-19T09:01:28.000Z</time>
      </trkpt>
      <trkpt lat="48.93572" lon="1.07162">
        <ele>156.80000305176</ele>
        <time>2014-10-19T09:01:42.000Z</time>
      </trkpt>
      <trkpt lat="48.93592" lon="1.07173">
        <ele>159.80000305176</ele>
        <time>2014-10-19T09:01:51.000Z</time>
      </trkpt>
      <trkpt lat="48.93588" lon="1.07177">
        <ele>161.19999694824</ele>
        <time>2014-10-19T09:02:02.000Z</time>
      </trkpt>
      <trkpt lat="48.93584" lon="1.07171">
        <ele>160.60000610352</ele>
        <time>2014-10-19T09:02:05.000Z</time>
      </trkpt>
      <trkpt lat="48.93582" lon="1.0717">
        <ele>160.60000610352</ele>
        <time>2014-10-19T09:02:06.000Z</time>
      </trkpt>
      <trkpt lat="48.9358" lon="1.07168">
        <ele>160.19999694824</ele>
        <time>2014-10-19T09:02:07.000Z</time>
      </trkpt>
      <trkpt lat="48.93577" lon="1.07168">
        <ele>160.19999694824</ele>
        <time>2014-10-19T09:02:08.000Z</time>
      </trkpt>
      <trkpt lat="48.93575" lon="1.07168">
        <ele>160.19999694824</ele>
        <time>2014-10-19T09:02:09.000Z</time>
      </trkpt>
      <trkpt lat="48.93551" lon="1.07182">
        <ele>160.60000610352</ele>
        <time>2014-10-19T09:02:21.000Z</time>
      </trkpt>
      <trkpt lat="48.93502" lon="1.07217">
        <ele>159.19999694824</ele>
        <time>2014-10-19T09:02:34.000Z</time>
      </trkpt>
      <trkpt lat="48.93462" lon="1.07247">
        <ele>156.80000305176</ele>
        <time>2014-10-19T09:02:45.000Z</time>
      </trkpt>
      <trkpt lat="48.93417" lon="1.07278">
        <ele>157.80000305176</ele>
        <time>2014-10-19T09:02:56.000Z</time>
      </trkpt>
      <trkpt lat="48.93412" lon="1.07281">
        <ele>158.19999694824</ele>
        <time>2014-10-19T09:02:58.000Z</time>
      </trkpt>
      <trkpt lat="48.9341" lon="1.07283">
        <ele>157.80000305176</ele>
        <time>2014-10-19T09:02:59.000Z</time>
      </trkpt>
      <trkpt lat="48.93405" lon="1.07285">
        <ele>157.39999389648</ele>
        <time>2014-10-19T09:03:00.000Z</time>
      </trkpt>
      <trkpt lat="48.93401" lon="1.07286">
        <ele>156.80000305176</ele>
        <time>2014-10-19T09:03:01.000Z</time>
      </trkpt>
      <trkpt lat="48.93399" lon="1.07286">
        <ele>156.39999389648</ele>
        <time>2014-10-19T09:03:02.000Z</time>
      </trkpt>
      <trkpt lat="48.93398" lon="1.07284">
        <ele>156.39999389648</ele>
        <time>2014-10-19T09:03:03.000Z</time>
      </trkpt>
      <trkpt lat="48.93396" lon="1.0728">
        <ele>155.80000305176</ele>
        <time>2014-10-19T09:03:04.000Z</time>
      </trkpt>
      <trkpt lat="48.93396" lon="1.07277">
        <ele>155.39999389648</ele>
        <time>2014-10-19T09:03:05.000Z</time>
      </trkpt>
      <trkpt lat="48.93395" lon="1.07272">
        <ele>155</ele>
        <time>2014-10-19T09:03:06.000Z</time>
      </trkpt>
      <trkpt lat="48.93394" lon="1.07268">
        <ele>154.39999389648</ele>
        <time>2014-10-19T09:03:07.000Z</time>
      </trkpt>
      <trkpt lat="48.93386" lon="1.07244">
        <ele>152.60000610352</ele>
        <time>2014-10-19T09:03:11.000Z</time>
      </trkpt>
      <trkpt lat="48.93383" lon="1.07238">
        <ele>152.60000610352</ele>
        <time>2014-10-19T09:03:12.000Z</time>
      </trkpt>
      <trkpt lat="48.93381" lon="1.07231">
        <ele>152.60000610352</ele>
        <time>2014-10-19T09:03:13.000Z</time>
      </trkpt>
      <trkpt lat="48.93374" lon="1.07212">
        <ele>151.60000610352</ele>
        <time>2014-10-19T09:03:16.000Z</time>
      </trkpt>
      <trkpt lat="48.93372" lon="1.07206">
        <ele>151.60000610352</ele>
        <time>2014-10-19T09:03:17.000Z</time>
      </trkpt>
      <trkpt lat="48.93371" lon="1.07201">
        <ele>151</ele>
        <time>2014-10-19T09:03:18.000Z</time>
      </trkpt>
      <trkpt lat="48.9337" lon="1.07195">
        <ele>150.60000610352</ele>
        <time>2014-10-19T09:03:19.000Z</time>
      </trkpt>
      <trkpt lat="48.93369" lon="1.07189">
        <ele>150.19999694824</ele>
        <time>2014-10-19T09:03:20.000Z</time>
      </trkpt>
      <trkpt lat="48.93367" lon="1.07182">
        <ele>149.60000610352</ele>
        <time>2014-10-19T09:03:21.000Z</time>
      </trkpt>
      <trkpt lat="48.93365" lon="1.07176">
        <ele>148.60000610352</ele>
        <time>2014-10-19T09:03:22.000Z</time>
      </trkpt>
      <trkpt lat="48.93362" lon="1.07168">
        <ele>148.60000610352</ele>
        <time>2014-10-19T09:03:23.000Z</time>
      </trkpt>
      <trkpt lat="48.9336" lon="1.07161">
        <ele>148.19999694824</ele>
        <time>2014-10-19T09:03:24.000Z</time>
      </trkpt>
      <trkpt lat="48.93359" lon="1.07154">
        <ele>148.19999694824</ele>
        <time>2014-10-19T09:03:25.000Z</time>
      </trkpt>
      <trkpt lat="48.93355" lon="1.07128">
        <ele>147.60000610352</ele>
        <time>2014-10-19T09:03:29.000Z</time>
      </trkpt>
      <trkpt lat="48.93353" lon="1.07126">
        <ele>147.60000610352</ele>
        <time>2014-10-19T09:03:30.000Z</time>
      </trkpt>
      <trkpt lat="48.9335" lon="1.07125">
        <ele>147.19999694824</ele>
        <time>2014-10-19T09:03:31.000Z</time>
      </trkpt>
      <trkpt lat="48.93347" lon="1.07124">
        <ele>147.19999694824</ele>
        <time>2014-10-19T09:03:32.000Z</time>
      </trkpt>
      <trkpt lat="48.93344" lon="1.07121">
        <ele>147.19999694824</ele>
        <time>2014-10-19T09:03:33.000Z</time>
      </trkpt>
      <trkpt lat="48.93341" lon="1.07118">
        <ele>147.19999694824</ele>
        <time>2014-10-19T09:03:34.000Z</time>
      </trkpt>
      <trkpt lat="48.93338" lon="1.07113">
        <ele>147.19999694824</ele>
        <time>2014-10-19T09:03:35.000Z</time>
      </trkpt>
      <trkpt lat="48.93318" lon="1.07064">
        <ele>145.39999389648</ele>
        <time>2014-10-19T09:03:45.000Z</time>
      </trkpt>
      <trkpt lat="48.93315" lon="1.07062">
        <ele>145.39999389648</ele>
        <time>2014-10-19T09:03:46.000Z</time>
      </trkpt>
      <trkpt lat="48.93311" lon="1.07063">
        <ele>145.39999389648</ele>
        <time>2014-10-19T09:03:47.000Z</time>
      </trkpt>
      <trkpt lat="48.93308" lon="1.07064">
        <ele>145.39999389648</ele>
        <time>2014-10-19T09:03:48.000Z</time>
      </trkpt>
      <trkpt lat="48.93306" lon="1.07067">
        <ele>145.39999389648</ele>
        <time>2014-10-19T09:03:49.000Z</time>
      </trkpt>
      <trkpt lat="48.9327" lon="1.07099">
        <ele>145.80000305176</ele>
        <time>2014-10-19T09:04:00.000Z</time>
      </trkpt>
      <trkpt lat="48.9325" lon="1.0711">
        <ele>145.39999389648</ele>
        <time>2014-10-19T09:04:06.000Z</time>
      </trkpt>
      <trkpt lat="48.93247" lon="1.07109">
        <ele>145.39999389648</ele>
        <time>2014-10-19T09:04:07.000Z</time>
      </trkpt>
      <trkpt lat="48.93244" lon="1.07108">
        <ele>145.80000305176</ele>
        <time>2014-10-19T09:04:08.000Z</time>
      </trkpt>
      <trkpt lat="48.93241" lon="1.07106">
        <ele>145.80000305176</ele>
        <time>2014-10-19T09:04:09.000Z</time>
      </trkpt>
      <trkpt lat="48.93238" lon="1.07105">
        <ele>145.80000305176</ele>
        <time>2014-10-19T09:04:10.000Z</time>
      </trkpt>
      <trkpt lat="48.93236" lon="1.07105">
        <ele>145.80000305176</ele>
        <time>2014-10-19T09:04:11.000Z</time>
      </trkpt>
      <trkpt lat="48.93216" lon="1.07098">
        <ele>146.19999694824</ele>
        <time>2014-10-19T09:04:23.000Z</time>
      </trkpt>
      <trkpt lat="48.93203" lon="1.07093">
        <ele>148.19999694824</ele>
        <time>2014-10-19T09:04:29.000Z</time>
      </trkpt>
      <trkpt lat="48.93199" lon="1.07091">
        <ele>148.19999694824</ele>
        <time>2014-10-19T09:04:31.000Z</time>
      </trkpt>
      <trkpt lat="48.93193" lon="1.07089">
        <ele>148.19999694824</ele>
        <time>2014-10-19T09:04:34.000Z</time>
      </trkpt>
      <trkpt lat="48.9318" lon="1.07081">
        <ele>148.60000610352</ele>
        <time>2014-10-19T09:04:40.000Z</time>
      </trkpt>
      <trkpt lat="48.93177" lon="1.07081">
        <ele>149.19999694824</ele>
        <time>2014-10-19T09:04:41.000Z</time>
      </trkpt>
      <trkpt lat="48.93175" lon="1.0708">
        <ele>149.19999694824</ele>
        <time>2014-10-19T09:04:42.000Z</time>
      </trkpt>
      <trkpt lat="48.93171" lon="1.07079">
        <ele>148.60000610352</ele>
        <time>2014-10-19T09:04:43.000Z</time>
      </trkpt>
      <trkpt lat="48.93168" lon="1.07078">
        <ele>148.60000610352</ele>
        <time>2014-10-19T09:04:44.000Z</time>
      </trkpt>
      <trkpt lat="48.93165" lon="1.07077">
        <ele>148.60000610352</ele>
        <time>2014-10-19T09:04:45.000Z</time>
      </trkpt>
      <trkpt lat="48.93162" lon="1.07076">
        <ele>149.19999694824</ele>
        <time>2014-10-19T09:04:46.000Z</time>
      </trkpt>
      <trkpt lat="48.93159" lon="1.07076">
        <ele>149.19999694824</ele>
        <time>2014-10-19T09:04:47.000Z</time>
      </trkpt>
      <trkpt lat="48.93156" lon="1.07075">
        <ele>149.19999694824</ele>
        <time>2014-10-19T09:04:48.000Z</time>
      </trkpt>
      <trkpt lat="48.93154" lon="1.07075">
        <ele>149.19999694824</ele>
        <time>2014-10-19T09:04:49.000Z</time>
      </trkpt>
      <trkpt lat="48.93151" lon="1.07074">
        <ele>149.19999694824</ele>
        <time>2014-10-19T09:04:50.000Z</time>
      </trkpt>
      <trkpt lat="48.93148" lon="1.07073">
        <ele>149.19999694824</ele>
        <time>2014-10-19T09:04:51.000Z</time>
      </trkpt>
      <trkpt lat="48.93117" lon="1.07067">
        <ele>153</ele>
        <time>2014-10-19T09:05:03.000Z</time>
      </trkpt>
      <trkpt lat="48.93112" lon="1.07064">
        <ele>152.60000610352</ele>
        <time>2014-10-19T09:05:05.000Z</time>
      </trkpt>
      <trkpt lat="48.93108" lon="1.07062">
        <ele>152.60000610352</ele>
        <time>2014-10-19T09:05:07.000Z</time>
      </trkpt>
      <trkpt lat="48.93105" lon="1.07063">
        <ele>153</ele>
        <time>2014-10-19T09:05:08.000Z</time>
      </trkpt>
      <trkpt lat="48.93099" lon="1.07062">
        <ele>153</ele>
        <time>2014-10-19T09:05:12.000Z</time>
      </trkpt>
      <trkpt lat="48.93096" lon="1.07062">
        <ele>153</ele>
        <time>2014-10-19T09:05:13.000Z</time>
      </trkpt>
      <trkpt lat="48.93068" lon="1.07056">
        <ele>154</ele>
        <time>2014-10-19T09:05:24.000Z</time>
      </trkpt>
      <trkpt lat="48.93057" lon="1.07059">
        <ele>153.39999389648</ele>
        <time>2014-10-19T09:05:27.000Z</time>
      </trkpt>
      <trkpt lat="48.93054" lon="1.0706">
        <ele>153.39999389648</ele>
        <time>2014-10-19T09:05:28.000Z</time>
      </trkpt>
      <trkpt lat="48.93051" lon="1.07061">
        <ele>153.39999389648</ele>
        <time>2014-10-19T09:05:29.000Z</time>
      </trkpt>
      <trkpt lat="48.9305" lon="1.07062">
        <ele>153.39999389648</ele>
        <time>2014-10-19T09:05:30.000Z</time>
      </trkpt>
      <trkpt lat="48.93048" lon="1.07063">
        <ele>153.39999389648</ele>
        <time>2014-10-19T09:05:31.000Z</time>
      </trkpt>
      <trkpt lat="48.93046" lon="1.07064">
        <ele>153.39999389648</ele>
        <time>2014-10-19T09:05:32.000Z</time>
      </trkpt>
      <trkpt lat="48.93045" lon="1.07066">
        <ele>153</ele>
        <time>2014-10-19T09:05:33.000Z</time>
      </trkpt>
      <trkpt lat="48.93038" lon="1.07074">
        <ele>153</ele>
        <time>2014-10-19T09:05:39.000Z</time>
      </trkpt>
      <trkpt lat="48.93036" lon="1.07073">
        <ele>153</ele>
        <time>2014-10-19T09:05:40.000Z</time>
      </trkpt>
      <trkpt lat="48.93034" lon="1.07072">
        <ele>153</ele>
        <time>2014-10-19T09:05:41.000Z</time>
      </trkpt>
      <trkpt lat="48.9303" lon="1.0707">
        <ele>153</ele>
        <time>2014-10-19T09:05:42.000Z</time>
      </trkpt>
      <trkpt lat="48.93027" lon="1.07069">
        <ele>152.60000610352</ele>
        <time>2014-10-19T09:05:43.000Z</time>
      </trkpt>
      <trkpt lat="48.92978" lon="1.07051">
        <ele>153.39999389648</ele>
        <time>2014-10-19T09:05:54.000Z</time>
      </trkpt>
      <trkpt lat="48.92952" lon="1.07046">
        <ele>155</ele>
        <time>2014-10-19T09:05:59.000Z</time>
      </trkpt>
      <trkpt lat="48.92943" lon="1.07038">
        <ele>154.39999389648</ele>
        <time>2014-10-19T09:06:03.000Z</time>
      </trkpt>
      <trkpt lat="48.9294" lon="1.07036">
        <ele>154.39999389648</ele>
        <time>2014-10-19T09:06:04.000Z</time>
      </trkpt>
      <trkpt lat="48.92936" lon="1.07035">
        <ele>154.39999389648</ele>
        <time>2014-10-19T09:06:05.000Z</time>
      </trkpt>
      <trkpt lat="48.92929" lon="1.07033">
        <ele>154.39999389648</ele>
        <time>2014-10-19T09:06:06.000Z</time>
      </trkpt>
      <trkpt lat="48.92922" lon="1.07031">
        <ele>154</ele>
        <time>2014-10-19T09:06:07.000Z</time>
      </trkpt>
      <trkpt lat="48.92885" lon="1.07014">
        <ele>154</ele>
        <time>2014-10-19T09:06:16.000Z</time>
      </trkpt>
      <trkpt lat="48.92874" lon="1.07007">
        <ele>154</ele>
        <time>2014-10-19T09:06:19.000Z</time>
      </trkpt>
      <trkpt lat="48.92868" lon="1.07006">
        <ele>153.39999389648</ele>
        <time>2014-10-19T09:06:20.000Z</time>
      </trkpt>
      <trkpt lat="48.92863" lon="1.07006">
        <ele>153.39999389648</ele>
        <time>2014-10-19T09:06:21.000Z</time>
      </trkpt>
      <trkpt lat="48.92817" lon="1.07008">
        <ele>152</ele>
        <time>2014-10-19T09:06:33.000Z</time>
      </trkpt>
      <trkpt lat="48.92773" lon="1.07012">
        <ele>152.60000610352</ele>
        <time>2014-10-19T09:06:44.000Z</time>
      </trkpt>
      <trkpt lat="48.92735" lon="1.07013">
        <ele>153.39999389648</ele>
        <time>2014-10-19T09:06:54.000Z</time>
      </trkpt>
      <trkpt lat="48.92695" lon="1.07017">
        <ele>153</ele>
        <time>2014-10-19T09:07:06.000Z</time>
      </trkpt>
      <trkpt lat="48.92678" lon="1.07018">
        <ele>152</ele>
        <time>2014-10-19T09:07:16.000Z</time>
      </trkpt>
      <trkpt lat="48.92679" lon="1.0701">
        <ele>150.60000610352</ele>
        <time>2014-10-19T09:07:23.000Z</time>
      </trkpt>
      <trkpt lat="48.9268" lon="1.0701">
        <ele>150.60000610352</ele>
        <time>2014-10-19T09:07:24.000Z</time>
      </trkpt>
      <trkpt lat="48.92682" lon="1.0701">
        <ele>150.60000610352</ele>
        <time>2014-10-19T09:07:25.000Z</time>
      </trkpt>
      <trkpt lat="48.92684" lon="1.07009">
        <ele>150.19999694824</ele>
        <time>2014-10-19T09:07:26.000Z</time>
      </trkpt>
      <trkpt lat="48.92686" lon="1.07009">
        <ele>150.19999694824</ele>
        <time>2014-10-19T09:07:27.000Z</time>
      </trkpt>
      <trkpt lat="48.92688" lon="1.07009">
        <ele>150.19999694824</ele>
        <time>2014-10-19T09:07:28.000Z</time>
      </trkpt>
      <trkpt lat="48.9269" lon="1.0701">
        <ele>150.19999694824</ele>
        <time>2014-10-19T09:07:29.000Z</time>
      </trkpt>
      <trkpt lat="48.92713" lon="1.07012">
        <ele>149.60000610352</ele>
        <time>2014-10-19T09:07:39.000Z</time>
      </trkpt>
      <trkpt lat="48.92715" lon="1.07014">
        <ele>150.19999694824</ele>
        <time>2014-10-19T09:07:40.000Z</time>
      </trkpt>
      <trkpt lat="48.92716" lon="1.07014">
        <ele>150.19999694824</ele>
        <time>2014-10-19T09:07:41.000Z</time>
      </trkpt>
      <trkpt lat="48.92718" lon="1.07015">
        <ele>150.19999694824</ele>
        <time>2014-10-19T09:07:42.000Z</time>
      </trkpt>
      <trkpt lat="48.92719" lon="1.07015">
        <ele>150.19999694824</ele>
        <time>2014-10-19T09:07:43.000Z</time>
      </trkpt>
      <trkpt lat="48.92722" lon="1.07017">
        <ele>150.19999694824</ele>
        <time>2014-10-19T09:07:45.000Z</time>
      </trkpt>
      <trkpt lat="48.92723" lon="1.07018">
        <ele>149.60000610352</ele>
        <time>2014-10-19T09:07:46.000Z</time>
      </trkpt>
      <trkpt lat="48.92725" lon="1.0702">
        <ele>150.19999694824</ele>
        <time>2014-10-19T09:07:47.000Z</time>
      </trkpt>
      <trkpt lat="48.92725" lon="1.07023">
        <ele>149.60000610352</ele>
        <time>2014-10-19T09:07:48.000Z</time>
      </trkpt>
      <trkpt lat="48.92726" lon="1.07026">
        <ele>149.60000610352</ele>
        <time>2014-10-19T09:07:49.000Z</time>
      </trkpt>
      <trkpt lat="48.92728" lon="1.0703">
        <ele>149.19999694824</ele>
        <time>2014-10-19T09:07:50.000Z</time>
      </trkpt>
      <trkpt lat="48.92729" lon="1.07034">
        <ele>148.60000610352</ele>
        <time>2014-10-19T09:07:51.000Z</time>
      </trkpt>
      <trkpt lat="48.92729" lon="1.07039">
        <ele>147.60000610352</ele>
        <time>2014-10-19T09:07:52.000Z</time>
      </trkpt>
      <trkpt lat="48.9273" lon="1.07096">
        <ele>147.19999694824</ele>
        <time>2014-10-19T09:08:06.000Z</time>
      </trkpt>
      <trkpt lat="48.92737" lon="1.07154">
        <ele>145.39999389648</ele>
        <time>2014-10-19T09:08:20.000Z</time>
      </trkpt>
      <trkpt lat="48.92743" lon="1.07194">
        <ele>142</ele>
        <time>2014-10-19T09:08:31.000Z</time>
      </trkpt>
      <trkpt lat="48.92729" lon="1.07243">
        <ele>142.39999389648</ele>
        <time>2014-10-19T09:08:42.000Z</time>
      </trkpt>
      <trkpt lat="48.92722" lon="1.07301">
        <ele>142.80000305176</ele>
        <time>2014-10-19T09:08:53.000Z</time>
      </trkpt>
      <trkpt lat="48.92722" lon="1.07322">
        <ele>142</ele>
        <time>2014-10-19T09:08:56.000Z</time>
      </trkpt>
      <trkpt lat="48.92725" lon="1.07343">
        <ele>142</ele>
        <time>2014-10-19T09:08:59.000Z</time>
      </trkpt>
      <trkpt lat="48.92727" lon="1.07419">
        <ele>142.39999389648</ele>
        <time>2014-10-19T09:09:11.000Z</time>
      </trkpt>
      <trkpt lat="48.92728" lon="1.07447">
        <ele>142.80000305176</ele>
        <time>2014-10-19T09:09:21.000Z</time>
      </trkpt>
      <trkpt lat="48.92728" lon="1.0746">
        <ele>144.39999389648</ele>
        <time>2014-10-19T09:09:32.000Z</time>
      </trkpt>
      <trkpt lat="48.92726" lon="1.07462">
        <ele>144.39999389648</ele>
        <time>2014-10-19T09:09:33.000Z</time>
      </trkpt>
      <trkpt lat="48.92725" lon="1.07464">
        <ele>144.39999389648</ele>
        <time>2014-10-19T09:09:34.000Z</time>
      </trkpt>
      <trkpt lat="48.92723" lon="1.07466">
        <ele>144.39999389648</ele>
        <time>2014-10-19T09:09:35.000Z</time>
      </trkpt>
      <trkpt lat="48.92721" lon="1.07469">
        <ele>144.80000305176</ele>
        <time>2014-10-19T09:09:36.000Z</time>
      </trkpt>
      <trkpt lat="48.9272" lon="1.0747">
        <ele>144.80000305176</ele>
        <time>2014-10-19T09:09:37.000Z</time>
      </trkpt>
      <trkpt lat="48.92718" lon="1.07472">
        <ele>144.80000305176</ele>
        <time>2014-10-19T09:09:38.000Z</time>
      </trkpt>
      <trkpt lat="48.9269" lon="1.07487">
        <ele>146.80000305176</ele>
        <time>2014-10-19T09:09:49.000Z</time>
      </trkpt>
      <trkpt lat="48.9265" lon="1.0752">
        <ele>146.19999694824</ele>
        <time>2014-10-19T09:10:01.000Z</time>
      </trkpt>
      <trkpt lat="48.92606" lon="1.07559">
        <ele>147.60000610352</ele>
        <time>2014-10-19T09:10:13.000Z</time>
      </trkpt>
      <trkpt lat="48.92604" lon="1.07563">
        <ele>147.60000610352</ele>
        <time>2014-10-19T09:10:14.000Z</time>
      </trkpt>
      <trkpt lat="48.92576" lon="1.07593">
        <ele>148.19999694824</ele>
        <time>2014-10-19T09:10:23.000Z</time>
      </trkpt>
      <trkpt lat="48.92574" lon="1.07597">
        <ele>148.19999694824</ele>
        <time>2014-10-19T09:10:24.000Z</time>
      </trkpt>
      <trkpt lat="48.92571" lon="1.076">
        <ele>148.19999694824</ele>
        <time>2014-10-19T09:10:25.000Z</time>
      </trkpt>
      <trkpt lat="48.92568" lon="1.07602">
        <ele>148.60000610352</ele>
        <time>2014-10-19T09:10:26.000Z</time>
      </trkpt>
      <trkpt lat="48.92565" lon="1.07603">
        <ele>148.19999694824</ele>
        <time>2014-10-19T09:10:27.000Z</time>
      </trkpt>
      <trkpt lat="48.92562" lon="1.07603">
        <ele>148.19999694824</ele>
        <time>2014-10-19T09:10:28.000Z</time>
      </trkpt>
      <trkpt lat="48.92559" lon="1.07603">
        <ele>147.60000610352</ele>
        <time>2014-10-19T09:10:29.000Z</time>
      </trkpt>
      <trkpt lat="48.92548" lon="1.07602">
        <ele>148.19999694824</ele>
        <time>2014-10-19T09:10:32.000Z</time>
      </trkpt>
      <trkpt lat="48.92536" lon="1.07601">
        <ele>148.19999694824</ele>
        <time>2014-10-19T09:10:34.000Z</time>
      </trkpt>
      <trkpt lat="48.9251" lon="1.07601">
        <ele>148.60000610352</ele>
        <time>2014-10-19T09:10:38.000Z</time>
      </trkpt>
      <trkpt lat="48.92503" lon="1.07602">
        <ele>148.60000610352</ele>
        <time>2014-10-19T09:10:39.000Z</time>
      </trkpt>
      <trkpt lat="48.92453" lon="1.07605">
        <ele>149.19999694824</ele>
        <time>2014-10-19T09:10:47.000Z</time>
      </trkpt>
      <trkpt lat="48.92417" lon="1.07613">
        <ele>149.60000610352</ele>
        <time>2014-10-19T09:10:53.000Z</time>
      </trkpt>
      <trkpt lat="48.92378" lon="1.07623">
        <ele>150.60000610352</ele>
        <time>2014-10-19T09:11:01.000Z</time>
      </trkpt>
      <trkpt lat="48.92374" lon="1.07622">
        <ele>150.60000610352</ele>
        <time>2014-10-19T09:11:02.000Z</time>
      </trkpt>
      <trkpt lat="48.9233" lon="1.07619">
        <ele>150.60000610352</ele>
        <time>2014-10-19T09:11:14.000Z</time>
      </trkpt>
      <trkpt lat="48.92322" lon="1.07613">
        <ele>149.19999694824</ele>
        <time>2014-10-19T09:11:18.000Z</time>
      </trkpt>
      <trkpt lat="48.9232" lon="1.07614">
        <ele>149.19999694824</ele>
        <time>2014-10-19T09:11:19.000Z</time>
      </trkpt>
      <trkpt lat="48.92317" lon="1.07616">
        <ele>149.19999694824</ele>
        <time>2014-10-19T09:11:20.000Z</time>
      </trkpt>
      <trkpt lat="48.92315" lon="1.0762">
        <ele>149.19999694824</ele>
        <time>2014-10-19T09:11:21.000Z</time>
      </trkpt>
      <trkpt lat="48.92313" lon="1.07624">
        <ele>149.60000610352</ele>
        <time>2014-10-19T09:11:22.000Z</time>
      </trkpt>
      <trkpt lat="48.9231" lon="1.07628">
        <ele>149.60000610352</ele>
        <time>2014-10-19T09:11:23.000Z</time>
      </trkpt>
      <trkpt lat="48.92307" lon="1.07631">
        <ele>149.60000610352</ele>
        <time>2014-10-19T09:11:24.000Z</time>
      </trkpt>
      <trkpt lat="48.92289" lon="1.07677">
        <ele>149.60000610352</ele>
        <time>2014-10-19T09:11:34.000Z</time>
      </trkpt>
      <trkpt lat="48.92287" lon="1.07682">
        <ele>149.60000610352</ele>
        <time>2014-10-19T09:11:35.000Z</time>
      </trkpt>
      <trkpt lat="48.92284" lon="1.07687">
        <ele>149.19999694824</ele>
        <time>2014-10-19T09:11:36.000Z</time>
      </trkpt>
      <trkpt lat="48.92258" lon="1.07724">
        <ele>149.19999694824</ele>
        <time>2014-10-19T09:11:45.000Z</time>
      </trkpt>
      <trkpt lat="48.92254" lon="1.07729">
        <ele>149.19999694824</ele>
        <time>2014-10-19T09:11:46.000Z</time>
      </trkpt>
      <trkpt lat="48.9222" lon="1.07786">
        <ele>148.19999694824</ele>
        <time>2014-10-19T09:11:56.000Z</time>
      </trkpt>
      <trkpt lat="48.92214" lon="1.07797">
        <ele>145.80000305176</ele>
        <time>2014-10-19T09:12:08.000Z</time>
      </trkpt>
      <trkpt lat="48.92214" lon="1.07799">
        <ele>145.80000305176</ele>
        <time>2014-10-19T09:12:10.000Z</time>
      </trkpt>
      <trkpt lat="48.92215" lon="1.07802">
        <ele>145.39999389648</ele>
        <time>2014-10-19T09:12:12.000Z</time>
      </trkpt>
      <trkpt lat="48.92214" lon="1.07805">
        <ele>144.80000305176</ele>
        <time>2014-10-19T09:12:13.000Z</time>
      </trkpt>
      <trkpt lat="48.92213" lon="1.07807">
        <ele>144.80000305176</ele>
        <time>2014-10-19T09:12:14.000Z</time>
      </trkpt>
      <trkpt lat="48.92212" lon="1.07809">
        <ele>144.80000305176</ele>
        <time>2014-10-19T09:12:15.000Z</time>
      </trkpt>
      <trkpt lat="48.9221" lon="1.07812">
        <ele>144.80000305176</ele>
        <time>2014-10-19T09:12:16.000Z</time>
      </trkpt>
      <trkpt lat="48.92209" lon="1.07815">
        <ele>144.80000305176</ele>
        <time>2014-10-19T09:12:17.000Z</time>
      </trkpt>
      <trkpt lat="48.92208" lon="1.07818">
        <ele>144.80000305176</ele>
        <time>2014-10-19T09:12:18.000Z</time>
      </trkpt>
      <trkpt lat="48.92202" lon="1.07838">
        <ele>144.39999389648</ele>
        <time>2014-10-19T09:12:23.000Z</time>
      </trkpt>
      <trkpt lat="48.922" lon="1.07839">
        <ele>144.39999389648</ele>
        <time>2014-10-19T09:12:24.000Z</time>
      </trkpt>
      <trkpt lat="48.92196" lon="1.07842">
        <ele>143.80000305176</ele>
        <time>2014-10-19T09:12:27.000Z</time>
      </trkpt>
      <trkpt lat="48.92194" lon="1.0784">
        <ele>143.80000305176</ele>
        <time>2014-10-19T09:12:28.000Z</time>
      </trkpt>
      <trkpt lat="48.92192" lon="1.07839">
        <ele>143.80000305176</ele>
        <time>2014-10-19T09:12:29.000Z</time>
      </trkpt>
      <trkpt lat="48.9219" lon="1.07837">
        <ele>143.39999389648</ele>
        <time>2014-10-19T09:12:30.000Z</time>
      </trkpt>
      <trkpt lat="48.92188" lon="1.07834">
        <ele>143.39999389648</ele>
        <time>2014-10-19T09:12:31.000Z</time>
      </trkpt>
      <trkpt lat="48.92185" lon="1.07832">
        <ele>143.39999389648</ele>
        <time>2014-10-19T09:12:32.000Z</time>
      </trkpt>
      <trkpt lat="48.92167" lon="1.0782">
        <ele>146.19999694824</ele>
        <time>2014-10-19T09:12:43.000Z</time>
      </trkpt>
      <trkpt lat="48.92159" lon="1.0782">
        <ele>146.19999694824</ele>
        <time>2014-10-19T09:12:54.000Z</time>
      </trkpt>
      <trkpt lat="48.92159" lon="1.07819">
        <ele>146.80000305176</ele>
        <time>2014-10-19T09:12:55.000Z</time>
      </trkpt>
      <trkpt lat="48.92158" lon="1.07812">
        <ele>147.19999694824</ele>
        <time>2014-10-19T09:12:59.000Z</time>
      </trkpt>
      <trkpt lat="48.92154" lon="1.07807">
        <ele>147.19999694824</ele>
        <time>2014-10-19T09:13:01.000Z</time>
      </trkpt>
      <trkpt lat="48.92149" lon="1.07804">
        <ele>147.19999694824</ele>
        <time>2014-10-19T09:13:02.000Z</time>
      </trkpt>
      <trkpt lat="48.92146" lon="1.07802">
        <ele>147.19999694824</ele>
        <time>2014-10-19T09:13:03.000Z</time>
      </trkpt>
      <trkpt lat="48.92141" lon="1.07799">
        <ele>147.19999694824</ele>
        <time>2014-10-19T09:13:04.000Z</time>
      </trkpt>
      <trkpt lat="48.92136" lon="1.07796">
        <ele>147.60000610352</ele>
        <time>2014-10-19T09:13:05.000Z</time>
      </trkpt>
      <trkpt lat="48.92132" lon="1.07794">
        <ele>147.60000610352</ele>
        <time>2014-10-19T09:13:06.000Z</time>
      </trkpt>
      <trkpt lat="48.92127" lon="1.07792">
        <ele>148.19999694824</ele>
        <time>2014-10-19T09:13:07.000Z</time>
      </trkpt>
      <trkpt lat="48.92123" lon="1.0779">
        <ele>148.19999694824</ele>
        <time>2014-10-19T09:13:08.000Z</time>
      </trkpt>
      <trkpt lat="48.92119" lon="1.07788">
        <ele>148.19999694824</ele>
        <time>2014-10-19T09:13:09.000Z</time>
      </trkpt>
      <trkpt lat="48.92114" lon="1.07787">
        <ele>148.19999694824</ele>
        <time>2014-10-19T09:13:10.000Z</time>
      </trkpt>
      <trkpt lat="48.9207" lon="1.07756">
        <ele>147.60000610352</ele>
        <time>2014-10-19T09:13:22.000Z</time>
      </trkpt>
      <trkpt lat="48.92049" lon="1.07731">
        <ele>146.80000305176</ele>
        <time>2014-10-19T09:13:31.000Z</time>
      </trkpt>
      <trkpt lat="48.92047" lon="1.0773">
        <ele>146.80000305176</ele>
        <time>2014-10-19T09:13:32.000Z</time>
      </trkpt>
      <trkpt lat="48.92044" lon="1.07728">
        <ele>146.80000305176</ele>
        <time>2014-10-19T09:13:33.000Z</time>
      </trkpt>
      <trkpt lat="48.92041" lon="1.07727">
        <ele>146.19999694824</ele>
        <time>2014-10-19T09:13:34.000Z</time>
      </trkpt>
      <trkpt lat="48.92038" lon="1.07724">
        <ele>146.19999694824</ele>
        <time>2014-10-19T09:13:35.000Z</time>
      </trkpt>
      <trkpt lat="48.92034" lon="1.07723">
        <ele>146.19999694824</ele>
        <time>2014-10-19T09:13:36.000Z</time>
      </trkpt>
      <trkpt lat="48.92004" lon="1.07711">
        <ele>146.80000305176</ele>
        <time>2014-10-19T09:13:47.000Z</time>
      </trkpt>
      <trkpt lat="48.91962" lon="1.07699">
        <ele>146.19999694824</ele>
        <time>2014-10-19T09:13:57.000Z</time>
      </trkpt>
      <trkpt lat="48.91918" lon="1.07685">
        <ele>146.80000305176</ele>
        <time>2014-10-19T09:14:06.000Z</time>
      </trkpt>
      <trkpt lat="48.91889" lon="1.07677">
        <ele>147.19999694824</ele>
        <time>2014-10-19T09:14:11.000Z</time>
      </trkpt>
      <trkpt lat="48.91883" lon="1.07676">
        <ele>147.19999694824</ele>
        <time>2014-10-19T09:14:12.000Z</time>
      </trkpt>
      <trkpt lat="48.91878" lon="1.07677">
        <ele>147.19999694824</ele>
        <time>2014-10-19T09:14:13.000Z</time>
      </trkpt>
      <trkpt lat="48.91875" lon="1.0768">
        <ele>147.60000610352</ele>
        <time>2014-10-19T09:14:14.000Z</time>
      </trkpt>
      <trkpt lat="48.91871" lon="1.07683">
        <ele>147.60000610352</ele>
        <time>2014-10-19T09:14:15.000Z</time>
      </trkpt>
      <trkpt lat="48.91869" lon="1.07685">
        <ele>147.60000610352</ele>
        <time>2014-10-19T09:14:16.000Z</time>
      </trkpt>
      <trkpt lat="48.91868" lon="1.07689">
        <ele>147.60000610352</ele>
        <time>2014-10-19T09:14:17.000Z</time>
      </trkpt>
      <trkpt lat="48.91868" lon="1.07693">
        <ele>147.60000610352</ele>
        <time>2014-10-19T09:14:18.000Z</time>
      </trkpt>
      <trkpt lat="48.91874" lon="1.07734">
        <ele>147.60000610352</ele>
        <time>2014-10-19T09:14:28.000Z</time>
      </trkpt>
      <trkpt lat="48.91882" lon="1.07769">
        <ele>147.60000610352</ele>
        <time>2014-10-19T09:14:36.000Z</time>
      </trkpt>
      <trkpt lat="48.91883" lon="1.07771">
        <ele>147.60000610352</ele>
        <time>2014-10-19T09:14:37.000Z</time>
      </trkpt>
      <trkpt lat="48.91883" lon="1.07774">
        <ele>147.60000610352</ele>
        <time>2014-10-19T09:14:38.000Z</time>
      </trkpt>
      <trkpt lat="48.91884" lon="1.07781">
        <ele>147.19999694824</ele>
        <time>2014-10-19T09:14:41.000Z</time>
      </trkpt>
      <trkpt lat="48.91882" lon="1.0781">
        <ele>146.19999694824</ele>
        <time>2014-10-19T09:14:47.000Z</time>
      </trkpt>
      <trkpt lat="48.91885" lon="1.07817">
        <ele>146.19999694824</ele>
        <time>2014-10-19T09:14:48.000Z</time>
      </trkpt>
      <trkpt lat="48.91913" lon="1.07904">
        <ele>147.19999694824</ele>
        <time>2014-10-19T09:15:01.000Z</time>
      </trkpt>
      <trkpt lat="48.91915" lon="1.07911">
        <ele>147.19999694824</ele>
        <time>2014-10-19T09:15:02.000Z</time>
      </trkpt>
      <trkpt lat="48.91915" lon="1.07919">
        <ele>147.19999694824</ele>
        <time>2014-10-19T09:15:03.000Z</time>
      </trkpt>
      <trkpt lat="48.91916" lon="1.07926">
        <ele>147.19999694824</ele>
        <time>2014-10-19T09:15:04.000Z</time>
      </trkpt>
      <trkpt lat="48.91921" lon="1.07965">
        <ele>146.80000305176</ele>
        <time>2014-10-19T09:15:09.000Z</time>
      </trkpt>
      <trkpt lat="48.91923" lon="1.0801">
        <ele>146.19999694824</ele>
        <time>2014-10-19T09:15:14.000Z</time>
      </trkpt>
      <trkpt lat="48.91924" lon="1.08018">
        <ele>145.80000305176</ele>
        <time>2014-10-19T09:15:15.000Z</time>
      </trkpt>
      <trkpt lat="48.91927" lon="1.0804">
        <ele>145.80000305176</ele>
        <time>2014-10-19T09:15:18.000Z</time>
      </trkpt>
      <trkpt lat="48.91932" lon="1.08048">
        <ele>145.80000305176</ele>
        <time>2014-10-19T09:15:19.000Z</time>
      </trkpt>
      <trkpt lat="48.91943" lon="1.08075">
        <ele>146.19999694824</ele>
        <time>2014-10-19T09:15:23.000Z</time>
      </trkpt>
      <trkpt lat="48.91952" lon="1.08108">
        <ele>146.80000305176</ele>
        <time>2014-10-19T09:15:28.000Z</time>
      </trkpt>
      <trkpt lat="48.91962" lon="1.08142">
        <ele>146.80000305176</ele>
        <time>2014-10-19T09:15:34.000Z</time>
      </trkpt>
      <trkpt lat="48.91971" lon="1.08166">
        <ele>146.80000305176</ele>
        <time>2014-10-19T09:15:38.000Z</time>
      </trkpt>
      <trkpt lat="48.91974" lon="1.08172">
        <ele>147.19999694824</ele>
        <time>2014-10-19T09:15:39.000Z</time>
      </trkpt>
      <trkpt lat="48.91977" lon="1.08177">
        <ele>147.19999694824</ele>
        <time>2014-10-19T09:15:40.000Z</time>
      </trkpt>
      <trkpt lat="48.9198" lon="1.08181">
        <ele>147.19999694824</ele>
        <time>2014-10-19T09:15:41.000Z</time>
      </trkpt>
      <trkpt lat="48.91983" lon="1.08185">
        <ele>147.60000610352</ele>
        <time>2014-10-19T09:15:42.000Z</time>
      </trkpt>
      <trkpt lat="48.91986" lon="1.08189">
        <ele>147.60000610352</ele>
        <time>2014-10-19T09:15:43.000Z</time>
      </trkpt>
      <trkpt lat="48.9199" lon="1.08192">
        <ele>148.19999694824</ele>
        <time>2014-10-19T09:15:44.000Z</time>
      </trkpt>
      <trkpt lat="48.91993" lon="1.08196">
        <ele>148.60000610352</ele>
        <time>2014-10-19T09:15:45.000Z</time>
      </trkpt>
      <trkpt lat="48.91995" lon="1.082">
        <ele>149.19999694824</ele>
        <time>2014-10-19T09:15:46.000Z</time>
      </trkpt>
      <trkpt lat="48.92004" lon="1.08219">
        <ele>150.60000610352</ele>
        <time>2014-10-19T09:15:50.000Z</time>
      </trkpt>
      <trkpt lat="48.92006" lon="1.08224">
        <ele>150.60000610352</ele>
        <time>2014-10-19T09:15:51.000Z</time>
      </trkpt>
      <trkpt lat="48.92012" lon="1.0828">
        <ele>150.60000610352</ele>
        <time>2014-10-19T09:16:01.000Z</time>
      </trkpt>
      <trkpt lat="48.9201" lon="1.08344">
        <ele>148.60000610352</ele>
        <time>2014-10-19T09:16:12.000Z</time>
      </trkpt>
      <trkpt lat="48.92016" lon="1.08406">
        <ele>146.19999694824</ele>
        <time>2014-10-19T09:16:23.000Z</time>
      </trkpt>
      <trkpt lat="48.9203" lon="1.08477">
        <ele>147.19999694824</ele>
        <time>2014-10-19T09:16:38.000Z</time>
      </trkpt>
      <trkpt lat="48.92053" lon="1.08555">
        <ele>148.19999694824</ele>
        <time>2014-10-19T09:16:56.000Z</time>
      </trkpt>
      <trkpt lat="48.92079" lon="1.08626">
        <ele>147.60000610352</ele>
        <time>2014-10-19T09:17:14.000Z</time>
      </trkpt>
      <trkpt lat="48.92096" lon="1.08683">
        <ele>149.19999694824</ele>
        <time>2014-10-19T09:17:28.000Z</time>
      </trkpt>
      <trkpt lat="48.92107" lon="1.08738">
        <ele>151.60000610352</ele>
        <time>2014-10-19T09:17:41.000Z</time>
      </trkpt>
      <trkpt lat="48.92122" lon="1.08796">
        <ele>151.60000610352</ele>
        <time>2014-10-19T09:17:52.000Z</time>
      </trkpt>
      <trkpt lat="48.92133" lon="1.08882">
        <ele>151.60000610352</ele>
        <time>2014-10-19T09:18:07.000Z</time>
      </trkpt>
      <trkpt lat="48.92141" lon="1.08893">
        <ele>151.60000610352</ele>
        <time>2014-10-19T09:18:15.000Z</time>
      </trkpt>
      <trkpt lat="48.92141" lon="1.08895">
        <ele>152</ele>
        <time>2014-10-19T09:18:40.000Z</time>
      </trkpt>
      <trkpt lat="48.9214" lon="1.08892">
        <ele>152</ele>
        <time>2014-10-19T09:19:07.000Z</time>
      </trkpt>
      <trkpt lat="48.92141" lon="1.08893">
        <ele>153.39999389648</ele>
        <time>2014-10-19T09:19:33.000Z</time>
      </trkpt>
      <trkpt lat="48.9214" lon="1.08891">
        <ele>154.39999389648</ele>
        <time>2014-10-19T09:19:57.000Z</time>
      </trkpt>
      <trkpt lat="48.92141" lon="1.08893">
        <ele>155</ele>
        <time>2014-10-19T09:20:20.000Z</time>
      </trkpt>
      <trkpt lat="48.92139" lon="1.08893">
        <ele>152.60000610352</ele>
        <time>2014-10-19T09:20:41.000Z</time>
      </trkpt>
      <trkpt lat="48.92141" lon="1.08894">
        <ele>152.60000610352</ele>
        <time>2014-10-19T09:20:53.000Z</time>
      </trkpt>
      <trkpt lat="48.92143" lon="1.08893">
        <ele>153</ele>
        <time>2014-10-19T09:20:54.000Z</time>
      </trkpt>
      <trkpt lat="48.92145" lon="1.08892">
        <ele>153</ele>
        <time>2014-10-19T09:20:55.000Z</time>
      </trkpt>
      <trkpt lat="48.92148" lon="1.0889">
        <ele>153.39999389648</ele>
        <time>2014-10-19T09:20:56.000Z</time>
      </trkpt>
      <trkpt lat="48.92151" lon="1.08888">
        <ele>153.39999389648</ele>
        <time>2014-10-19T09:20:57.000Z</time>
      </trkpt>
      <trkpt lat="48.92154" lon="1.08885">
        <ele>153.39999389648</ele>
        <time>2014-10-19T09:20:58.000Z</time>
      </trkpt>
      <trkpt lat="48.92166" lon="1.08877">
        <ele>153.39999389648</ele>
        <time>2014-10-19T09:21:01.000Z</time>
      </trkpt>
      <trkpt lat="48.9217" lon="1.08877">
        <ele>153.39999389648</ele>
        <time>2014-10-19T09:21:02.000Z</time>
      </trkpt>
      <trkpt lat="48.92175" lon="1.0888">
        <ele>154</ele>
        <time>2014-10-19T09:21:03.000Z</time>
      </trkpt>
      <trkpt lat="48.92177" lon="1.08884">
        <ele>154</ele>
        <time>2014-10-19T09:21:04.000Z</time>
      </trkpt>
      <trkpt lat="48.9218" lon="1.08888">
        <ele>154.39999389648</ele>
        <time>2014-10-19T09:21:05.000Z</time>
      </trkpt>
      <trkpt lat="48.92186" lon="1.08898">
        <ele>154</ele>
        <time>2014-10-19T09:21:07.000Z</time>
      </trkpt>
      <trkpt lat="48.92189" lon="1.08902">
        <ele>154</ele>
        <time>2014-10-19T09:21:08.000Z</time>
      </trkpt>
      <trkpt lat="48.9223" lon="1.08998">
        <ele>155</ele>
        <time>2014-10-19T09:21:24.000Z</time>
      </trkpt>
      <trkpt lat="48.92234" lon="1.0901">
        <ele>155</ele>
        <time>2014-10-19T09:21:26.000Z</time>
      </trkpt>
      <trkpt lat="48.92243" lon="1.09043">
        <ele>155.39999389648</ele>
        <time>2014-10-19T09:21:32.000Z</time>
      </trkpt>
      <trkpt lat="48.92241" lon="1.09046">
        <ele>155.39999389648</ele>
        <time>2014-10-19T09:21:33.000Z</time>
      </trkpt>
      <trkpt lat="48.92239" lon="1.09048">
        <ele>155.80000305176</ele>
        <time>2014-10-19T09:21:34.000Z</time>
      </trkpt>
      <trkpt lat="48.92228" lon="1.09054">
        <ele>155.80000305176</ele>
        <time>2014-10-19T09:21:37.000Z</time>
      </trkpt>
      <trkpt lat="48.92165" lon="1.09112">
        <ele>155.80000305176</ele>
        <time>2014-10-19T09:21:56.000Z</time>
      </trkpt>
      <trkpt lat="48.92126" lon="1.09149">
        <ele>155.80000305176</ele>
        <time>2014-10-19T09:22:10.000Z</time>
      </trkpt>
      <trkpt lat="48.92091" lon="1.09172">
        <ele>155.80000305176</ele>
        <time>2014-10-19T09:22:23.000Z</time>
      </trkpt>
      <trkpt lat="48.92036" lon="1.09191">
        <ele>154.39999389648</ele>
        <time>2014-10-19T09:22:38.000Z</time>
      </trkpt>
      <trkpt lat="48.91978" lon="1.09226">
        <ele>154</ele>
        <time>2014-10-19T09:22:54.000Z</time>
      </trkpt>
      <trkpt lat="48.91942" lon="1.09262">
        <ele>154.39999389648</ele>
        <time>2014-10-19T09:23:06.000Z</time>
      </trkpt>
      <trkpt lat="48.91919" lon="1.0929">
        <ele>155</ele>
        <time>2014-10-19T09:23:15.000Z</time>
      </trkpt>
      <trkpt lat="48.91916" lon="1.09288">
        <ele>155</ele>
        <time>2014-10-19T09:23:16.000Z</time>
      </trkpt>
      <trkpt lat="48.91914" lon="1.09283">
        <ele>154.39999389648</ele>
        <time>2014-10-19T09:23:17.000Z</time>
      </trkpt>
      <trkpt lat="48.91914" lon="1.09279">
        <ele>154.39999389648</ele>
        <time>2014-10-19T09:23:18.000Z</time>
      </trkpt>
      <trkpt lat="48.91913" lon="1.09275">
        <ele>154.39999389648</ele>
        <time>2014-10-19T09:23:19.000Z</time>
      </trkpt>
      <trkpt lat="48.91883" lon="1.092">
        <ele>154</ele>
        <time>2014-10-19T09:23:32.000Z</time>
      </trkpt>
      <trkpt lat="48.91857" lon="1.09147">
        <ele>153</ele>
        <time>2014-10-19T09:23:40.000Z</time>
      </trkpt>
      <trkpt lat="48.91852" lon="1.09142">
        <ele>153</ele>
        <time>2014-10-19T09:23:41.000Z</time>
      </trkpt>
      <trkpt lat="48.91846" lon="1.0914">
        <ele>152.60000610352</ele>
        <time>2014-10-19T09:23:42.000Z</time>
      </trkpt>
      <trkpt lat="48.91839" lon="1.09141">
        <ele>152.60000610352</ele>
        <time>2014-10-19T09:23:43.000Z</time>
      </trkpt>
      <trkpt lat="48.91836" lon="1.09142">
        <ele>152.60000610352</ele>
        <time>2014-10-19T09:23:44.000Z</time>
      </trkpt>
      <trkpt lat="48.91831" lon="1.09143">
        <ele>152.60000610352</ele>
        <time>2014-10-19T09:23:45.000Z</time>
      </trkpt>
      <trkpt lat="48.91826" lon="1.09144">
        <ele>152.60000610352</ele>
        <time>2014-10-19T09:23:46.000Z</time>
      </trkpt>
      <trkpt lat="48.91821" lon="1.09146">
        <ele>152</ele>
        <time>2014-10-19T09:23:47.000Z</time>
      </trkpt>
      <trkpt lat="48.91816" lon="1.09148">
        <ele>152</ele>
        <time>2014-10-19T09:23:48.000Z</time>
      </trkpt>
      <trkpt lat="48.91753" lon="1.09203">
        <ele>153</ele>
        <time>2014-10-19T09:24:03.000Z</time>
      </trkpt>
      <trkpt lat="48.9175" lon="1.09207">
        <ele>153</ele>
        <time>2014-10-19T09:24:04.000Z</time>
      </trkpt>
      <trkpt lat="48.91747" lon="1.09211">
        <ele>153</ele>
        <time>2014-10-19T09:24:05.000Z</time>
      </trkpt>
      <trkpt lat="48.91744" lon="1.09215">
        <ele>153</ele>
        <time>2014-10-19T09:24:06.000Z</time>
      </trkpt>
      <trkpt lat="48.91741" lon="1.09219">
        <ele>152.60000610352</ele>
        <time>2014-10-19T09:24:07.000Z</time>
      </trkpt>
      <trkpt lat="48.91738" lon="1.09224">
        <ele>152.60000610352</ele>
        <time>2014-10-19T09:24:08.000Z</time>
      </trkpt>
      <trkpt lat="48.91736" lon="1.09228">
        <ele>152.60000610352</ele>
        <time>2014-10-19T09:24:09.000Z</time>
      </trkpt>
      <trkpt lat="48.91723" lon="1.09248">
        <ele>152.60000610352</ele>
        <time>2014-10-19T09:24:13.000Z</time>
      </trkpt>
      <trkpt lat="48.91719" lon="1.09252">
        <ele>152.60000610352</ele>
        <time>2014-10-19T09:24:14.000Z</time>
      </trkpt>
      <trkpt lat="48.91685" lon="1.09306">
        <ele>153.39999389648</ele>
        <time>2014-10-19T09:24:26.000Z</time>
      </trkpt>
      <trkpt lat="48.91653" lon="1.09351">
        <ele>154</ele>
        <time>2014-10-19T09:24:38.000Z</time>
      </trkpt>
      <trkpt lat="48.91618" lon="1.09395">
        <ele>155</ele>
        <time>2014-10-19T09:24:52.000Z</time>
      </trkpt>
      <trkpt lat="48.91589" lon="1.09423">
        <ele>155.39999389648</ele>
        <time>2014-10-19T09:25:03.000Z</time>
      </trkpt>
      <trkpt lat="48.91556" lon="1.09448">
        <ele>155.80000305176</ele>
        <time>2014-10-19T09:25:14.000Z</time>
      </trkpt>
      <trkpt lat="48.91508" lon="1.09478">
        <ele>155</ele>
        <time>2014-10-19T09:25:29.000Z</time>
      </trkpt>
      <trkpt lat="48.91455" lon="1.09487">
        <ele>153</ele>
        <time>2014-10-19T09:25:42.000Z</time>
      </trkpt>
      <trkpt lat="48.91394" lon="1.0949">
        <ele>152</ele>
        <time>2014-10-19T09:25:58.000Z</time>
      </trkpt>
      <trkpt lat="48.91344" lon="1.09495">
        <ele>151.60000610352</ele>
        <time>2014-10-19T09:26:12.000Z</time>
      </trkpt>
      <trkpt lat="48.91293" lon="1.09501">
        <ele>152</ele>
        <time>2014-10-19T09:26:27.000Z</time>
      </trkpt>
      <trkpt lat="48.91236" lon="1.09498">
        <ele>153.39999389648</ele>
        <time>2014-10-19T09:26:43.000Z</time>
      </trkpt>
      <trkpt lat="48.91202" lon="1.09521">
        <ele>155.39999389648</ele>
        <time>2014-10-19T09:26:54.000Z</time>
      </trkpt>
      <trkpt lat="48.91166" lon="1.09538">
        <ele>158.80000305176</ele>
        <time>2014-10-19T09:27:06.000Z</time>
      </trkpt>
      <trkpt lat="48.91129" lon="1.09554">
        <ele>161.19999694824</ele>
        <time>2014-10-19T09:27:16.000Z</time>
      </trkpt>
      <trkpt lat="48.91095" lon="1.09575">
        <ele>162.19999694824</ele>
        <time>2014-10-19T09:27:28.000Z</time>
      </trkpt>
      <trkpt lat="48.91074" lon="1.09586">
        <ele>166</ele>
        <time>2014-10-19T09:27:36.000Z</time>
      </trkpt>
      <trkpt lat="48.91039" lon="1.09612">
        <ele>170.80000305176</ele>
        <time>2014-10-19T09:27:47.000Z</time>
      </trkpt>
      <trkpt lat="48.91011" lon="1.09614">
        <ele>168.39999389648</ele>
        <time>2014-10-19T09:27:52.000Z</time>
      </trkpt>
      <trkpt lat="48.91008" lon="1.0961">
        <ele>167.39999389648</ele>
        <time>2014-10-19T09:27:53.000Z</time>
      </trkpt>
      <trkpt lat="48.91007" lon="1.09605">
        <ele>166.39999389648</ele>
        <time>2014-10-19T09:27:54.000Z</time>
      </trkpt>
      <trkpt lat="48.90994" lon="1.09567">
        <ele>162.19999694824</ele>
        <time>2014-10-19T09:28:01.000Z</time>
      </trkpt>
      <trkpt lat="48.90992" lon="1.0956">
        <ele>161.60000610352</ele>
        <time>2014-10-19T09:28:02.000Z</time>
      </trkpt>
      <trkpt lat="48.90991" lon="1.09554">
        <ele>161.60000610352</ele>
        <time>2014-10-19T09:28:03.000Z</time>
      </trkpt>
      <trkpt lat="48.90986" lon="1.09542">
        <ele>161.19999694824</ele>
        <time>2014-10-19T09:28:05.000Z</time>
      </trkpt>
      <trkpt lat="48.90981" lon="1.09531">
        <ele>160.60000610352</ele>
        <time>2014-10-19T09:28:07.000Z</time>
      </trkpt>
      <trkpt lat="48.90975" lon="1.09521">
        <ele>159.80000305176</ele>
        <time>2014-10-19T09:28:09.000Z</time>
      </trkpt>
      <trkpt lat="48.90956" lon="1.09477">
        <ele>158.80000305176</ele>
        <time>2014-10-19T09:28:17.000Z</time>
      </trkpt>
      <trkpt lat="48.90953" lon="1.0947">
        <ele>158.80000305176</ele>
        <time>2014-10-19T09:28:18.000Z</time>
      </trkpt>
      <trkpt lat="48.9095" lon="1.09463">
        <ele>159.19999694824</ele>
        <time>2014-10-19T09:28:19.000Z</time>
      </trkpt>
      <trkpt lat="48.90947" lon="1.09455">
        <ele>159.19999694824</ele>
        <time>2014-10-19T09:28:20.000Z</time>
      </trkpt>
      <trkpt lat="48.90942" lon="1.09447">
        <ele>159.80000305176</ele>
        <time>2014-10-19T09:28:21.000Z</time>
      </trkpt>
      <trkpt lat="48.90937" lon="1.09439">
        <ele>159.80000305176</ele>
        <time>2014-10-19T09:28:22.000Z</time>
      </trkpt>
      <trkpt lat="48.90915" lon="1.09404">
        <ele>160.60000610352</ele>
        <time>2014-10-19T09:28:27.000Z</time>
      </trkpt>
      <trkpt lat="48.90906" lon="1.09393">
        <ele>161.19999694824</ele>
        <time>2014-10-19T09:28:29.000Z</time>
      </trkpt>
      <trkpt lat="48.90882" lon="1.09367">
        <ele>162.19999694824</ele>
        <time>2014-10-19T09:28:34.000Z</time>
      </trkpt>
      <trkpt lat="48.90876" lon="1.09364">
        <ele>162.60000610352</ele>
        <time>2014-10-19T09:28:35.000Z</time>
      </trkpt>
      <trkpt lat="48.90871" lon="1.09363">
        <ele>162.60000610352</ele>
        <time>2014-10-19T09:28:36.000Z</time>
      </trkpt>
      <trkpt lat="48.9082" lon="1.09347">
        <ele>161.19999694824</ele>
        <time>2014-10-19T09:28:45.000Z</time>
      </trkpt>
      <trkpt lat="48.90815" lon="1.09344">
        <ele>161.60000610352</ele>
        <time>2014-10-19T09:28:46.000Z</time>
      </trkpt>
      <trkpt lat="48.9081" lon="1.09341">
        <ele>162.19999694824</ele>
        <time>2014-10-19T09:28:47.000Z</time>
      </trkpt>
      <trkpt lat="48.90805" lon="1.09338">
        <ele>162.19999694824</ele>
        <time>2014-10-19T09:28:48.000Z</time>
      </trkpt>
      <trkpt lat="48.90801" lon="1.09334">
        <ele>162.60000610352</ele>
        <time>2014-10-19T09:28:49.000Z</time>
      </trkpt>
      <trkpt lat="48.90796" lon="1.09331">
        <ele>162.60000610352</ele>
        <time>2014-10-19T09:28:50.000Z</time>
      </trkpt>
      <trkpt lat="48.90791" lon="1.09327">
        <ele>163</ele>
        <time>2014-10-19T09:28:51.000Z</time>
      </trkpt>
      <trkpt lat="48.90786" lon="1.09323">
        <ele>163</ele>
        <time>2014-10-19T09:28:52.000Z</time>
      </trkpt>
      <trkpt lat="48.90781" lon="1.09319">
        <ele>163</ele>
        <time>2014-10-19T09:28:53.000Z</time>
      </trkpt>
      <trkpt lat="48.90745" lon="1.09285">
        <ele>164</ele>
        <time>2014-10-19T09:29:01.000Z</time>
      </trkpt>
      <trkpt lat="48.90699" lon="1.09236">
        <ele>164</ele>
        <time>2014-10-19T09:29:10.000Z</time>
      </trkpt>
      <trkpt lat="48.90697" lon="1.09231">
        <ele>164</ele>
        <time>2014-10-19T09:29:11.000Z</time>
      </trkpt>
      <trkpt lat="48.90697" lon="1.09227">
        <ele>164</ele>
        <time>2014-10-19T09:29:12.000Z</time>
      </trkpt>
      <trkpt lat="48.90698" lon="1.09225">
        <ele>164.60000610352</ele>
        <time>2014-10-19T09:29:13.000Z</time>
      </trkpt>
      <trkpt lat="48.907" lon="1.09223">
        <ele>164.60000610352</ele>
        <time>2014-10-19T09:29:14.000Z</time>
      </trkpt>
      <trkpt lat="48.90702" lon="1.09221">
        <ele>165</ele>
        <time>2014-10-19T09:29:15.000Z</time>
      </trkpt>
      <trkpt lat="48.90705" lon="1.09219">
        <ele>165.39999389648</ele>
        <time>2014-10-19T09:29:16.000Z</time>
      </trkpt>
      <trkpt lat="48.90709" lon="1.09218">
        <ele>165.39999389648</ele>
        <time>2014-10-19T09:29:17.000Z</time>
      </trkpt>
      <trkpt lat="48.90712" lon="1.09216">
        <ele>166</ele>
        <time>2014-10-19T09:29:18.000Z</time>
      </trkpt>
      <trkpt lat="48.9075" lon="1.09189">
        <ele>163.60000610352</ele>
        <time>2014-10-19T09:29:27.000Z</time>
      </trkpt>
      <trkpt lat="48.90749" lon="1.09181">
        <ele>163</ele>
        <time>2014-10-19T09:29:28.000Z</time>
      </trkpt>
      <trkpt lat="48.90748" lon="1.09175">
        <ele>161.60000610352</ele>
        <time>2014-10-19T09:29:29.000Z</time>
      </trkpt>
      <trkpt lat="48.90746" lon="1.09169">
        <ele>160.60000610352</ele>
        <time>2014-10-19T09:29:30.000Z</time>
      </trkpt>
      <trkpt lat="48.90744" lon="1.09163">
        <ele>160.19999694824</ele>
        <time>2014-10-19T09:29:31.000Z</time>
      </trkpt>
      <trkpt lat="48.90742" lon="1.09157">
        <ele>159.80000305176</ele>
        <time>2014-10-19T09:29:32.000Z</time>
      </trkpt>
      <trkpt lat="48.9074" lon="1.09151">
        <ele>159.19999694824</ele>
        <time>2014-10-19T09:29:33.000Z</time>
      </trkpt>
      <trkpt lat="48.90714" lon="1.09076">
        <ele>155.80000305176</ele>
        <time>2014-10-19T09:29:46.000Z</time>
      </trkpt>
      <trkpt lat="48.90686" lon="1.08979">
        <ele>152</ele>
        <time>2014-10-19T09:29:58.000Z</time>
      </trkpt>
      <trkpt lat="48.90666" lon="1.08874">
        <ele>147.60000610352</ele>
        <time>2014-10-19T09:30:09.000Z</time>
      </trkpt>
      <trkpt lat="48.90655" lon="1.0881">
        <ele>146.19999694824</ele>
        <time>2014-10-19T09:30:17.000Z</time>
      </trkpt>
      <trkpt lat="48.90653" lon="1.08794">
        <ele>145.39999389648</ele>
        <time>2014-10-19T09:30:19.000Z</time>
      </trkpt>
      <trkpt lat="48.90652" lon="1.08788">
        <ele>144.80000305176</ele>
        <time>2014-10-19T09:30:20.000Z</time>
      </trkpt>
      <trkpt lat="48.90649" lon="1.08784">
        <ele>144.80000305176</ele>
        <time>2014-10-19T09:30:21.000Z</time>
      </trkpt>
      <trkpt lat="48.90645" lon="1.08781">
        <ele>144.39999389648</ele>
        <time>2014-10-19T09:30:22.000Z</time>
      </trkpt>
      <trkpt lat="48.90641" lon="1.08778">
        <ele>144.39999389648</ele>
        <time>2014-10-19T09:30:23.000Z</time>
      </trkpt>
      <trkpt lat="48.90621" lon="1.08768">
        <ele>143.39999389648</ele>
        <time>2014-10-19T09:30:27.000Z</time>
      </trkpt>
      <trkpt lat="48.90617" lon="1.08764">
        <ele>142.80000305176</ele>
        <time>2014-10-19T09:30:28.000Z</time>
      </trkpt>
      <trkpt lat="48.90612" lon="1.0876">
        <ele>142.80000305176</ele>
        <time>2014-10-19T09:30:29.000Z</time>
      </trkpt>
      <trkpt lat="48.90609" lon="1.08756">
        <ele>142.80000305176</ele>
        <time>2014-10-19T09:30:30.000Z</time>
      </trkpt>
      <trkpt lat="48.90607" lon="1.0875">
        <ele>142.39999389648</ele>
        <time>2014-10-19T09:30:31.000Z</time>
      </trkpt>
      <trkpt lat="48.90604" lon="1.08746">
        <ele>142.39999389648</ele>
        <time>2014-10-19T09:30:32.000Z</time>
      </trkpt>
      <trkpt lat="48.906" lon="1.08744">
        <ele>142</ele>
        <time>2014-10-19T09:30:33.000Z</time>
      </trkpt>
      <trkpt lat="48.90596" lon="1.08744">
        <ele>141.39999389648</ele>
        <time>2014-10-19T09:30:34.000Z</time>
      </trkpt>
      <trkpt lat="48.90591" lon="1.08744">
        <ele>141</ele>
        <time>2014-10-19T09:30:35.000Z</time>
      </trkpt>
      <trkpt lat="48.90586" lon="1.08743">
        <ele>141</ele>
        <time>2014-10-19T09:30:36.000Z</time>
      </trkpt>
      <trkpt lat="48.90581" lon="1.08741">
        <ele>140.39999389648</ele>
        <time>2014-10-19T09:30:37.000Z</time>
      </trkpt>
      <trkpt lat="48.90576" lon="1.08739">
        <ele>140.39999389648</ele>
        <time>2014-10-19T09:30:38.000Z</time>
      </trkpt>
      <trkpt lat="48.90573" lon="1.08736">
        <ele>140.39999389648</ele>
        <time>2014-10-19T09:30:39.000Z</time>
      </trkpt>
      <trkpt lat="48.90571" lon="1.08732">
        <ele>140.39999389648</ele>
        <time>2014-10-19T09:30:40.000Z</time>
      </trkpt>
      <trkpt lat="48.90569" lon="1.08727">
        <ele>140.39999389648</ele>
        <time>2014-10-19T09:30:41.000Z</time>
      </trkpt>
      <trkpt lat="48.90568" lon="1.08722">
        <ele>140.39999389648</ele>
        <time>2014-10-19T09:30:42.000Z</time>
      </trkpt>
      <trkpt lat="48.90566" lon="1.08717">
        <ele>140</ele>
        <time>2014-10-19T09:30:43.000Z</time>
      </trkpt>
      <trkpt lat="48.90562" lon="1.08695">
        <ele>138.60000610352</ele>
        <time>2014-10-19T09:30:48.000Z</time>
      </trkpt>
      <trkpt lat="48.90559" lon="1.08691">
        <ele>138.60000610352</ele>
        <time>2014-10-19T09:30:49.000Z</time>
      </trkpt>
      <trkpt lat="48.90556" lon="1.08686">
        <ele>138</ele>
        <time>2014-10-19T09:30:50.000Z</time>
      </trkpt>
      <trkpt lat="48.90552" lon="1.08683">
        <ele>137.60000610352</ele>
        <time>2014-10-19T09:30:51.000Z</time>
      </trkpt>
      <trkpt lat="48.90547" lon="1.08681">
        <ele>136.60000610352</ele>
        <time>2014-10-19T09:30:52.000Z</time>
      </trkpt>
      <trkpt lat="48.90542" lon="1.0868">
        <ele>136.19999694824</ele>
        <time>2014-10-19T09:30:53.000Z</time>
      </trkpt>
      <trkpt lat="48.90533" lon="1.08681">
        <ele>135.19999694824</ele>
        <time>2014-10-19T09:30:54.000Z</time>
      </trkpt>
      <trkpt lat="48.90526" lon="1.08685">
        <ele>134.80000305176</ele>
        <time>2014-10-19T09:30:55.000Z</time>
      </trkpt>
      <trkpt lat="48.9052" lon="1.08689">
        <ele>133.80000305176</ele>
        <time>2014-10-19T09:30:56.000Z</time>
      </trkpt>
      <trkpt lat="48.90516" lon="1.08695">
        <ele>133.19999694824</ele>
        <time>2014-10-19T09:30:57.000Z</time>
      </trkpt>
      <trkpt lat="48.90512" lon="1.08701">
        <ele>133.19999694824</ele>
        <time>2014-10-19T09:30:58.000Z</time>
      </trkpt>
      <trkpt lat="48.90505" lon="1.08712">
        <ele>132.39999389648</ele>
        <time>2014-10-19T09:31:00.000Z</time>
      </trkpt>
      <trkpt lat="48.90503" lon="1.08718">
        <ele>131.80000305176</ele>
        <time>2014-10-19T09:31:01.000Z</time>
      </trkpt>
      <trkpt lat="48.90499" lon="1.0873">
        <ele>130.80000305176</ele>
        <time>2014-10-19T09:31:03.000Z</time>
      </trkpt>
      <trkpt lat="48.90497" lon="1.08735">
        <ele>130.80000305176</ele>
        <time>2014-10-19T09:31:04.000Z</time>
      </trkpt>
      <trkpt lat="48.90497" lon="1.08741">
        <ele>130.39999389648</ele>
        <time>2014-10-19T09:31:05.000Z</time>
      </trkpt>
      <trkpt lat="48.90492" lon="1.08792">
        <ele>128.39999389648</ele>
        <time>2014-10-19T09:31:14.000Z</time>
      </trkpt>
      <trkpt lat="48.90491" lon="1.08799">
        <ele>128.39999389648</ele>
        <time>2014-10-19T09:31:15.000Z</time>
      </trkpt>
      <trkpt lat="48.90486" lon="1.08817">
        <ele>128.39999389648</ele>
        <time>2014-10-19T09:31:18.000Z</time>
      </trkpt>
      <trkpt lat="48.90484" lon="1.08823">
        <ele>128</ele>
        <time>2014-10-19T09:31:19.000Z</time>
      </trkpt>
      <trkpt lat="48.90481" lon="1.08828">
        <ele>128</ele>
        <time>2014-10-19T09:31:20.000Z</time>
      </trkpt>
      <trkpt lat="48.90472" lon="1.08843">
        <ele>127.59999847412</ele>
        <time>2014-10-19T09:31:23.000Z</time>
      </trkpt>
      <trkpt lat="48.90431" lon="1.08884">
        <ele>128</ele>
        <time>2014-10-19T09:31:35.000Z</time>
      </trkpt>
      <trkpt lat="48.90358" lon="1.08931">
        <ele>129</ele>
        <time>2014-10-19T09:31:55.000Z</time>
      </trkpt>
      <trkpt lat="48.90331" lon="1.08948">
        <ele>128</ele>
        <time>2014-10-19T09:32:04.000Z</time>
      </trkpt>
      <trkpt lat="48.90297" lon="1.08991">
        <ele>129</ele>
        <time>2014-10-19T09:32:18.000Z</time>
      </trkpt>
      <trkpt lat="48.90276" lon="1.09055">
        <ele>126.59999847412</ele>
        <time>2014-10-19T09:32:32.000Z</time>
      </trkpt>
      <trkpt lat="48.90246" lon="1.09108">
        <ele>123.59999847412</ele>
        <time>2014-10-19T09:32:46.000Z</time>
      </trkpt>
      <trkpt lat="48.90209" lon="1.09161">
        <ele>127</ele>
        <time>2014-10-19T09:33:00.000Z</time>
      </trkpt>
      <trkpt lat="48.90205" lon="1.09168">
        <ele>127.59999847412</ele>
        <time>2014-10-19T09:33:02.000Z</time>
      </trkpt>
      <trkpt lat="48.90202" lon="1.0917">
        <ele>128</ele>
        <time>2014-10-19T09:33:03.000Z</time>
      </trkpt>
      <trkpt lat="48.90199" lon="1.0917">
        <ele>128.39999389648</ele>
        <time>2014-10-19T09:33:04.000Z</time>
      </trkpt>
      <trkpt lat="48.90196" lon="1.0917">
        <ele>128.39999389648</ele>
        <time>2014-10-19T09:33:05.000Z</time>
      </trkpt>
      <trkpt lat="48.90192" lon="1.0917">
        <ele>129</ele>
        <time>2014-10-19T09:33:06.000Z</time>
      </trkpt>
      <trkpt lat="48.90188" lon="1.0917">
        <ele>129</ele>
        <time>2014-10-19T09:33:07.000Z</time>
      </trkpt>
      <trkpt lat="48.90183" lon="1.09171">
        <ele>129.39999389648</ele>
        <time>2014-10-19T09:33:08.000Z</time>
      </trkpt>
      <trkpt lat="48.90178" lon="1.09172">
        <ele>130</ele>
        <time>2014-10-19T09:33:09.000Z</time>
      </trkpt>
      <trkpt lat="48.90168" lon="1.09174">
        <ele>130.39999389648</ele>
        <time>2014-10-19T09:33:11.000Z</time>
      </trkpt>
      <trkpt lat="48.90164" lon="1.09173">
        <ele>130.80000305176</ele>
        <time>2014-10-19T09:33:12.000Z</time>
      </trkpt>
      <trkpt lat="48.90159" lon="1.09172">
        <ele>130.80000305176</ele>
        <time>2014-10-19T09:33:13.000Z</time>
      </trkpt>
      <trkpt lat="48.90155" lon="1.09168">
        <ele>131.39999389648</ele>
        <time>2014-10-19T09:33:14.000Z</time>
      </trkpt>
      <trkpt lat="48.90152" lon="1.09164">
        <ele>131.39999389648</ele>
        <time>2014-10-19T09:33:15.000Z</time>
      </trkpt>
      <trkpt lat="48.90149" lon="1.09159">
        <ele>131.80000305176</ele>
        <time>2014-10-19T09:33:16.000Z</time>
      </trkpt>
      <trkpt lat="48.90148" lon="1.09155">
        <ele>131.80000305176</ele>
        <time>2014-10-19T09:33:17.000Z</time>
      </trkpt>
      <trkpt lat="48.90146" lon="1.09151">
        <ele>132.39999389648</ele>
        <time>2014-10-19T09:33:18.000Z</time>
      </trkpt>
      <trkpt lat="48.9013" lon="1.09094">
        <ele>135.19999694824</ele>
        <time>2014-10-19T09:33:34.000Z</time>
      </trkpt>
      <trkpt lat="48.90118" lon="1.09042">
        <ele>136.60000610352</ele>
        <time>2014-10-19T09:33:46.000Z</time>
      </trkpt>
      <trkpt lat="48.90094" lon="1.0897">
        <ele>137.19999694824</ele>
        <time>2014-10-19T09:34:03.000Z</time>
      </trkpt>
      <trkpt lat="48.90048" lon="1.08927">
        <ele>138</ele>
        <time>2014-10-19T09:34:18.000Z</time>
      </trkpt>
      <trkpt lat="48.90044" lon="1.08924">
        <ele>138</ele>
        <time>2014-10-19T09:34:19.000Z</time>
      </trkpt>
      <trkpt lat="48.90009" lon="1.08886">
        <ele>137.19999694824</ele>
        <time>2014-10-19T09:34:28.000Z</time>
      </trkpt>
      <trkpt lat="48.90001" lon="1.08876">
        <ele>137.19999694824</ele>
        <time>2014-10-19T09:34:30.000Z</time>
      </trkpt>
      <trkpt lat="48.8993" lon="1.08782">
        <ele>138.60000610352</ele>
        <time>2014-10-19T09:34:48.000Z</time>
      </trkpt>
      <trkpt lat="48.89878" lon="1.08713">
        <ele>139</ele>
        <time>2014-10-19T09:35:04.000Z</time>
      </trkpt>
      <trkpt lat="48.89847" lon="1.08673">
        <ele>140</ele>
        <time>2014-10-19T09:35:18.000Z</time>
      </trkpt>
      <trkpt lat="48.89822" lon="1.08639">
        <ele>141.39999389648</ele>
        <time>2014-10-19T09:35:30.000Z</time>
      </trkpt>
      <trkpt lat="48.898" lon="1.08623">
        <ele>142</ele>
        <time>2014-10-19T09:35:40.000Z</time>
      </trkpt>
      <trkpt lat="48.89771" lon="1.08638">
        <ele>141.39999389648</ele>
        <time>2014-10-19T09:35:53.000Z</time>
      </trkpt>
      <trkpt lat="48.89758" lon="1.08644">
        <ele>142</ele>
        <time>2014-10-19T09:35:58.000Z</time>
      </trkpt>
      <trkpt lat="48.89727" lon="1.08654">
        <ele>147.60000610352</ele>
        <time>2014-10-19T09:36:10.000Z</time>
      </trkpt>
      <trkpt lat="48.89685" lon="1.08663">
        <ele>149.60000610352</ele>
        <time>2014-10-19T09:36:21.000Z</time>
      </trkpt>
      <trkpt lat="48.89632" lon="1.08662">
        <ele>151</ele>
        <time>2014-10-19T09:36:33.000Z</time>
      </trkpt>
      <trkpt lat="48.89627" lon="1.08662">
        <ele>151</ele>
        <time>2014-10-19T09:36:34.000Z</time>
      </trkpt>
      <trkpt lat="48.89598" lon="1.08663">
        <ele>150.60000610352</ele>
        <time>2014-10-19T09:36:40.000Z</time>
      </trkpt>
      <trkpt lat="48.89534" lon="1.08669">
        <ele>145.80000305176</ele>
        <time>2014-10-19T09:36:55.000Z</time>
      </trkpt>
      <trkpt lat="48.89532" lon="1.08666">
        <ele>145.80000305176</ele>
        <time>2014-10-19T09:36:56.000Z</time>
      </trkpt>
      <trkpt lat="48.89533" lon="1.0866">
        <ele>145.80000305176</ele>
        <time>2014-10-19T09:36:57.000Z</time>
      </trkpt>
      <trkpt lat="48.89534" lon="1.08655">
        <ele>145.80000305176</ele>
        <time>2014-10-19T09:36:58.000Z</time>
      </trkpt>
      <trkpt lat="48.89536" lon="1.08649">
        <ele>145.80000305176</ele>
        <time>2014-10-19T09:36:59.000Z</time>
      </trkpt>
      <trkpt lat="48.89538" lon="1.08608">
        <ele>143.80000305176</ele>
        <time>2014-10-19T09:37:06.000Z</time>
      </trkpt>
      <trkpt lat="48.89536" lon="1.08601">
        <ele>143.80000305176</ele>
        <time>2014-10-19T09:37:07.000Z</time>
      </trkpt>
      <trkpt lat="48.89532" lon="1.08583">
        <ele>143.39999389648</ele>
        <time>2014-10-19T09:37:10.000Z</time>
      </trkpt>
      <trkpt lat="48.8953" lon="1.08577">
        <ele>143.39999389648</ele>
        <time>2014-10-19T09:37:11.000Z</time>
      </trkpt>
      <trkpt lat="48.89528" lon="1.08571">
        <ele>143.39999389648</ele>
        <time>2014-10-19T09:37:12.000Z</time>
      </trkpt>
      <trkpt lat="48.89495" lon="1.08481">
        <ele>142.39999389648</ele>
        <time>2014-10-19T09:37:27.000Z</time>
      </trkpt>
      <trkpt lat="48.89495" lon="1.08473">
        <ele>142</ele>
        <time>2014-10-19T09:37:28.000Z</time>
      </trkpt>
      <trkpt lat="48.89494" lon="1.08464">
        <ele>142</ele>
        <time>2014-10-19T09:37:29.000Z</time>
      </trkpt>
      <trkpt lat="48.89493" lon="1.08455">
        <ele>141.39999389648</ele>
        <time>2014-10-19T09:37:30.000Z</time>
      </trkpt>
      <trkpt lat="48.89492" lon="1.08444">
        <ele>141</ele>
        <time>2014-10-19T09:37:31.000Z</time>
      </trkpt>
      <trkpt lat="48.89491" lon="1.08434">
        <ele>140.39999389648</ele>
        <time>2014-10-19T09:37:32.000Z</time>
      </trkpt>
      <trkpt lat="48.89489" lon="1.084">
        <ele>139.60000610352</ele>
        <time>2014-10-19T09:37:35.000Z</time>
      </trkpt>
      <trkpt lat="48.89487" lon="1.08388">
        <ele>139</ele>
        <time>2014-10-19T09:37:36.000Z</time>
      </trkpt>
      <trkpt lat="48.89483" lon="1.08376">
        <ele>138.60000610352</ele>
        <time>2014-10-19T09:37:37.000Z</time>
      </trkpt>
      <trkpt lat="48.89479" lon="1.08364">
        <ele>137.60000610352</ele>
        <time>2014-10-19T09:37:38.000Z</time>
      </trkpt>
      <trkpt lat="48.89474" lon="1.08353">
        <ele>137.19999694824</ele>
        <time>2014-10-19T09:37:39.000Z</time>
      </trkpt>
      <trkpt lat="48.89414" lon="1.08232">
        <ele>134.80000305176</ele>
        <time>2014-10-19T09:37:52.000Z</time>
      </trkpt>
      <trkpt lat="48.89411" lon="1.08225">
        <ele>134.80000305176</ele>
        <time>2014-10-19T09:37:53.000Z</time>
      </trkpt>
      <trkpt lat="48.89407" lon="1.0822">
        <ele>134.80000305176</ele>
        <time>2014-10-19T09:37:54.000Z</time>
      </trkpt>
      <trkpt lat="48.89402" lon="1.08218">
        <ele>134.19999694824</ele>
        <time>2014-10-19T09:37:55.000Z</time>
      </trkpt>
      <trkpt lat="48.89396" lon="1.08221">
        <ele>134.19999694824</ele>
        <time>2014-10-19T09:37:56.000Z</time>
      </trkpt>
      <trkpt lat="48.89393" lon="1.08223">
        <ele>134.19999694824</ele>
        <time>2014-10-19T09:37:57.000Z</time>
      </trkpt>
      <trkpt lat="48.89388" lon="1.08227">
        <ele>133.80000305176</ele>
        <time>2014-10-19T09:37:58.000Z</time>
      </trkpt>
      <trkpt lat="48.89384" lon="1.0823">
        <ele>133.80000305176</ele>
        <time>2014-10-19T09:37:59.000Z</time>
      </trkpt>
      <trkpt lat="48.89301" lon="1.08265">
        <ele>133.19999694824</ele>
        <time>2014-10-19T09:38:16.000Z</time>
      </trkpt>
      <trkpt lat="48.89233" lon="1.08313">
        <ele>134.19999694824</ele>
        <time>2014-10-19T09:38:32.000Z</time>
      </trkpt>
      <trkpt lat="48.89162" lon="1.08407">
        <ele>136.60000610352</ele>
        <time>2014-10-19T09:38:51.000Z</time>
      </trkpt>
      <trkpt lat="48.89118" lon="1.08478">
        <ele>137.60000610352</ele>
        <time>2014-10-19T09:39:04.000Z</time>
      </trkpt>
      <trkpt lat="48.89103" lon="1.08511">
        <ele>137.60000610352</ele>
        <time>2014-10-19T09:39:09.000Z</time>
      </trkpt>
      <trkpt lat="48.89101" lon="1.08518">
        <ele>137.60000610352</ele>
        <time>2014-10-19T09:39:10.000Z</time>
      </trkpt>
      <trkpt lat="48.89094" lon="1.0853">
        <ele>137.60000610352</ele>
        <time>2014-10-19T09:39:12.000Z</time>
      </trkpt>
      <trkpt lat="48.89066" lon="1.08582">
        <ele>135.60000610352</ele>
        <time>2014-10-19T09:39:21.000Z</time>
      </trkpt>
      <trkpt lat="48.89046" lon="1.08612">
        <ele>134.19999694824</ele>
        <time>2014-10-19T09:39:27.000Z</time>
      </trkpt>
      <trkpt lat="48.8901" lon="1.08672">
        <ele>128</ele>
        <time>2014-10-19T09:39:40.000Z</time>
      </trkpt>
      <trkpt lat="48.88965" lon="1.08745">
        <ele>119.40000152588</ele>
        <time>2014-10-19T09:39:56.000Z</time>
      </trkpt>
      <trkpt lat="48.88912" lon="1.08821">
        <ele>126.59999847412</ele>
        <time>2014-10-19T09:40:12.000Z</time>
      </trkpt>
      <trkpt lat="48.88898" lon="1.08845">
        <ele>127</ele>
        <time>2014-10-19T09:40:18.000Z</time>
      </trkpt>
      <trkpt lat="48.88895" lon="1.0885">
        <ele>127</ele>
        <time>2014-10-19T09:40:19.000Z</time>
      </trkpt>
      <trkpt lat="48.88892" lon="1.08855">
        <ele>127</ele>
        <time>2014-10-19T09:40:20.000Z</time>
      </trkpt>
      <trkpt lat="48.88866" lon="1.08897">
        <ele>127</ele>
        <time>2014-10-19T09:40:29.000Z</time>
      </trkpt>
      <trkpt lat="48.88861" lon="1.08902">
        <ele>127</ele>
        <time>2014-10-19T09:40:30.000Z</time>
      </trkpt>
      <trkpt lat="48.88811" lon="1.08981">
        <ele>126.59999847412</ele>
        <time>2014-10-19T09:40:45.000Z</time>
      </trkpt>
      <trkpt lat="48.88756" lon="1.09064">
        <ele>126.59999847412</ele>
        <time>2014-10-19T09:41:03.000Z</time>
      </trkpt>
      <trkpt lat="48.88734" lon="1.09089">
        <ele>134.80000305176</ele>
        <time>2014-10-19T09:41:14.000Z</time>
      </trkpt>
      <trkpt lat="48.88733" lon="1.09092">
        <ele>134.80000305176</ele>
        <time>2014-10-19T09:41:15.000Z</time>
      </trkpt>
      <trkpt lat="48.8873" lon="1.09096">
        <ele>136.60000610352</ele>
        <time>2014-10-19T09:41:16.000Z</time>
      </trkpt>
      <trkpt lat="48.88724" lon="1.09105">
        <ele>136.60000610352</ele>
        <time>2014-10-19T09:41:18.000Z</time>
      </trkpt>
      <trkpt lat="48.8872" lon="1.09109">
        <ele>137.19999694824</ele>
        <time>2014-10-19T09:41:19.000Z</time>
      </trkpt>
      <trkpt lat="48.88715" lon="1.09112">
        <ele>137.19999694824</ele>
        <time>2014-10-19T09:41:20.000Z</time>
      </trkpt>
      <trkpt lat="48.88711" lon="1.09116">
        <ele>137.60000610352</ele>
        <time>2014-10-19T09:41:21.000Z</time>
      </trkpt>
      <trkpt lat="48.88707" lon="1.09121">
        <ele>137.60000610352</ele>
        <time>2014-10-19T09:41:22.000Z</time>
      </trkpt>
      <trkpt lat="48.88699" lon="1.0913">
        <ele>138</ele>
        <time>2014-10-19T09:41:24.000Z</time>
      </trkpt>
      <trkpt lat="48.8863" lon="1.09202">
        <ele>142</ele>
        <time>2014-10-19T09:41:41.000Z</time>
      </trkpt>
      <trkpt lat="48.88563" lon="1.09271">
        <ele>143.80000305176</ele>
        <time>2014-10-19T09:41:58.000Z</time>
      </trkpt>
      <trkpt lat="48.88529" lon="1.09333">
        <ele>143.39999389648</ele>
        <time>2014-10-19T09:42:09.000Z</time>
      </trkpt>
      <trkpt lat="48.88527" lon="1.0934">
        <ele>143.39999389648</ele>
        <time>2014-10-19T09:42:10.000Z</time>
      </trkpt>
      <trkpt lat="48.88526" lon="1.09347">
        <ele>143.80000305176</ele>
        <time>2014-10-19T09:42:11.000Z</time>
      </trkpt>
      <trkpt lat="48.88526" lon="1.09354">
        <ele>143.80000305176</ele>
        <time>2014-10-19T09:42:12.000Z</time>
      </trkpt>
      <trkpt lat="48.88525" lon="1.09361">
        <ele>143.39999389648</ele>
        <time>2014-10-19T09:42:13.000Z</time>
      </trkpt>
      <trkpt lat="48.88522" lon="1.0939">
        <ele>143.39999389648</ele>
        <time>2014-10-19T09:42:17.000Z</time>
      </trkpt>
      <trkpt lat="48.88522" lon="1.09398">
        <ele>142.80000305176</ele>
        <time>2014-10-19T09:42:18.000Z</time>
      </trkpt>
      <trkpt lat="48.88523" lon="1.09407">
        <ele>142.80000305176</ele>
        <time>2014-10-19T09:42:19.000Z</time>
      </trkpt>
      <trkpt lat="48.88522" lon="1.09413">
        <ele>142.80000305176</ele>
        <time>2014-10-19T09:42:20.000Z</time>
      </trkpt>
      <trkpt lat="48.88521" lon="1.0942">
        <ele>142.80000305176</ele>
        <time>2014-10-19T09:42:21.000Z</time>
      </trkpt>
      <trkpt lat="48.8852" lon="1.09427">
        <ele>142.39999389648</ele>
        <time>2014-10-19T09:42:22.000Z</time>
      </trkpt>
      <trkpt lat="48.88519" lon="1.09434">
        <ele>142.39999389648</ele>
        <time>2014-10-19T09:42:23.000Z</time>
      </trkpt>
      <trkpt lat="48.88504" lon="1.09552">
        <ele>142.80000305176</ele>
        <time>2014-10-19T09:42:41.000Z</time>
      </trkpt>
      <trkpt lat="48.88492" lon="1.09641">
        <ele>142.80000305176</ele>
        <time>2014-10-19T09:42:56.000Z</time>
      </trkpt>
      <trkpt lat="48.88479" lon="1.09736">
        <ele>143.80000305176</ele>
        <time>2014-10-19T09:43:13.000Z</time>
      </trkpt>
      <trkpt lat="48.88474" lon="1.09764">
        <ele>143.80000305176</ele>
        <time>2014-10-19T09:43:18.000Z</time>
      </trkpt>
      <trkpt lat="48.88473" lon="1.0977">
        <ele>143.39999389648</ele>
        <time>2014-10-19T09:43:19.000Z</time>
      </trkpt>
      <trkpt lat="48.88468" lon="1.09801">
        <ele>143.80000305176</ele>
        <time>2014-10-19T09:43:24.000Z</time>
      </trkpt>
      <trkpt lat="48.88466" lon="1.09807">
        <ele>143.80000305176</ele>
        <time>2014-10-19T09:43:25.000Z</time>
      </trkpt>
      <trkpt lat="48.88449" lon="1.09851">
        <ele>143.80000305176</ele>
        <time>2014-10-19T09:43:33.000Z</time>
      </trkpt>
      <trkpt lat="48.88447" lon="1.09852">
        <ele>143.80000305176</ele>
        <time>2014-10-19T09:43:34.000Z</time>
      </trkpt>
      <trkpt lat="48.88444" lon="1.0985">
        <ele>143.80000305176</ele>
        <time>2014-10-19T09:43:35.000Z</time>
      </trkpt>
      <trkpt lat="48.88442" lon="1.09846">
        <ele>143.80000305176</ele>
        <time>2014-10-19T09:43:36.000Z</time>
      </trkpt>
      <trkpt lat="48.88442" lon="1.09844">
        <ele>143.80000305176</ele>
        <time>2014-10-19T09:43:37.000Z</time>
      </trkpt>
      <trkpt lat="48.88441" lon="1.0984">
        <ele>143.80000305176</ele>
        <time>2014-10-19T09:43:38.000Z</time>
      </trkpt>
      <trkpt lat="48.8844" lon="1.09837">
        <ele>143.80000305176</ele>
        <time>2014-10-19T09:43:39.000Z</time>
      </trkpt>
      <trkpt lat="48.88426" lon="1.09775">
        <ele>143.39999389648</ele>
        <time>2014-10-19T09:43:52.000Z</time>
      </trkpt>
      <trkpt lat="48.88415" lon="1.09737">
        <ele>142.39999389648</ele>
        <time>2014-10-19T09:43:59.000Z</time>
      </trkpt>
      <trkpt lat="48.88412" lon="1.09731">
        <ele>142.39999389648</ele>
        <time>2014-10-19T09:44:00.000Z</time>
      </trkpt>
      <trkpt lat="48.8841" lon="1.09726">
        <ele>142</ele>
        <time>2014-10-19T09:44:01.000Z</time>
      </trkpt>
      <trkpt lat="48.88408" lon="1.0972">
        <ele>142</ele>
        <time>2014-10-19T09:44:02.000Z</time>
      </trkpt>
      <trkpt lat="48.88405" lon="1.09715">
        <ele>142</ele>
        <time>2014-10-19T09:44:03.000Z</time>
      </trkpt>
      <trkpt lat="48.88402" lon="1.0971">
        <ele>142</ele>
        <time>2014-10-19T09:44:04.000Z</time>
      </trkpt>
      <trkpt lat="48.88399" lon="1.09705">
        <ele>142.39999389648</ele>
        <time>2014-10-19T09:44:05.000Z</time>
      </trkpt>
      <trkpt lat="48.8835" lon="1.09628">
        <ele>142</ele>
        <time>2014-10-19T09:44:20.000Z</time>
      </trkpt>
      <trkpt lat="48.88348" lon="1.09622">
        <ele>142</ele>
        <time>2014-10-19T09:44:21.000Z</time>
      </trkpt>
      <trkpt lat="48.88347" lon="1.09616">
        <ele>142</ele>
        <time>2014-10-19T09:44:22.000Z</time>
      </trkpt>
      <trkpt lat="48.88347" lon="1.0961">
        <ele>142</ele>
        <time>2014-10-19T09:44:23.000Z</time>
      </trkpt>
      <trkpt lat="48.88348" lon="1.09598">
        <ele>144.39999389648</ele>
        <time>2014-10-19T09:44:30.000Z</time>
      </trkpt>
      <trkpt lat="48.88348" lon="1.09597">
        <ele>147.60000610352</ele>
        <time>2014-10-19T09:44:38.000Z</time>
      </trkpt>
    </trkseg>
  </trk>
</gpx>